<?xml version="1.0" encoding="UTF-8" standalone="no" ?>
<gpx xmlns="http://www.topografix.com/GPX/1/1" xmlns:xsi="http://www.w3.org/2001/XMLSchema-instance" xsi:schemaLocation="http://www.topografix.com/GPX/1/1 http://www.topografix.com/GPX/1/1/gpx.xsd" version="1.1" creator="VisuGPX - https://www.visugpx.com">
  <metadata>
    <name>Ariège 2015 J1 barrage de Riète / bivouac à l\'étang des Castellasses</name>
    <desc><![CDATA[[url]https://picasaweb.google.com/105108571230570121986/20150712Ariege[/url]
[img]https://lh3.googleusercontent.com/-qFvrlc1yRmM/VaVaFTr3D-I/AAAAAAAAVbk/LOjxKokUZnA/s912-Ic42/DSCN7613.JPG[/img]]]></desc>
  </metadata>
  <trk>
    <name><![CDATA[11-JUIL-15 18:46:18]]></name>
    <trkseg>
      <trkpt lat="42.70477" lon="1.66471">
        <ele>1003</ele>
        <time>2015-07-11T09:14:05Z</time>
      </trkpt>
      <trkpt lat="42.70479" lon="1.66471">
        <ele>1006</ele>
        <time>2015-07-11T09:14:22Z</time>
      </trkpt>
      <trkpt lat="42.70479" lon="1.6647">
        <ele>1010</ele>
        <time>2015-07-11T09:14:23Z</time>
      </trkpt>
      <trkpt lat="42.7048" lon="1.6647">
        <ele>1013</ele>
        <time>2015-07-11T09:14:24Z</time>
      </trkpt>
      <trkpt lat="42.70479" lon="1.6647">
        <ele>1019</ele>
        <time>2015-07-11T09:14:26Z</time>
      </trkpt>
      <trkpt lat="42.70479" lon="1.6647">
        <ele>1024</ele>
        <time>2015-07-11T09:14:28Z</time>
      </trkpt>
      <trkpt lat="42.70478" lon="1.6647">
        <ele>1028</ele>
        <time>2015-07-11T09:14:29Z</time>
      </trkpt>
      <trkpt lat="42.70477" lon="1.6647">
        <ele>1033</ele>
        <time>2015-07-11T09:14:31Z</time>
      </trkpt>
      <trkpt lat="42.70477" lon="1.66471">
        <ele>1038</ele>
        <time>2015-07-11T09:14:33Z</time>
      </trkpt>
      <trkpt lat="42.70475" lon="1.66471">
        <ele>1041</ele>
        <time>2015-07-11T09:14:35Z</time>
      </trkpt>
      <trkpt lat="42.70475" lon="1.66472">
        <ele>1045</ele>
        <time>2015-07-11T09:14:37Z</time>
      </trkpt>
      <trkpt lat="42.70474" lon="1.66472">
        <ele>1048</ele>
        <time>2015-07-11T09:14:39Z</time>
      </trkpt>
      <trkpt lat="42.70474" lon="1.66473">
        <ele>1052</ele>
        <time>2015-07-11T09:14:41Z</time>
      </trkpt>
      <trkpt lat="42.70476" lon="1.66474">
        <ele>1055</ele>
        <time>2015-07-11T09:14:43Z</time>
      </trkpt>
      <trkpt lat="42.70476" lon="1.66474">
        <ele>1059</ele>
        <time>2015-07-11T09:14:45Z</time>
      </trkpt>
      <trkpt lat="42.70476" lon="1.66475">
        <ele>1062</ele>
        <time>2015-07-11T09:14:48Z</time>
      </trkpt>
      <trkpt lat="42.70475" lon="1.66474">
        <ele>1066</ele>
        <time>2015-07-11T09:14:51Z</time>
      </trkpt>
      <trkpt lat="42.70475" lon="1.66473">
        <ele>1071</ele>
        <time>2015-07-11T09:14:54Z</time>
      </trkpt>
      <trkpt lat="42.70475" lon="1.66472">
        <ele>1074</ele>
        <time>2015-07-11T09:14:57Z</time>
      </trkpt>
      <trkpt lat="42.70475" lon="1.66471">
        <ele>1077</ele>
        <time>2015-07-11T09:15:00Z</time>
      </trkpt>
      <trkpt lat="42.70475" lon="1.66471">
        <ele>1081</ele>
        <time>2015-07-11T09:15:03Z</time>
      </trkpt>
      <trkpt lat="42.70475" lon="1.66471">
        <ele>1082</ele>
        <time>2015-07-11T09:15:04Z</time>
      </trkpt>
      <trkpt lat="42.70475" lon="1.66471">
        <ele>1085</ele>
        <time>2015-07-11T09:15:07Z</time>
      </trkpt>
      <trkpt lat="42.70475" lon="1.66472">
        <ele>1087</ele>
        <time>2015-07-11T09:15:10Z</time>
      </trkpt>
      <trkpt lat="42.70476" lon="1.66472">
        <ele>1091</ele>
        <time>2015-07-11T09:15:14Z</time>
      </trkpt>
      <trkpt lat="42.70476" lon="1.66472">
        <ele>1094</ele>
        <time>2015-07-11T09:15:18Z</time>
      </trkpt>
      <trkpt lat="42.70476" lon="1.66473">
        <ele>1094</ele>
        <time>2015-07-11T09:15:19Z</time>
      </trkpt>
      <trkpt lat="42.70476" lon="1.66473">
        <ele>1096</ele>
        <time>2015-07-11T09:15:22Z</time>
      </trkpt>
      <trkpt lat="42.70474" lon="1.66473">
        <ele>1099</ele>
        <time>2015-07-11T09:15:28Z</time>
      </trkpt>
      <trkpt lat="42.70472" lon="1.66475">
        <ele>1102</ele>
        <time>2015-07-11T09:15:35Z</time>
      </trkpt>
      <trkpt lat="42.70472" lon="1.66476">
        <ele>1106</ele>
        <time>2015-07-11T09:15:48Z</time>
      </trkpt>
      <trkpt lat="42.70474" lon="1.66476">
        <ele>1109</ele>
        <time>2015-07-11T09:16:05Z</time>
      </trkpt>
      <trkpt lat="42.70471" lon="1.66476">
        <ele>1112</ele>
        <time>2015-07-11T09:16:24Z</time>
      </trkpt>
      <trkpt lat="42.7047" lon="1.66473">
        <ele>1113</ele>
        <time>2015-07-11T09:16:50Z</time>
      </trkpt>
      <trkpt lat="42.7047" lon="1.66472">
        <ele>1112</ele>
        <time>2015-07-11T09:17:14Z</time>
      </trkpt>
      <trkpt lat="42.70469" lon="1.66473">
        <ele>1112</ele>
        <time>2015-07-11T09:17:42Z</time>
      </trkpt>
      <trkpt lat="42.70468" lon="1.66475">
        <ele>1112</ele>
        <time>2015-07-11T09:18:07Z</time>
      </trkpt>
      <trkpt lat="42.70473" lon="1.66478">
        <ele>1112</ele>
        <time>2015-07-11T09:18:35Z</time>
      </trkpt>
      <trkpt lat="42.7047" lon="1.66471">
        <ele>1112</ele>
        <time>2015-07-11T09:19:11Z</time>
      </trkpt>
      <trkpt lat="42.70459" lon="1.66468">
        <ele>1112</ele>
        <time>2015-07-11T09:19:36Z</time>
      </trkpt>
      <trkpt lat="42.70465" lon="1.66473">
        <ele>1113</ele>
        <time>2015-07-11T09:20:03Z</time>
      </trkpt>
      <trkpt lat="42.70466" lon="1.66473">
        <ele>1113</ele>
        <time>2015-07-11T09:20:34Z</time>
      </trkpt>
      <trkpt lat="42.70465" lon="1.66471">
        <ele>1113</ele>
        <time>2015-07-11T09:20:59Z</time>
      </trkpt>
      <trkpt lat="42.70471" lon="1.66475">
        <ele>1113</ele>
        <time>2015-07-11T09:21:29Z</time>
      </trkpt>
      <trkpt lat="42.70478" lon="1.66475">
        <ele>1113</ele>
        <time>2015-07-11T09:22:02Z</time>
      </trkpt>
      <trkpt lat="42.70481" lon="1.66472">
        <ele>1112</ele>
        <time>2015-07-11T09:22:38Z</time>
      </trkpt>
      <trkpt lat="42.70479" lon="1.66474">
        <ele>1113</ele>
        <time>2015-07-11T09:23:11Z</time>
      </trkpt>
      <trkpt lat="42.70475" lon="1.66469">
        <ele>1113</ele>
        <time>2015-07-11T09:23:46Z</time>
      </trkpt>
      <trkpt lat="42.70474" lon="1.66467">
        <ele>1114</ele>
        <time>2015-07-11T09:24:11Z</time>
      </trkpt>
      <trkpt lat="42.7047" lon="1.66468">
        <ele>1114</ele>
        <time>2015-07-11T09:24:37Z</time>
      </trkpt>
      <trkpt lat="42.70474" lon="1.66471">
        <ele>1114</ele>
        <time>2015-07-11T09:25:09Z</time>
      </trkpt>
      <trkpt lat="42.7047" lon="1.66472">
        <ele>1114</ele>
        <time>2015-07-11T09:25:42Z</time>
      </trkpt>
      <trkpt lat="42.70473" lon="1.66474">
        <ele>1114</ele>
        <time>2015-07-11T09:26:11Z</time>
      </trkpt>
      <trkpt lat="42.70476" lon="1.66473">
        <ele>1115</ele>
        <time>2015-07-11T09:26:46Z</time>
      </trkpt>
      <trkpt lat="42.70475" lon="1.66474">
        <ele>1114</ele>
        <time>2015-07-11T09:27:17Z</time>
      </trkpt>
      <trkpt lat="42.70477" lon="1.66477">
        <ele>1115</ele>
        <time>2015-07-11T09:27:51Z</time>
      </trkpt>
      <trkpt lat="42.70474" lon="1.66477">
        <ele>1115</ele>
        <time>2015-07-11T09:28:22Z</time>
      </trkpt>
      <trkpt lat="42.70472" lon="1.66476">
        <ele>1115</ele>
        <time>2015-07-11T09:28:54Z</time>
      </trkpt>
      <trkpt lat="42.70474" lon="1.66476">
        <ele>1115</ele>
        <time>2015-07-11T09:29:24Z</time>
      </trkpt>
      <trkpt lat="42.70473" lon="1.66474">
        <ele>1115</ele>
        <time>2015-07-11T09:29:54Z</time>
      </trkpt>
      <trkpt lat="42.70473" lon="1.66475">
        <ele>1115</ele>
        <time>2015-07-11T09:30:18Z</time>
      </trkpt>
      <trkpt lat="42.7048" lon="1.66476">
        <ele>1115</ele>
        <time>2015-07-11T09:30:51Z</time>
      </trkpt>
      <trkpt lat="42.70478" lon="1.66475">
        <ele>1115</ele>
        <time>2015-07-11T09:31:22Z</time>
      </trkpt>
      <trkpt lat="42.70478" lon="1.66472">
        <ele>1115</ele>
        <time>2015-07-11T09:31:53Z</time>
      </trkpt>
      <trkpt lat="42.70476" lon="1.66472">
        <ele>1115</ele>
        <time>2015-07-11T09:32:27Z</time>
      </trkpt>
      <trkpt lat="42.70476" lon="1.66473">
        <ele>1115</ele>
        <time>2015-07-11T09:33:01Z</time>
      </trkpt>
      <trkpt lat="42.70472" lon="1.66476">
        <ele>1115</ele>
        <time>2015-07-11T09:33:41Z</time>
      </trkpt>
      <trkpt lat="42.70478" lon="1.66473">
        <ele>1115</ele>
        <time>2015-07-11T09:34:15Z</time>
      </trkpt>
      <trkpt lat="42.70479" lon="1.66477">
        <ele>1115</ele>
        <time>2015-07-11T09:34:46Z</time>
      </trkpt>
      <trkpt lat="42.70479" lon="1.66477">
        <ele>1115</ele>
        <time>2015-07-11T09:35:16Z</time>
      </trkpt>
      <trkpt lat="42.70478" lon="1.66476">
        <ele>1115</ele>
        <time>2015-07-11T09:35:46Z</time>
      </trkpt>
      <trkpt lat="42.70479" lon="1.66476">
        <ele>1115</ele>
        <time>2015-07-11T09:36:15Z</time>
      </trkpt>
      <trkpt lat="42.70478" lon="1.66474">
        <ele>1115</ele>
        <time>2015-07-11T09:36:44Z</time>
      </trkpt>
      <trkpt lat="42.70481" lon="1.66473">
        <ele>1116</ele>
        <time>2015-07-11T09:37:14Z</time>
      </trkpt>
      <trkpt lat="42.70475" lon="1.66473">
        <ele>1115</ele>
        <time>2015-07-11T09:37:45Z</time>
      </trkpt>
      <trkpt lat="42.70474" lon="1.66474">
        <ele>1116</ele>
        <time>2015-07-11T09:38:15Z</time>
      </trkpt>
      <trkpt lat="42.70476" lon="1.66474">
        <ele>1116</ele>
        <time>2015-07-11T09:38:42Z</time>
      </trkpt>
      <trkpt lat="42.70469" lon="1.66474">
        <ele>1116</ele>
        <time>2015-07-11T09:39:09Z</time>
      </trkpt>
      <trkpt lat="42.70465" lon="1.66473">
        <ele>1116</ele>
        <time>2015-07-11T09:39:40Z</time>
      </trkpt>
      <trkpt lat="42.70464" lon="1.66473">
        <ele>1117</ele>
        <time>2015-07-11T09:40:12Z</time>
      </trkpt>
      <trkpt lat="42.70471" lon="1.66469">
        <ele>1117</ele>
        <time>2015-07-11T09:40:49Z</time>
      </trkpt>
      <trkpt lat="42.7047" lon="1.66471">
        <ele>1117</ele>
        <time>2015-07-11T09:41:17Z</time>
      </trkpt>
      <trkpt lat="42.70465" lon="1.66471">
        <ele>1118</ele>
        <time>2015-07-11T09:41:45Z</time>
      </trkpt>
      <trkpt lat="42.70464" lon="1.6647">
        <ele>1117</ele>
        <time>2015-07-11T09:42:13Z</time>
      </trkpt>
      <trkpt lat="42.70462" lon="1.66465">
        <ele>1118</ele>
        <time>2015-07-11T09:42:46Z</time>
      </trkpt>
      <trkpt lat="42.70469" lon="1.66468">
        <ele>1118</ele>
        <time>2015-07-11T09:43:15Z</time>
      </trkpt>
      <trkpt lat="42.70465" lon="1.6647">
        <ele>1118</ele>
        <time>2015-07-11T09:43:45Z</time>
      </trkpt>
      <trkpt lat="42.70466" lon="1.66468">
        <ele>1119</ele>
        <time>2015-07-11T09:44:15Z</time>
      </trkpt>
      <trkpt lat="42.70476" lon="1.66472">
        <ele>1119</ele>
        <time>2015-07-11T09:44:48Z</time>
      </trkpt>
      <trkpt lat="42.70479" lon="1.6648">
        <ele>1119</ele>
        <time>2015-07-11T09:45:17Z</time>
      </trkpt>
      <trkpt lat="42.70476" lon="1.66477">
        <ele>1119</ele>
        <time>2015-07-11T09:45:48Z</time>
      </trkpt>
      <trkpt lat="42.70471" lon="1.66473">
        <ele>1119</ele>
        <time>2015-07-11T09:46:24Z</time>
      </trkpt>
      <trkpt lat="42.70473" lon="1.66472">
        <ele>1120</ele>
        <time>2015-07-11T09:46:53Z</time>
      </trkpt>
      <trkpt lat="42.70472" lon="1.66473">
        <ele>1120</ele>
        <time>2015-07-11T09:47:23Z</time>
      </trkpt>
      <trkpt lat="42.70468" lon="1.66472">
        <ele>1121</ele>
        <time>2015-07-11T09:47:57Z</time>
      </trkpt>
      <trkpt lat="42.7047" lon="1.66473">
        <ele>1121</ele>
        <time>2015-07-11T09:48:27Z</time>
      </trkpt>
      <trkpt lat="42.70468" lon="1.66474">
        <ele>1122</ele>
        <time>2015-07-11T09:48:59Z</time>
      </trkpt>
      <trkpt lat="42.70466" lon="1.6647">
        <ele>1122</ele>
        <time>2015-07-11T09:49:26Z</time>
      </trkpt>
      <trkpt lat="42.70469" lon="1.6647">
        <ele>1122</ele>
        <time>2015-07-11T09:49:52Z</time>
      </trkpt>
      <trkpt lat="42.70479" lon="1.66475">
        <ele>1123</ele>
        <time>2015-07-11T09:50:23Z</time>
      </trkpt>
      <trkpt lat="42.70469" lon="1.66471">
        <ele>1123</ele>
        <time>2015-07-11T09:50:55Z</time>
      </trkpt>
      <trkpt lat="42.70469" lon="1.66473">
        <ele>1123</ele>
        <time>2015-07-11T09:51:25Z</time>
      </trkpt>
      <trkpt lat="42.7047" lon="1.66473">
        <ele>1123</ele>
        <time>2015-07-11T09:51:54Z</time>
      </trkpt>
      <trkpt lat="42.70465" lon="1.66471">
        <ele>1123</ele>
        <time>2015-07-11T09:52:28Z</time>
      </trkpt>
      <trkpt lat="42.70468" lon="1.6647">
        <ele>1124</ele>
        <time>2015-07-11T09:53:02Z</time>
      </trkpt>
      <trkpt lat="42.70471" lon="1.6647">
        <ele>1124</ele>
        <time>2015-07-11T09:53:34Z</time>
      </trkpt>
      <trkpt lat="42.70473" lon="1.6647">
        <ele>1125</ele>
        <time>2015-07-11T09:54:02Z</time>
      </trkpt>
      <trkpt lat="42.70475" lon="1.66472">
        <ele>1125</ele>
        <time>2015-07-11T09:54:26Z</time>
      </trkpt>
      <trkpt lat="42.7048" lon="1.66473">
        <ele>1125</ele>
        <time>2015-07-11T09:54:53Z</time>
      </trkpt>
      <trkpt lat="42.70478" lon="1.66472">
        <ele>1125</ele>
        <time>2015-07-11T09:55:16Z</time>
      </trkpt>
      <trkpt lat="42.70478" lon="1.66473">
        <ele>1125</ele>
        <time>2015-07-11T09:55:47Z</time>
      </trkpt>
      <trkpt lat="42.7048" lon="1.66476">
        <ele>1125</ele>
        <time>2015-07-11T09:56:09Z</time>
      </trkpt>
      <trkpt lat="42.70476" lon="1.66474">
        <ele>1125</ele>
        <time>2015-07-11T09:56:31Z</time>
      </trkpt>
      <trkpt lat="42.70466" lon="1.66472">
        <ele>1125</ele>
        <time>2015-07-11T09:57:00Z</time>
      </trkpt>
      <trkpt lat="42.70462" lon="1.66468">
        <ele>1125</ele>
        <time>2015-07-11T09:57:28Z</time>
      </trkpt>
      <trkpt lat="42.70461" lon="1.66471">
        <ele>1126</ele>
        <time>2015-07-11T09:58:06Z</time>
      </trkpt>
      <trkpt lat="42.70468" lon="1.66473">
        <ele>1126</ele>
        <time>2015-07-11T09:58:38Z</time>
      </trkpt>
      <trkpt lat="42.7047" lon="1.66474">
        <ele>1126</ele>
        <time>2015-07-11T09:59:09Z</time>
      </trkpt>
      <trkpt lat="42.70475" lon="1.66478">
        <ele>1126</ele>
        <time>2015-07-11T09:59:37Z</time>
      </trkpt>
      <trkpt lat="42.70472" lon="1.66475">
        <ele>1126</ele>
        <time>2015-07-11T10:00:05Z</time>
      </trkpt>
      <trkpt lat="42.70473" lon="1.66476">
        <ele>1127</ele>
        <time>2015-07-11T10:00:40Z</time>
      </trkpt>
      <trkpt lat="42.70477" lon="1.66475">
        <ele>1127</ele>
        <time>2015-07-11T10:01:17Z</time>
      </trkpt>
      <trkpt lat="42.70471" lon="1.66482">
        <ele>1127</ele>
        <time>2015-07-11T10:01:54Z</time>
      </trkpt>
      <trkpt lat="42.70461" lon="1.66475">
        <ele>1127</ele>
        <time>2015-07-11T10:02:31Z</time>
      </trkpt>
      <trkpt lat="42.70467" lon="1.66471">
        <ele>1128</ele>
        <time>2015-07-11T10:03:12Z</time>
      </trkpt>
      <trkpt lat="42.70468" lon="1.66471">
        <ele>1128</ele>
        <time>2015-07-11T10:03:43Z</time>
      </trkpt>
      <trkpt lat="42.70476" lon="1.6648">
        <ele>1129</ele>
        <time>2015-07-11T10:04:16Z</time>
      </trkpt>
      <trkpt lat="42.70473" lon="1.66474">
        <ele>1129</ele>
        <time>2015-07-11T10:04:41Z</time>
      </trkpt>
      <trkpt lat="42.70477" lon="1.66477">
        <ele>1130</ele>
        <time>2015-07-11T10:05:05Z</time>
      </trkpt>
      <trkpt lat="42.70479" lon="1.66481">
        <ele>1129</ele>
        <time>2015-07-11T10:05:25Z</time>
      </trkpt>
      <trkpt lat="42.70479" lon="1.66478">
        <ele>1129</ele>
        <time>2015-07-11T10:05:59Z</time>
      </trkpt>
      <trkpt lat="42.70481" lon="1.66476">
        <ele>1128</ele>
        <time>2015-07-11T10:06:40Z</time>
      </trkpt>
      <trkpt lat="42.70483" lon="1.66474">
        <ele>1129</ele>
        <time>2015-07-11T10:07:16Z</time>
      </trkpt>
      <trkpt lat="42.70477" lon="1.66481">
        <ele>1129</ele>
        <time>2015-07-11T10:07:37Z</time>
      </trkpt>
      <trkpt lat="42.70483" lon="1.66481">
        <ele>1129</ele>
        <time>2015-07-11T10:08:08Z</time>
      </trkpt>
      <trkpt lat="42.70479" lon="1.6648">
        <ele>1128</ele>
        <time>2015-07-11T10:08:53Z</time>
      </trkpt>
      <trkpt lat="42.70469" lon="1.6648">
        <ele>1128</ele>
        <time>2015-07-11T10:09:30Z</time>
      </trkpt>
      <trkpt lat="42.70478" lon="1.66473">
        <ele>1128</ele>
        <time>2015-07-11T10:10:05Z</time>
      </trkpt>
      <trkpt lat="42.70466" lon="1.66467">
        <ele>1128</ele>
        <time>2015-07-11T10:10:40Z</time>
      </trkpt>
      <trkpt lat="42.70468" lon="1.66469">
        <ele>1129</ele>
        <time>2015-07-11T10:11:11Z</time>
      </trkpt>
      <trkpt lat="42.70475" lon="1.6648">
        <ele>1128</ele>
        <time>2015-07-11T10:11:37Z</time>
      </trkpt>
      <trkpt lat="42.70474" lon="1.66482">
        <ele>1128</ele>
        <time>2015-07-11T10:12:09Z</time>
      </trkpt>
      <trkpt lat="42.70468" lon="1.66475">
        <ele>1128</ele>
        <time>2015-07-11T10:12:53Z</time>
      </trkpt>
      <trkpt lat="42.7047" lon="1.66475">
        <ele>1128</ele>
        <time>2015-07-11T10:13:26Z</time>
      </trkpt>
      <trkpt lat="42.70481" lon="1.66473">
        <ele>1127</ele>
        <time>2015-07-11T10:13:50Z</time>
      </trkpt>
      <trkpt lat="42.70483" lon="1.66472">
        <ele>1127</ele>
        <time>2015-07-11T10:14:23Z</time>
      </trkpt>
      <trkpt lat="42.70479" lon="1.66472">
        <ele>1128</ele>
        <time>2015-07-11T10:14:53Z</time>
      </trkpt>
      <trkpt lat="42.7048" lon="1.6647">
        <ele>1127</ele>
        <time>2015-07-11T10:15:26Z</time>
      </trkpt>
      <trkpt lat="42.70477" lon="1.66473">
        <ele>1126</ele>
        <time>2015-07-11T10:15:59Z</time>
      </trkpt>
      <trkpt lat="42.70478" lon="1.66477">
        <ele>1127</ele>
        <time>2015-07-11T10:16:14Z</time>
      </trkpt>
      <trkpt lat="42.70476" lon="1.6648">
        <ele>1127</ele>
        <time>2015-07-11T10:16:33Z</time>
      </trkpt>
      <trkpt lat="42.70476" lon="1.66477">
        <ele>1127</ele>
        <time>2015-07-11T10:16:56Z</time>
      </trkpt>
      <trkpt lat="42.7048" lon="1.66482">
        <ele>1126</ele>
        <time>2015-07-11T10:17:24Z</time>
      </trkpt>
      <trkpt lat="42.70482" lon="1.66475">
        <ele>1128</ele>
        <time>2015-07-11T10:17:40Z</time>
      </trkpt>
      <trkpt lat="42.70482" lon="1.66476">
        <ele>1127</ele>
        <time>2015-07-11T10:17:42Z</time>
      </trkpt>
      <trkpt lat="42.70476" lon="1.66481">
        <ele>1126</ele>
        <time>2015-07-11T10:18:02Z</time>
      </trkpt>
      <trkpt lat="42.70474" lon="1.66491">
        <ele>1126</ele>
        <time>2015-07-11T10:18:28Z</time>
      </trkpt>
      <trkpt lat="42.70478" lon="1.6648">
        <ele>1127</ele>
        <time>2015-07-11T10:18:53Z</time>
      </trkpt>
      <trkpt lat="42.7049" lon="1.66472">
        <ele>1124</ele>
        <time>2015-07-11T10:19:26Z</time>
      </trkpt>
      <trkpt lat="42.70483" lon="1.66466">
        <ele>1118</ele>
        <time>2015-07-11T10:19:44Z</time>
      </trkpt>
      <trkpt lat="42.70484" lon="1.66465">
        <ele>1118</ele>
        <time>2015-07-11T10:19:45Z</time>
      </trkpt>
      <trkpt lat="42.70483" lon="1.66467">
        <ele>1107</ele>
        <time>2015-07-11T10:19:48Z</time>
      </trkpt>
      <trkpt lat="42.70482" lon="1.66468">
        <ele>1107</ele>
        <time>2015-07-11T10:19:49Z</time>
      </trkpt>
      <trkpt lat="42.70479" lon="1.66469">
        <ele>1108</ele>
        <time>2015-07-11T10:20:15Z</time>
      </trkpt>
      <trkpt lat="42.70486" lon="1.66466">
        <ele>1108</ele>
        <time>2015-07-11T10:20:28Z</time>
      </trkpt>
      <trkpt lat="42.70489" lon="1.66464">
        <ele>1107</ele>
        <time>2015-07-11T10:20:39Z</time>
      </trkpt>
      <trkpt lat="42.70501" lon="1.6647">
        <ele>1107</ele>
        <time>2015-07-11T10:20:52Z</time>
      </trkpt>
      <trkpt lat="42.70512" lon="1.66471">
        <ele>1106</ele>
        <time>2015-07-11T10:21:04Z</time>
      </trkpt>
      <trkpt lat="42.70521" lon="1.66471">
        <ele>1105</ele>
        <time>2015-07-11T10:21:12Z</time>
      </trkpt>
      <trkpt lat="42.70535" lon="1.66465">
        <ele>1103</ele>
        <time>2015-07-11T10:21:26Z</time>
      </trkpt>
      <trkpt lat="42.70545" lon="1.66457">
        <ele>1101</ele>
        <time>2015-07-11T10:21:40Z</time>
      </trkpt>
      <trkpt lat="42.70545" lon="1.66443">
        <ele>1099</ele>
        <time>2015-07-11T10:21:56Z</time>
      </trkpt>
      <trkpt lat="42.70546" lon="1.66429">
        <ele>1100</ele>
        <time>2015-07-11T10:22:05Z</time>
      </trkpt>
      <trkpt lat="42.70553" lon="1.66413">
        <ele>1099</ele>
        <time>2015-07-11T10:22:21Z</time>
      </trkpt>
      <trkpt lat="42.70551" lon="1.66398">
        <ele>1102</ele>
        <time>2015-07-11T10:22:37Z</time>
      </trkpt>
      <trkpt lat="42.70542" lon="1.66391">
        <ele>1103</ele>
        <time>2015-07-11T10:22:51Z</time>
      </trkpt>
      <trkpt lat="42.70536" lon="1.66383">
        <ele>1105</ele>
        <time>2015-07-11T10:23:05Z</time>
      </trkpt>
      <trkpt lat="42.70529" lon="1.66374">
        <ele>1106</ele>
        <time>2015-07-11T10:23:20Z</time>
      </trkpt>
      <trkpt lat="42.70522" lon="1.66365">
        <ele>1109</ele>
        <time>2015-07-11T10:23:37Z</time>
      </trkpt>
      <trkpt lat="42.70513" lon="1.66358">
        <ele>1110</ele>
        <time>2015-07-11T10:23:53Z</time>
      </trkpt>
      <trkpt lat="42.70514" lon="1.66343">
        <ele>1112</ele>
        <time>2015-07-11T10:24:10Z</time>
      </trkpt>
      <trkpt lat="42.70507" lon="1.66348">
        <ele>1114</ele>
        <time>2015-07-11T10:24:24Z</time>
      </trkpt>
      <trkpt lat="42.70499" lon="1.66353">
        <ele>1116</ele>
        <time>2015-07-11T10:24:39Z</time>
      </trkpt>
      <trkpt lat="42.70492" lon="1.66355">
        <ele>1118</ele>
        <time>2015-07-11T10:24:51Z</time>
      </trkpt>
      <trkpt lat="42.70488" lon="1.66356">
        <ele>1119</ele>
        <time>2015-07-11T10:25:04Z</time>
      </trkpt>
      <trkpt lat="42.70483" lon="1.66365">
        <ele>1122</ele>
        <time>2015-07-11T10:25:19Z</time>
      </trkpt>
      <trkpt lat="42.7048" lon="1.66357">
        <ele>1124</ele>
        <time>2015-07-11T10:25:32Z</time>
      </trkpt>
      <trkpt lat="42.7047" lon="1.66357">
        <ele>1125</ele>
        <time>2015-07-11T10:25:49Z</time>
      </trkpt>
      <trkpt lat="42.70471" lon="1.66348">
        <ele>1127</ele>
        <time>2015-07-11T10:26:06Z</time>
      </trkpt>
      <trkpt lat="42.70473" lon="1.66339">
        <ele>1129</ele>
        <time>2015-07-11T10:26:25Z</time>
      </trkpt>
      <trkpt lat="42.70467" lon="1.66342">
        <ele>1131</ele>
        <time>2015-07-11T10:26:41Z</time>
      </trkpt>
      <trkpt lat="42.70459" lon="1.66343">
        <ele>1134</ele>
        <time>2015-07-11T10:26:58Z</time>
      </trkpt>
      <trkpt lat="42.70452" lon="1.66344">
        <ele>1136</ele>
        <time>2015-07-11T10:27:15Z</time>
      </trkpt>
      <trkpt lat="42.70451" lon="1.66336">
        <ele>1136</ele>
        <time>2015-07-11T10:27:21Z</time>
      </trkpt>
      <trkpt lat="42.70454" lon="1.66326">
        <ele>1138</ele>
        <time>2015-07-11T10:27:35Z</time>
      </trkpt>
      <trkpt lat="42.70455" lon="1.6632">
        <ele>1140</ele>
        <time>2015-07-11T10:27:51Z</time>
      </trkpt>
      <trkpt lat="42.70451" lon="1.66319">
        <ele>1142</ele>
        <time>2015-07-11T10:28:05Z</time>
      </trkpt>
      <trkpt lat="42.70444" lon="1.6632">
        <ele>1144</ele>
        <time>2015-07-11T10:28:20Z</time>
      </trkpt>
      <trkpt lat="42.70439" lon="1.66319">
        <ele>1145</ele>
        <time>2015-07-11T10:28:33Z</time>
      </trkpt>
      <trkpt lat="42.70442" lon="1.66312">
        <ele>1146</ele>
        <time>2015-07-11T10:28:45Z</time>
      </trkpt>
      <trkpt lat="42.70447" lon="1.66306">
        <ele>1148</ele>
        <time>2015-07-11T10:28:59Z</time>
      </trkpt>
      <trkpt lat="42.70449" lon="1.663">
        <ele>1149</ele>
        <time>2015-07-11T10:29:12Z</time>
      </trkpt>
      <trkpt lat="42.7045" lon="1.663">
        <ele>1151</ele>
        <time>2015-07-11T10:29:26Z</time>
      </trkpt>
      <trkpt lat="42.70451" lon="1.66294">
        <ele>1152</ele>
        <time>2015-07-11T10:29:42Z</time>
      </trkpt>
      <trkpt lat="42.70454" lon="1.6629">
        <ele>1154</ele>
        <time>2015-07-11T10:29:56Z</time>
      </trkpt>
      <trkpt lat="42.70456" lon="1.66279">
        <ele>1156</ele>
        <time>2015-07-11T10:30:13Z</time>
      </trkpt>
      <trkpt lat="42.70459" lon="1.66271">
        <ele>1157</ele>
        <time>2015-07-11T10:30:28Z</time>
      </trkpt>
      <trkpt lat="42.70463" lon="1.66273">
        <ele>1158</ele>
        <time>2015-07-11T10:30:47Z</time>
      </trkpt>
      <trkpt lat="42.70457" lon="1.66271">
        <ele>1158</ele>
        <time>2015-07-11T10:31:15Z</time>
      </trkpt>
      <trkpt lat="42.70459" lon="1.66271">
        <ele>1158</ele>
        <time>2015-07-11T10:31:38Z</time>
      </trkpt>
      <trkpt lat="42.70455" lon="1.66276">
        <ele>1158</ele>
        <time>2015-07-11T10:32:07Z</time>
      </trkpt>
      <trkpt lat="42.70452" lon="1.66276">
        <ele>1159</ele>
        <time>2015-07-11T10:32:29Z</time>
      </trkpt>
      <trkpt lat="42.70452" lon="1.66278">
        <ele>1159</ele>
        <time>2015-07-11T10:33:02Z</time>
      </trkpt>
      <trkpt lat="42.70452" lon="1.66276">
        <ele>1159</ele>
        <time>2015-07-11T10:33:18Z</time>
      </trkpt>
      <trkpt lat="42.70454" lon="1.66274">
        <ele>1159</ele>
        <time>2015-07-11T10:33:39Z</time>
      </trkpt>
      <trkpt lat="42.70457" lon="1.66269">
        <ele>1160</ele>
        <time>2015-07-11T10:34:04Z</time>
      </trkpt>
      <trkpt lat="42.70457" lon="1.66253">
        <ele>1163</ele>
        <time>2015-07-11T10:34:19Z</time>
      </trkpt>
      <trkpt lat="42.70462" lon="1.66242">
        <ele>1165</ele>
        <time>2015-07-11T10:34:35Z</time>
      </trkpt>
      <trkpt lat="42.7046" lon="1.66245">
        <ele>1167</ele>
        <time>2015-07-11T10:34:49Z</time>
      </trkpt>
      <trkpt lat="42.70456" lon="1.66243">
        <ele>1170</ele>
        <time>2015-07-11T10:35:07Z</time>
      </trkpt>
      <trkpt lat="42.70447" lon="1.66242">
        <ele>1172</ele>
        <time>2015-07-11T10:35:23Z</time>
      </trkpt>
      <trkpt lat="42.70442" lon="1.66237">
        <ele>1174</ele>
        <time>2015-07-11T10:35:39Z</time>
      </trkpt>
      <trkpt lat="42.70444" lon="1.66226">
        <ele>1176</ele>
        <time>2015-07-11T10:35:55Z</time>
      </trkpt>
      <trkpt lat="42.70447" lon="1.66217">
        <ele>1178</ele>
        <time>2015-07-11T10:36:11Z</time>
      </trkpt>
      <trkpt lat="42.70447" lon="1.66216">
        <ele>1180</ele>
        <time>2015-07-11T10:36:26Z</time>
      </trkpt>
      <trkpt lat="42.70451" lon="1.66204">
        <ele>1183</ele>
        <time>2015-07-11T10:36:46Z</time>
      </trkpt>
      <trkpt lat="42.70451" lon="1.66198">
        <ele>1185</ele>
        <time>2015-07-11T10:37:02Z</time>
      </trkpt>
      <trkpt lat="42.70453" lon="1.6619">
        <ele>1187</ele>
        <time>2015-07-11T10:37:18Z</time>
      </trkpt>
      <trkpt lat="42.70447" lon="1.66199">
        <ele>1189</ele>
        <time>2015-07-11T10:37:34Z</time>
      </trkpt>
      <trkpt lat="42.70441" lon="1.66199">
        <ele>1190</ele>
        <time>2015-07-11T10:37:48Z</time>
      </trkpt>
      <trkpt lat="42.70441" lon="1.66191">
        <ele>1193</ele>
        <time>2015-07-11T10:38:03Z</time>
      </trkpt>
      <trkpt lat="42.70439" lon="1.66188">
        <ele>1194</ele>
        <time>2015-07-11T10:38:19Z</time>
      </trkpt>
      <trkpt lat="42.70433" lon="1.66186">
        <ele>1196</ele>
        <time>2015-07-11T10:38:36Z</time>
      </trkpt>
      <trkpt lat="42.70429" lon="1.66191">
        <ele>1198</ele>
        <time>2015-07-11T10:38:49Z</time>
      </trkpt>
      <trkpt lat="42.70418" lon="1.66197">
        <ele>1200</ele>
        <time>2015-07-11T10:39:03Z</time>
      </trkpt>
      <trkpt lat="42.70411" lon="1.66192">
        <ele>1201</ele>
        <time>2015-07-11T10:39:17Z</time>
      </trkpt>
      <trkpt lat="42.7041" lon="1.66198">
        <ele>1204</ele>
        <time>2015-07-11T10:39:33Z</time>
      </trkpt>
      <trkpt lat="42.70401" lon="1.66197">
        <ele>1205</ele>
        <time>2015-07-11T10:39:47Z</time>
      </trkpt>
      <trkpt lat="42.70396" lon="1.66202">
        <ele>1206</ele>
        <time>2015-07-11T10:40:00Z</time>
      </trkpt>
      <trkpt lat="42.70391" lon="1.66204">
        <ele>1208</ele>
        <time>2015-07-11T10:40:13Z</time>
      </trkpt>
      <trkpt lat="42.70382" lon="1.66209">
        <ele>1209</ele>
        <time>2015-07-11T10:40:26Z</time>
      </trkpt>
      <trkpt lat="42.70374" lon="1.66208">
        <ele>1210</ele>
        <time>2015-07-11T10:40:39Z</time>
      </trkpt>
      <trkpt lat="42.70365" lon="1.66206">
        <ele>1212</ele>
        <time>2015-07-11T10:40:54Z</time>
      </trkpt>
      <trkpt lat="42.70356" lon="1.66211">
        <ele>1214</ele>
        <time>2015-07-11T10:41:10Z</time>
      </trkpt>
      <trkpt lat="42.70345" lon="1.66211">
        <ele>1215</ele>
        <time>2015-07-11T10:41:24Z</time>
      </trkpt>
      <trkpt lat="42.70335" lon="1.66209">
        <ele>1214</ele>
        <time>2015-07-11T10:41:36Z</time>
      </trkpt>
      <trkpt lat="42.70326" lon="1.66201">
        <ele>1215</ele>
        <time>2015-07-11T10:41:48Z</time>
      </trkpt>
      <trkpt lat="42.70316" lon="1.66193">
        <ele>1216</ele>
        <time>2015-07-11T10:42:02Z</time>
      </trkpt>
      <trkpt lat="42.70304" lon="1.66184">
        <ele>1216</ele>
        <time>2015-07-11T10:42:18Z</time>
      </trkpt>
      <trkpt lat="42.70294" lon="1.66178">
        <ele>1217</ele>
        <time>2015-07-11T10:42:31Z</time>
      </trkpt>
      <trkpt lat="42.70282" lon="1.66169">
        <ele>1219</ele>
        <time>2015-07-11T10:42:45Z</time>
      </trkpt>
      <trkpt lat="42.70276" lon="1.66164">
        <ele>1220</ele>
        <time>2015-07-11T10:42:54Z</time>
      </trkpt>
      <trkpt lat="42.70266" lon="1.66156">
        <ele>1220</ele>
        <time>2015-07-11T10:43:08Z</time>
      </trkpt>
      <trkpt lat="42.7026" lon="1.66147">
        <ele>1222</ele>
        <time>2015-07-11T10:43:22Z</time>
      </trkpt>
      <trkpt lat="42.7025" lon="1.66147">
        <ele>1224</ele>
        <time>2015-07-11T10:43:35Z</time>
      </trkpt>
      <trkpt lat="42.70242" lon="1.66147">
        <ele>1225</ele>
        <time>2015-07-11T10:43:48Z</time>
      </trkpt>
      <trkpt lat="42.70233" lon="1.66143">
        <ele>1226</ele>
        <time>2015-07-11T10:44:02Z</time>
      </trkpt>
      <trkpt lat="42.70224" lon="1.66141">
        <ele>1228</ele>
        <time>2015-07-11T10:44:17Z</time>
      </trkpt>
      <trkpt lat="42.70214" lon="1.66139">
        <ele>1229</ele>
        <time>2015-07-11T10:44:30Z</time>
      </trkpt>
      <trkpt lat="42.70208" lon="1.66131">
        <ele>1232</ele>
        <time>2015-07-11T10:44:43Z</time>
      </trkpt>
      <trkpt lat="42.70201" lon="1.66125">
        <ele>1233</ele>
        <time>2015-07-11T10:44:55Z</time>
      </trkpt>
      <trkpt lat="42.70197" lon="1.66116">
        <ele>1235</ele>
        <time>2015-07-11T10:45:12Z</time>
      </trkpt>
      <trkpt lat="42.70193" lon="1.66112">
        <ele>1237</ele>
        <time>2015-07-11T10:45:25Z</time>
      </trkpt>
      <trkpt lat="42.70184" lon="1.66108">
        <ele>1239</ele>
        <time>2015-07-11T10:45:40Z</time>
      </trkpt>
      <trkpt lat="42.70177" lon="1.661">
        <ele>1241</ele>
        <time>2015-07-11T10:45:54Z</time>
      </trkpt>
      <trkpt lat="42.70173" lon="1.66091">
        <ele>1241</ele>
        <time>2015-07-11T10:46:08Z</time>
      </trkpt>
      <trkpt lat="42.70165" lon="1.66081">
        <ele>1242</ele>
        <time>2015-07-11T10:46:21Z</time>
      </trkpt>
      <trkpt lat="42.70162" lon="1.66064">
        <ele>1244</ele>
        <time>2015-07-11T10:46:35Z</time>
      </trkpt>
      <trkpt lat="42.70159" lon="1.66051">
        <ele>1245</ele>
        <time>2015-07-11T10:46:48Z</time>
      </trkpt>
      <trkpt lat="42.70157" lon="1.66039">
        <ele>1247</ele>
        <time>2015-07-11T10:47:03Z</time>
      </trkpt>
      <trkpt lat="42.70155" lon="1.6603">
        <ele>1251</ele>
        <time>2015-07-11T10:47:20Z</time>
      </trkpt>
      <trkpt lat="42.70148" lon="1.66021">
        <ele>1251</ele>
        <time>2015-07-11T10:47:35Z</time>
      </trkpt>
      <trkpt lat="42.70144" lon="1.66009">
        <ele>1252</ele>
        <time>2015-07-11T10:47:49Z</time>
      </trkpt>
      <trkpt lat="42.7014" lon="1.65998">
        <ele>1254</ele>
        <time>2015-07-11T10:48:03Z</time>
      </trkpt>
      <trkpt lat="42.70131" lon="1.65996">
        <ele>1254</ele>
        <time>2015-07-11T10:48:17Z</time>
      </trkpt>
      <trkpt lat="42.70128" lon="1.65993">
        <ele>1255</ele>
        <time>2015-07-11T10:48:29Z</time>
      </trkpt>
      <trkpt lat="42.70122" lon="1.65991">
        <ele>1256</ele>
        <time>2015-07-11T10:48:47Z</time>
      </trkpt>
      <trkpt lat="42.70119" lon="1.65988">
        <ele>1257</ele>
        <time>2015-07-11T10:48:58Z</time>
      </trkpt>
      <trkpt lat="42.70119" lon="1.65978">
        <ele>1258</ele>
        <time>2015-07-11T10:49:16Z</time>
      </trkpt>
      <trkpt lat="42.70117" lon="1.65971">
        <ele>1261</ele>
        <time>2015-07-11T10:49:31Z</time>
      </trkpt>
      <trkpt lat="42.70128" lon="1.65963">
        <ele>1263</ele>
        <time>2015-07-11T10:49:48Z</time>
      </trkpt>
      <trkpt lat="42.70132" lon="1.65959">
        <ele>1265</ele>
        <time>2015-07-11T10:50:02Z</time>
      </trkpt>
      <trkpt lat="42.70138" lon="1.65959">
        <ele>1268</ele>
        <time>2015-07-11T10:50:18Z</time>
      </trkpt>
      <trkpt lat="42.70147" lon="1.65962">
        <ele>1270</ele>
        <time>2015-07-11T10:50:33Z</time>
      </trkpt>
      <trkpt lat="42.70153" lon="1.65965">
        <ele>1272</ele>
        <time>2015-07-11T10:50:46Z</time>
      </trkpt>
      <trkpt lat="42.70161" lon="1.65968">
        <ele>1274</ele>
        <time>2015-07-11T10:51:01Z</time>
      </trkpt>
      <trkpt lat="42.70164" lon="1.65973">
        <ele>1275</ele>
        <time>2015-07-11T10:51:15Z</time>
      </trkpt>
      <trkpt lat="42.70169" lon="1.65965">
        <ele>1278</ele>
        <time>2015-07-11T10:51:29Z</time>
      </trkpt>
      <trkpt lat="42.70168" lon="1.65959">
        <ele>1280</ele>
        <time>2015-07-11T10:51:43Z</time>
      </trkpt>
      <trkpt lat="42.70164" lon="1.65953">
        <ele>1282</ele>
        <time>2015-07-11T10:51:57Z</time>
      </trkpt>
      <trkpt lat="42.70159" lon="1.65941">
        <ele>1284</ele>
        <time>2015-07-11T10:52:14Z</time>
      </trkpt>
      <trkpt lat="42.70155" lon="1.65932">
        <ele>1285</ele>
        <time>2015-07-11T10:52:30Z</time>
      </trkpt>
      <trkpt lat="42.70156" lon="1.65922">
        <ele>1288</ele>
        <time>2015-07-11T10:52:45Z</time>
      </trkpt>
      <trkpt lat="42.70153" lon="1.65912">
        <ele>1290</ele>
        <time>2015-07-11T10:53:01Z</time>
      </trkpt>
      <trkpt lat="42.7015" lon="1.65901">
        <ele>1292</ele>
        <time>2015-07-11T10:53:16Z</time>
      </trkpt>
      <trkpt lat="42.70152" lon="1.6589">
        <ele>1295</ele>
        <time>2015-07-11T10:53:34Z</time>
      </trkpt>
      <trkpt lat="42.70147" lon="1.65884">
        <ele>1296</ele>
        <time>2015-07-11T10:53:47Z</time>
      </trkpt>
      <trkpt lat="42.70146" lon="1.65878">
        <ele>1298</ele>
        <time>2015-07-11T10:54:03Z</time>
      </trkpt>
      <trkpt lat="42.70141" lon="1.65871">
        <ele>1300</ele>
        <time>2015-07-11T10:54:18Z</time>
      </trkpt>
      <trkpt lat="42.70139" lon="1.65865">
        <ele>1301</ele>
        <time>2015-07-11T10:54:26Z</time>
      </trkpt>
      <trkpt lat="42.70147" lon="1.65864">
        <ele>1302</ele>
        <time>2015-07-11T10:54:40Z</time>
      </trkpt>
      <trkpt lat="42.70157" lon="1.65868">
        <ele>1304</ele>
        <time>2015-07-11T10:54:53Z</time>
      </trkpt>
      <trkpt lat="42.70158" lon="1.65868">
        <ele>1307</ele>
        <time>2015-07-11T10:55:08Z</time>
      </trkpt>
      <trkpt lat="42.70153" lon="1.6586">
        <ele>1309</ele>
        <time>2015-07-11T10:55:25Z</time>
      </trkpt>
      <trkpt lat="42.70152" lon="1.65849">
        <ele>1311</ele>
        <time>2015-07-11T10:55:40Z</time>
      </trkpt>
      <trkpt lat="42.70151" lon="1.65837">
        <ele>1313</ele>
        <time>2015-07-11T10:55:53Z</time>
      </trkpt>
      <trkpt lat="42.70148" lon="1.65826">
        <ele>1315</ele>
        <time>2015-07-11T10:56:08Z</time>
      </trkpt>
      <trkpt lat="42.70144" lon="1.65823">
        <ele>1317</ele>
        <time>2015-07-11T10:56:21Z</time>
      </trkpt>
      <trkpt lat="42.70152" lon="1.65827">
        <ele>1318</ele>
        <time>2015-07-11T10:56:35Z</time>
      </trkpt>
      <trkpt lat="42.70151" lon="1.65819">
        <ele>1319</ele>
        <time>2015-07-11T10:56:48Z</time>
      </trkpt>
      <trkpt lat="42.7015" lon="1.65817">
        <ele>1320</ele>
        <time>2015-07-11T10:57:03Z</time>
      </trkpt>
      <trkpt lat="42.70148" lon="1.65807">
        <ele>1322</ele>
        <time>2015-07-11T10:57:17Z</time>
      </trkpt>
      <trkpt lat="42.70147" lon="1.65802">
        <ele>1324</ele>
        <time>2015-07-11T10:57:32Z</time>
      </trkpt>
      <trkpt lat="42.7015" lon="1.65794">
        <ele>1325</ele>
        <time>2015-07-11T10:57:47Z</time>
      </trkpt>
      <trkpt lat="42.70145" lon="1.65784">
        <ele>1327</ele>
        <time>2015-07-11T10:58:01Z</time>
      </trkpt>
      <trkpt lat="42.70144" lon="1.6578">
        <ele>1329</ele>
        <time>2015-07-11T10:58:07Z</time>
      </trkpt>
      <trkpt lat="42.7014" lon="1.65772">
        <ele>1330</ele>
        <time>2015-07-11T10:58:24Z</time>
      </trkpt>
      <trkpt lat="42.70134" lon="1.65761">
        <ele>1331</ele>
        <time>2015-07-11T10:58:38Z</time>
      </trkpt>
      <trkpt lat="42.70126" lon="1.6575">
        <ele>1331</ele>
        <time>2015-07-11T10:58:53Z</time>
      </trkpt>
      <trkpt lat="42.70119" lon="1.65744">
        <ele>1332</ele>
        <time>2015-07-11T10:59:07Z</time>
      </trkpt>
      <trkpt lat="42.70115" lon="1.65743">
        <ele>1334</ele>
        <time>2015-07-11T10:59:23Z</time>
      </trkpt>
      <trkpt lat="42.70109" lon="1.6574">
        <ele>1336</ele>
        <time>2015-07-11T10:59:35Z</time>
      </trkpt>
      <trkpt lat="42.70103" lon="1.65729">
        <ele>1338</ele>
        <time>2015-07-11T10:59:51Z</time>
      </trkpt>
      <trkpt lat="42.701" lon="1.65723">
        <ele>1340</ele>
        <time>2015-07-11T11:00:07Z</time>
      </trkpt>
      <trkpt lat="42.70099" lon="1.6571">
        <ele>1343</ele>
        <time>2015-07-11T11:00:22Z</time>
      </trkpt>
      <trkpt lat="42.70092" lon="1.65706">
        <ele>1344</ele>
        <time>2015-07-11T11:00:35Z</time>
      </trkpt>
      <trkpt lat="42.70084" lon="1.657">
        <ele>1345</ele>
        <time>2015-07-11T11:00:50Z</time>
      </trkpt>
      <trkpt lat="42.70079" lon="1.6569">
        <ele>1346</ele>
        <time>2015-07-11T11:01:04Z</time>
      </trkpt>
      <trkpt lat="42.70077" lon="1.65673">
        <ele>1348</ele>
        <time>2015-07-11T11:01:18Z</time>
      </trkpt>
      <trkpt lat="42.7007" lon="1.65668">
        <ele>1350</ele>
        <time>2015-07-11T11:01:33Z</time>
      </trkpt>
      <trkpt lat="42.70063" lon="1.65663">
        <ele>1352</ele>
        <time>2015-07-11T11:01:46Z</time>
      </trkpt>
      <trkpt lat="42.70055" lon="1.65661">
        <ele>1354</ele>
        <time>2015-07-11T11:02:01Z</time>
      </trkpt>
      <trkpt lat="42.70049" lon="1.65655">
        <ele>1355</ele>
        <time>2015-07-11T11:02:16Z</time>
      </trkpt>
      <trkpt lat="42.70042" lon="1.65648">
        <ele>1356</ele>
        <time>2015-07-11T11:02:30Z</time>
      </trkpt>
      <trkpt lat="42.70036" lon="1.65647">
        <ele>1357</ele>
        <time>2015-07-11T11:02:41Z</time>
      </trkpt>
      <trkpt lat="42.7003" lon="1.65643">
        <ele>1358</ele>
        <time>2015-07-11T11:02:53Z</time>
      </trkpt>
      <trkpt lat="42.70017" lon="1.65643">
        <ele>1359</ele>
        <time>2015-07-11T11:03:06Z</time>
      </trkpt>
      <trkpt lat="42.70011" lon="1.65644">
        <ele>1360</ele>
        <time>2015-07-11T11:03:18Z</time>
      </trkpt>
      <trkpt lat="42.70004" lon="1.65646">
        <ele>1360</ele>
        <time>2015-07-11T11:03:29Z</time>
      </trkpt>
      <trkpt lat="42.7" lon="1.65642">
        <ele>1362</ele>
        <time>2015-07-11T11:03:43Z</time>
      </trkpt>
      <trkpt lat="42.69989" lon="1.65642">
        <ele>1364</ele>
        <time>2015-07-11T11:03:59Z</time>
      </trkpt>
      <trkpt lat="42.69979" lon="1.65635">
        <ele>1366</ele>
        <time>2015-07-11T11:04:15Z</time>
      </trkpt>
      <trkpt lat="42.6997" lon="1.65621">
        <ele>1369</ele>
        <time>2015-07-11T11:04:33Z</time>
      </trkpt>
      <trkpt lat="42.69967" lon="1.65621">
        <ele>1371</ele>
        <time>2015-07-11T11:04:46Z</time>
      </trkpt>
      <trkpt lat="42.69961" lon="1.65622">
        <ele>1372</ele>
        <time>2015-07-11T11:04:58Z</time>
      </trkpt>
      <trkpt lat="42.69949" lon="1.65615">
        <ele>1373</ele>
        <time>2015-07-11T11:05:13Z</time>
      </trkpt>
      <trkpt lat="42.69942" lon="1.6561">
        <ele>1375</ele>
        <time>2015-07-11T11:05:28Z</time>
      </trkpt>
      <trkpt lat="42.69935" lon="1.65598">
        <ele>1377</ele>
        <time>2015-07-11T11:05:43Z</time>
      </trkpt>
      <trkpt lat="42.69929" lon="1.65593">
        <ele>1378</ele>
        <time>2015-07-11T11:05:55Z</time>
      </trkpt>
      <trkpt lat="42.69925" lon="1.65584">
        <ele>1380</ele>
        <time>2015-07-11T11:06:10Z</time>
      </trkpt>
      <trkpt lat="42.69921" lon="1.65575">
        <ele>1382</ele>
        <time>2015-07-11T11:06:25Z</time>
      </trkpt>
      <trkpt lat="42.69912" lon="1.6557">
        <ele>1381</ele>
        <time>2015-07-11T11:06:37Z</time>
      </trkpt>
      <trkpt lat="42.69902" lon="1.65569">
        <ele>1382</ele>
        <time>2015-07-11T11:06:55Z</time>
      </trkpt>
      <trkpt lat="42.699" lon="1.65567">
        <ele>1382</ele>
        <time>2015-07-11T11:07:12Z</time>
      </trkpt>
      <trkpt lat="42.69894" lon="1.65558">
        <ele>1381</ele>
        <time>2015-07-11T11:07:24Z</time>
      </trkpt>
      <trkpt lat="42.69891" lon="1.65551">
        <ele>1379</ele>
        <time>2015-07-11T11:07:36Z</time>
      </trkpt>
      <trkpt lat="42.69886" lon="1.65544">
        <ele>1377</ele>
        <time>2015-07-11T11:07:47Z</time>
      </trkpt>
      <trkpt lat="42.69875" lon="1.65543">
        <ele>1374</ele>
        <time>2015-07-11T11:08:04Z</time>
      </trkpt>
      <trkpt lat="42.69875" lon="1.65544">
        <ele>1373</ele>
        <time>2015-07-11T11:08:05Z</time>
      </trkpt>
      <trkpt lat="42.69871" lon="1.65555">
        <ele>1371</ele>
        <time>2015-07-11T11:08:18Z</time>
      </trkpt>
      <trkpt lat="42.69868" lon="1.65557">
        <ele>1370</ele>
        <time>2015-07-11T11:08:26Z</time>
      </trkpt>
      <trkpt lat="42.69866" lon="1.6554">
        <ele>1368</ele>
        <time>2015-07-11T11:08:39Z</time>
      </trkpt>
      <trkpt lat="42.69867" lon="1.6553">
        <ele>1365</ele>
        <time>2015-07-11T11:08:52Z</time>
      </trkpt>
      <trkpt lat="42.69862" lon="1.65522">
        <ele>1363</ele>
        <time>2015-07-11T11:09:05Z</time>
      </trkpt>
      <trkpt lat="42.69854" lon="1.65518">
        <ele>1360</ele>
        <time>2015-07-11T11:09:17Z</time>
      </trkpt>
      <trkpt lat="42.69845" lon="1.65511">
        <ele>1359</ele>
        <time>2015-07-11T11:09:33Z</time>
      </trkpt>
      <trkpt lat="42.69836" lon="1.65508">
        <ele>1356</ele>
        <time>2015-07-11T11:09:47Z</time>
      </trkpt>
      <trkpt lat="42.69833" lon="1.65505">
        <ele>1355</ele>
        <time>2015-07-11T11:09:59Z</time>
      </trkpt>
      <trkpt lat="42.69819" lon="1.65504">
        <ele>1352</ele>
        <time>2015-07-11T11:10:13Z</time>
      </trkpt>
      <trkpt lat="42.69806" lon="1.65505">
        <ele>1349</ele>
        <time>2015-07-11T11:10:27Z</time>
      </trkpt>
      <trkpt lat="42.698" lon="1.65503">
        <ele>1348</ele>
        <time>2015-07-11T11:10:41Z</time>
      </trkpt>
      <trkpt lat="42.69793" lon="1.65503">
        <ele>1347</ele>
        <time>2015-07-11T11:10:54Z</time>
      </trkpt>
      <trkpt lat="42.698" lon="1.65497">
        <ele>1348</ele>
        <time>2015-07-11T11:11:16Z</time>
      </trkpt>
      <trkpt lat="42.69801" lon="1.65492">
        <ele>1349</ele>
        <time>2015-07-11T11:11:44Z</time>
      </trkpt>
      <trkpt lat="42.698" lon="1.65487">
        <ele>1349</ele>
        <time>2015-07-11T11:12:10Z</time>
      </trkpt>
      <trkpt lat="42.69796" lon="1.65491">
        <ele>1349</ele>
        <time>2015-07-11T11:12:14Z</time>
      </trkpt>
      <trkpt lat="42.6979" lon="1.65498">
        <ele>1348</ele>
        <time>2015-07-11T11:12:21Z</time>
      </trkpt>
      <trkpt lat="42.69777" lon="1.65505">
        <ele>1347</ele>
        <time>2015-07-11T11:12:34Z</time>
      </trkpt>
      <trkpt lat="42.6977" lon="1.65504">
        <ele>1345</ele>
        <time>2015-07-11T11:12:47Z</time>
      </trkpt>
      <trkpt lat="42.69765" lon="1.65504">
        <ele>1343</ele>
        <time>2015-07-11T11:12:55Z</time>
      </trkpt>
      <trkpt lat="42.69754" lon="1.65506">
        <ele>1341</ele>
        <time>2015-07-11T11:13:08Z</time>
      </trkpt>
      <trkpt lat="42.6975" lon="1.65508">
        <ele>1341</ele>
        <time>2015-07-11T11:13:12Z</time>
      </trkpt>
      <trkpt lat="42.69743" lon="1.65511">
        <ele>1342</ele>
        <time>2015-07-11T11:13:21Z</time>
      </trkpt>
      <trkpt lat="42.69742" lon="1.65513">
        <ele>1342</ele>
        <time>2015-07-11T11:13:23Z</time>
      </trkpt>
      <trkpt lat="42.69741" lon="1.65517">
        <ele>1342</ele>
        <time>2015-07-11T11:13:25Z</time>
      </trkpt>
      <trkpt lat="42.69746" lon="1.65517">
        <ele>1343</ele>
        <time>2015-07-11T11:13:35Z</time>
      </trkpt>
      <trkpt lat="42.6975" lon="1.65523">
        <ele>1345</ele>
        <time>2015-07-11T11:13:49Z</time>
      </trkpt>
      <trkpt lat="42.69749" lon="1.65519">
        <ele>1346</ele>
        <time>2015-07-11T11:13:57Z</time>
      </trkpt>
      <trkpt lat="42.69739" lon="1.65518">
        <ele>1349</ele>
        <time>2015-07-11T11:14:10Z</time>
      </trkpt>
      <trkpt lat="42.69731" lon="1.65515">
        <ele>1351</ele>
        <time>2015-07-11T11:14:23Z</time>
      </trkpt>
      <trkpt lat="42.6973" lon="1.65514">
        <ele>1351</ele>
        <time>2015-07-11T11:14:26Z</time>
      </trkpt>
      <trkpt lat="42.69723" lon="1.65511">
        <ele>1352</ele>
        <time>2015-07-11T11:14:35Z</time>
      </trkpt>
      <trkpt lat="42.69712" lon="1.65507">
        <ele>1354</ele>
        <time>2015-07-11T11:14:48Z</time>
      </trkpt>
      <trkpt lat="42.69704" lon="1.65504">
        <ele>1355</ele>
        <time>2015-07-11T11:15:00Z</time>
      </trkpt>
      <trkpt lat="42.69701" lon="1.65502">
        <ele>1356</ele>
        <time>2015-07-11T11:15:03Z</time>
      </trkpt>
      <trkpt lat="42.6969" lon="1.65498">
        <ele>1358</ele>
        <time>2015-07-11T11:15:19Z</time>
      </trkpt>
      <trkpt lat="42.69684" lon="1.65492">
        <ele>1359</ele>
        <time>2015-07-11T11:15:29Z</time>
      </trkpt>
      <trkpt lat="42.69674" lon="1.65486">
        <ele>1360</ele>
        <time>2015-07-11T11:15:44Z</time>
      </trkpt>
      <trkpt lat="42.69669" lon="1.65485">
        <ele>1361</ele>
        <time>2015-07-11T11:15:50Z</time>
      </trkpt>
      <trkpt lat="42.69663" lon="1.65474">
        <ele>1361</ele>
        <time>2015-07-11T11:16:02Z</time>
      </trkpt>
      <trkpt lat="42.69656" lon="1.65471">
        <ele>1362</ele>
        <time>2015-07-11T11:16:08Z</time>
      </trkpt>
      <trkpt lat="42.69654" lon="1.6547">
        <ele>1362</ele>
        <time>2015-07-11T11:16:09Z</time>
      </trkpt>
      <trkpt lat="42.69647" lon="1.65467">
        <ele>1362</ele>
        <time>2015-07-11T11:16:15Z</time>
      </trkpt>
      <trkpt lat="42.69642" lon="1.65466">
        <ele>1362</ele>
        <time>2015-07-11T11:16:20Z</time>
      </trkpt>
      <trkpt lat="42.69627" lon="1.65462">
        <ele>1364</ele>
        <time>2015-07-11T11:16:34Z</time>
      </trkpt>
      <trkpt lat="42.69616" lon="1.65454">
        <ele>1365</ele>
        <time>2015-07-11T11:16:47Z</time>
      </trkpt>
      <trkpt lat="42.69608" lon="1.65443">
        <ele>1365</ele>
        <time>2015-07-11T11:16:58Z</time>
      </trkpt>
      <trkpt lat="42.69606" lon="1.65443">
        <ele>1365</ele>
        <time>2015-07-11T11:17:00Z</time>
      </trkpt>
      <trkpt lat="42.69597" lon="1.65438">
        <ele>1368</ele>
        <time>2015-07-11T11:17:17Z</time>
      </trkpt>
      <trkpt lat="42.69587" lon="1.65434">
        <ele>1370</ele>
        <time>2015-07-11T11:17:31Z</time>
      </trkpt>
      <trkpt lat="42.69579" lon="1.65429">
        <ele>1370</ele>
        <time>2015-07-11T11:17:44Z</time>
      </trkpt>
      <trkpt lat="42.69572" lon="1.65419">
        <ele>1371</ele>
        <time>2015-07-11T11:17:56Z</time>
      </trkpt>
      <trkpt lat="42.69565" lon="1.65408">
        <ele>1373</ele>
        <time>2015-07-11T11:18:13Z</time>
      </trkpt>
      <trkpt lat="42.69565" lon="1.65405">
        <ele>1373</ele>
        <time>2015-07-11T11:18:15Z</time>
      </trkpt>
      <trkpt lat="42.69563" lon="1.65391">
        <ele>1373</ele>
        <time>2015-07-11T11:18:27Z</time>
      </trkpt>
      <trkpt lat="42.69555" lon="1.65386">
        <ele>1374</ele>
        <time>2015-07-11T11:18:39Z</time>
      </trkpt>
      <trkpt lat="42.69548" lon="1.65382">
        <ele>1374</ele>
        <time>2015-07-11T11:18:47Z</time>
      </trkpt>
      <trkpt lat="42.6954" lon="1.6538">
        <ele>1375</ele>
        <time>2015-07-11T11:19:01Z</time>
      </trkpt>
      <trkpt lat="42.69533" lon="1.65377">
        <ele>1376</ele>
        <time>2015-07-11T11:19:13Z</time>
      </trkpt>
      <trkpt lat="42.69526" lon="1.6537">
        <ele>1377</ele>
        <time>2015-07-11T11:19:24Z</time>
      </trkpt>
      <trkpt lat="42.69521" lon="1.65359">
        <ele>1379</ele>
        <time>2015-07-11T11:19:39Z</time>
      </trkpt>
      <trkpt lat="42.69515" lon="1.65348">
        <ele>1379</ele>
        <time>2015-07-11T11:19:52Z</time>
      </trkpt>
      <trkpt lat="42.69511" lon="1.65343">
        <ele>1379</ele>
        <time>2015-07-11T11:20:00Z</time>
      </trkpt>
      <trkpt lat="42.69499" lon="1.65338">
        <ele>1380</ele>
        <time>2015-07-11T11:20:16Z</time>
      </trkpt>
      <trkpt lat="42.6949" lon="1.65328">
        <ele>1381</ele>
        <time>2015-07-11T11:20:31Z</time>
      </trkpt>
      <trkpt lat="42.69482" lon="1.65322">
        <ele>1382</ele>
        <time>2015-07-11T11:20:45Z</time>
      </trkpt>
      <trkpt lat="42.69479" lon="1.6532">
        <ele>1383</ele>
        <time>2015-07-11T11:20:51Z</time>
      </trkpt>
      <trkpt lat="42.69473" lon="1.65317">
        <ele>1384</ele>
        <time>2015-07-11T11:21:05Z</time>
      </trkpt>
      <trkpt lat="42.69469" lon="1.6531">
        <ele>1386</ele>
        <time>2015-07-11T11:21:21Z</time>
      </trkpt>
      <trkpt lat="42.69464" lon="1.65304">
        <ele>1388</ele>
        <time>2015-07-11T11:21:35Z</time>
      </trkpt>
      <trkpt lat="42.69453" lon="1.65297">
        <ele>1388</ele>
        <time>2015-07-11T11:21:49Z</time>
      </trkpt>
      <trkpt lat="42.69444" lon="1.65295">
        <ele>1389</ele>
        <time>2015-07-11T11:22:04Z</time>
      </trkpt>
      <trkpt lat="42.69438" lon="1.65289">
        <ele>1390</ele>
        <time>2015-07-11T11:22:17Z</time>
      </trkpt>
      <trkpt lat="42.69432" lon="1.65283">
        <ele>1391</ele>
        <time>2015-07-11T11:22:29Z</time>
      </trkpt>
      <trkpt lat="42.69429" lon="1.65277">
        <ele>1391</ele>
        <time>2015-07-11T11:22:35Z</time>
      </trkpt>
      <trkpt lat="42.69427" lon="1.6527">
        <ele>1390</ele>
        <time>2015-07-11T11:22:44Z</time>
      </trkpt>
      <trkpt lat="42.69424" lon="1.6527">
        <ele>1390</ele>
        <time>2015-07-11T11:22:47Z</time>
      </trkpt>
      <trkpt lat="42.69416" lon="1.65265">
        <ele>1389</ele>
        <time>2015-07-11T11:22:59Z</time>
      </trkpt>
      <trkpt lat="42.69409" lon="1.65255">
        <ele>1390</ele>
        <time>2015-07-11T11:23:12Z</time>
      </trkpt>
      <trkpt lat="42.69403" lon="1.65247">
        <ele>1391</ele>
        <time>2015-07-11T11:23:26Z</time>
      </trkpt>
      <trkpt lat="42.69398" lon="1.65243">
        <ele>1393</ele>
        <time>2015-07-11T11:23:43Z</time>
      </trkpt>
      <trkpt lat="42.69392" lon="1.65238">
        <ele>1396</ele>
        <time>2015-07-11T11:23:58Z</time>
      </trkpt>
      <trkpt lat="42.6939" lon="1.65236">
        <ele>1396</ele>
        <time>2015-07-11T11:24:01Z</time>
      </trkpt>
      <trkpt lat="42.69387" lon="1.65236">
        <ele>1397</ele>
        <time>2015-07-11T11:24:05Z</time>
      </trkpt>
      <trkpt lat="42.69382" lon="1.65232">
        <ele>1398</ele>
        <time>2015-07-11T11:24:17Z</time>
      </trkpt>
      <trkpt lat="42.69374" lon="1.65229">
        <ele>1400</ele>
        <time>2015-07-11T11:24:33Z</time>
      </trkpt>
      <trkpt lat="42.69368" lon="1.65223">
        <ele>1402</ele>
        <time>2015-07-11T11:24:50Z</time>
      </trkpt>
      <trkpt lat="42.69362" lon="1.65218">
        <ele>1404</ele>
        <time>2015-07-11T11:25:04Z</time>
      </trkpt>
      <trkpt lat="42.69362" lon="1.65219">
        <ele>1405</ele>
        <time>2015-07-11T11:25:06Z</time>
      </trkpt>
      <trkpt lat="42.69361" lon="1.65219">
        <ele>1405</ele>
        <time>2015-07-11T11:25:10Z</time>
      </trkpt>
      <trkpt lat="42.69358" lon="1.65217">
        <ele>1407</ele>
        <time>2015-07-11T11:25:25Z</time>
      </trkpt>
      <trkpt lat="42.69355" lon="1.65207">
        <ele>1410</ele>
        <time>2015-07-11T11:25:42Z</time>
      </trkpt>
      <trkpt lat="42.69352" lon="1.65199">
        <ele>1411</ele>
        <time>2015-07-11T11:25:54Z</time>
      </trkpt>
      <trkpt lat="42.69347" lon="1.65192">
        <ele>1413</ele>
        <time>2015-07-11T11:26:09Z</time>
      </trkpt>
      <trkpt lat="42.6934" lon="1.65191">
        <ele>1415</ele>
        <time>2015-07-11T11:26:22Z</time>
      </trkpt>
      <trkpt lat="42.69334" lon="1.65187">
        <ele>1416</ele>
        <time>2015-07-11T11:26:34Z</time>
      </trkpt>
      <trkpt lat="42.69329" lon="1.65182">
        <ele>1415</ele>
        <time>2015-07-11T11:26:47Z</time>
      </trkpt>
      <trkpt lat="42.69325" lon="1.65179">
        <ele>1416</ele>
        <time>2015-07-11T11:26:56Z</time>
      </trkpt>
      <trkpt lat="42.69312" lon="1.65179">
        <ele>1417</ele>
        <time>2015-07-11T11:27:14Z</time>
      </trkpt>
      <trkpt lat="42.69304" lon="1.65174">
        <ele>1419</ele>
        <time>2015-07-11T11:27:29Z</time>
      </trkpt>
      <trkpt lat="42.693" lon="1.65164">
        <ele>1421</ele>
        <time>2015-07-11T11:27:43Z</time>
      </trkpt>
      <trkpt lat="42.6929" lon="1.65161">
        <ele>1421</ele>
        <time>2015-07-11T11:27:56Z</time>
      </trkpt>
      <trkpt lat="42.69288" lon="1.65155">
        <ele>1423</ele>
        <time>2015-07-11T11:28:08Z</time>
      </trkpt>
      <trkpt lat="42.69285" lon="1.65148">
        <ele>1424</ele>
        <time>2015-07-11T11:28:21Z</time>
      </trkpt>
      <trkpt lat="42.69285" lon="1.65146">
        <ele>1424</ele>
        <time>2015-07-11T11:28:32Z</time>
      </trkpt>
      <trkpt lat="42.69279" lon="1.65141">
        <ele>1426</ele>
        <time>2015-07-11T11:28:45Z</time>
      </trkpt>
      <trkpt lat="42.69274" lon="1.65138">
        <ele>1426</ele>
        <time>2015-07-11T11:28:57Z</time>
      </trkpt>
      <trkpt lat="42.69271" lon="1.65144">
        <ele>1425</ele>
        <time>2015-07-11T11:29:12Z</time>
      </trkpt>
      <trkpt lat="42.69265" lon="1.6514">
        <ele>1426</ele>
        <time>2015-07-11T11:29:23Z</time>
      </trkpt>
      <trkpt lat="42.6926" lon="1.65138">
        <ele>1428</ele>
        <time>2015-07-11T11:29:35Z</time>
      </trkpt>
      <trkpt lat="42.69256" lon="1.65131">
        <ele>1430</ele>
        <time>2015-07-11T11:29:47Z</time>
      </trkpt>
      <trkpt lat="42.69252" lon="1.65126">
        <ele>1431</ele>
        <time>2015-07-11T11:29:59Z</time>
      </trkpt>
      <trkpt lat="42.69251" lon="1.65126">
        <ele>1430</ele>
        <time>2015-07-11T11:30:01Z</time>
      </trkpt>
      <trkpt lat="42.69244" lon="1.6512">
        <ele>1430</ele>
        <time>2015-07-11T11:30:12Z</time>
      </trkpt>
      <trkpt lat="42.69237" lon="1.65114">
        <ele>1431</ele>
        <time>2015-07-11T11:30:25Z</time>
      </trkpt>
      <trkpt lat="42.69227" lon="1.65112">
        <ele>1433</ele>
        <time>2015-07-11T11:30:39Z</time>
      </trkpt>
      <trkpt lat="42.69225" lon="1.6511">
        <ele>1433</ele>
        <time>2015-07-11T11:30:42Z</time>
      </trkpt>
      <trkpt lat="42.69222" lon="1.65107">
        <ele>1433</ele>
        <time>2015-07-11T11:30:47Z</time>
      </trkpt>
      <trkpt lat="42.69218" lon="1.65106">
        <ele>1433</ele>
        <time>2015-07-11T11:30:53Z</time>
      </trkpt>
      <trkpt lat="42.69207" lon="1.65102">
        <ele>1434</ele>
        <time>2015-07-11T11:31:07Z</time>
      </trkpt>
      <trkpt lat="42.69202" lon="1.65097">
        <ele>1435</ele>
        <time>2015-07-11T11:31:16Z</time>
      </trkpt>
      <trkpt lat="42.69197" lon="1.65092">
        <ele>1436</ele>
        <time>2015-07-11T11:31:31Z</time>
      </trkpt>
      <trkpt lat="42.69191" lon="1.65081">
        <ele>1436</ele>
        <time>2015-07-11T11:31:44Z</time>
      </trkpt>
      <trkpt lat="42.69188" lon="1.6508">
        <ele>1436</ele>
        <time>2015-07-11T11:31:47Z</time>
      </trkpt>
      <trkpt lat="42.69179" lon="1.65072">
        <ele>1438</ele>
        <time>2015-07-11T11:31:59Z</time>
      </trkpt>
      <trkpt lat="42.69172" lon="1.65073">
        <ele>1440</ele>
        <time>2015-07-11T11:32:11Z</time>
      </trkpt>
      <trkpt lat="42.69165" lon="1.65072">
        <ele>1441</ele>
        <time>2015-07-11T11:32:21Z</time>
      </trkpt>
      <trkpt lat="42.69164" lon="1.65074">
        <ele>1442</ele>
        <time>2015-07-11T11:32:34Z</time>
      </trkpt>
      <trkpt lat="42.69158" lon="1.65072">
        <ele>1444</ele>
        <time>2015-07-11T11:32:45Z</time>
      </trkpt>
      <trkpt lat="42.69152" lon="1.65063">
        <ele>1445</ele>
        <time>2015-07-11T11:33:00Z</time>
      </trkpt>
      <trkpt lat="42.6915" lon="1.65064">
        <ele>1445</ele>
        <time>2015-07-11T11:33:03Z</time>
      </trkpt>
      <trkpt lat="42.69148" lon="1.65065">
        <ele>1445</ele>
        <time>2015-07-11T11:33:06Z</time>
      </trkpt>
      <trkpt lat="42.69138" lon="1.65064">
        <ele>1448</ele>
        <time>2015-07-11T11:33:22Z</time>
      </trkpt>
      <trkpt lat="42.69132" lon="1.65059">
        <ele>1448</ele>
        <time>2015-07-11T11:33:30Z</time>
      </trkpt>
      <trkpt lat="42.69129" lon="1.65056">
        <ele>1448</ele>
        <time>2015-07-11T11:33:34Z</time>
      </trkpt>
      <trkpt lat="42.69127" lon="1.65054">
        <ele>1447</ele>
        <time>2015-07-11T11:33:37Z</time>
      </trkpt>
      <trkpt lat="42.6912" lon="1.6505">
        <ele>1447</ele>
        <time>2015-07-11T11:33:50Z</time>
      </trkpt>
      <trkpt lat="42.69118" lon="1.6505">
        <ele>1448</ele>
        <time>2015-07-11T11:34:01Z</time>
      </trkpt>
      <trkpt lat="42.69113" lon="1.65048">
        <ele>1449</ele>
        <time>2015-07-11T11:34:13Z</time>
      </trkpt>
      <trkpt lat="42.69112" lon="1.6504">
        <ele>1448</ele>
        <time>2015-07-11T11:34:30Z</time>
      </trkpt>
      <trkpt lat="42.69109" lon="1.65039">
        <ele>1448</ele>
        <time>2015-07-11T11:34:36Z</time>
      </trkpt>
      <trkpt lat="42.69099" lon="1.65042">
        <ele>1450</ele>
        <time>2015-07-11T11:34:49Z</time>
      </trkpt>
      <trkpt lat="42.69094" lon="1.65036">
        <ele>1452</ele>
        <time>2015-07-11T11:35:03Z</time>
      </trkpt>
      <trkpt lat="42.69087" lon="1.65039">
        <ele>1454</ele>
        <time>2015-07-11T11:35:15Z</time>
      </trkpt>
      <trkpt lat="42.69085" lon="1.6504">
        <ele>1456</ele>
        <time>2015-07-11T11:35:30Z</time>
      </trkpt>
      <trkpt lat="42.69077" lon="1.65043">
        <ele>1457</ele>
        <time>2015-07-11T11:35:44Z</time>
      </trkpt>
      <trkpt lat="42.6907" lon="1.65041">
        <ele>1459</ele>
        <time>2015-07-11T11:35:59Z</time>
      </trkpt>
      <trkpt lat="42.69069" lon="1.65045">
        <ele>1460</ele>
        <time>2015-07-11T11:36:11Z</time>
      </trkpt>
      <trkpt lat="42.69061" lon="1.65049">
        <ele>1461</ele>
        <time>2015-07-11T11:36:22Z</time>
      </trkpt>
      <trkpt lat="42.69049" lon="1.6505">
        <ele>1461</ele>
        <time>2015-07-11T11:36:34Z</time>
      </trkpt>
      <trkpt lat="42.69048" lon="1.65051">
        <ele>1461</ele>
        <time>2015-07-11T11:36:35Z</time>
      </trkpt>
      <trkpt lat="42.6904" lon="1.65051">
        <ele>1461</ele>
        <time>2015-07-11T11:36:42Z</time>
      </trkpt>
      <trkpt lat="42.69031" lon="1.65054">
        <ele>1462</ele>
        <time>2015-07-11T11:36:53Z</time>
      </trkpt>
      <trkpt lat="42.69016" lon="1.65057">
        <ele>1462</ele>
        <time>2015-07-11T11:37:07Z</time>
      </trkpt>
      <trkpt lat="42.69007" lon="1.65055">
        <ele>1461</ele>
        <time>2015-07-11T11:37:20Z</time>
      </trkpt>
      <trkpt lat="42.69004" lon="1.65056">
        <ele>1461</ele>
        <time>2015-07-11T11:37:23Z</time>
      </trkpt>
      <trkpt lat="42.68998" lon="1.65056">
        <ele>1460</ele>
        <time>2015-07-11T11:37:28Z</time>
      </trkpt>
      <trkpt lat="42.68993" lon="1.65057">
        <ele>1460</ele>
        <time>2015-07-11T11:37:31Z</time>
      </trkpt>
      <trkpt lat="42.6898" lon="1.65061">
        <ele>1459</ele>
        <time>2015-07-11T11:37:44Z</time>
      </trkpt>
      <trkpt lat="42.68971" lon="1.65062">
        <ele>1458</ele>
        <time>2015-07-11T11:37:52Z</time>
      </trkpt>
      <trkpt lat="42.68953" lon="1.65065">
        <ele>1457</ele>
        <time>2015-07-11T11:38:05Z</time>
      </trkpt>
      <trkpt lat="42.68937" lon="1.65074">
        <ele>1458</ele>
        <time>2015-07-11T11:38:15Z</time>
      </trkpt>
      <trkpt lat="42.68922" lon="1.65085">
        <ele>1458</ele>
        <time>2015-07-11T11:38:24Z</time>
      </trkpt>
      <trkpt lat="42.68909" lon="1.65091">
        <ele>1458</ele>
        <time>2015-07-11T11:38:37Z</time>
      </trkpt>
      <trkpt lat="42.68924" lon="1.65065">
        <ele>1457</ele>
        <time>2015-07-11T11:38:52Z</time>
      </trkpt>
      <trkpt lat="42.6891" lon="1.6507">
        <ele>1457</ele>
        <time>2015-07-11T11:39:08Z</time>
      </trkpt>
      <trkpt lat="42.68897" lon="1.65068">
        <ele>1457</ele>
        <time>2015-07-11T11:39:19Z</time>
      </trkpt>
      <trkpt lat="42.68885" lon="1.65065">
        <ele>1457</ele>
        <time>2015-07-11T11:39:30Z</time>
      </trkpt>
      <trkpt lat="42.68868" lon="1.65072">
        <ele>1457</ele>
        <time>2015-07-11T11:39:41Z</time>
      </trkpt>
      <trkpt lat="42.68846" lon="1.65086">
        <ele>1458</ele>
        <time>2015-07-11T11:39:53Z</time>
      </trkpt>
      <trkpt lat="42.68848" lon="1.65067">
        <ele>1458</ele>
        <time>2015-07-11T11:40:03Z</time>
      </trkpt>
      <trkpt lat="42.6885" lon="1.65059">
        <ele>1458</ele>
        <time>2015-07-11T11:40:16Z</time>
      </trkpt>
      <trkpt lat="42.68849" lon="1.65058">
        <ele>1458</ele>
        <time>2015-07-11T11:40:19Z</time>
      </trkpt>
      <trkpt lat="42.68847" lon="1.65054">
        <ele>1457</ele>
        <time>2015-07-11T11:40:22Z</time>
      </trkpt>
      <trkpt lat="42.68836" lon="1.65051">
        <ele>1457</ele>
        <time>2015-07-11T11:40:36Z</time>
      </trkpt>
      <trkpt lat="42.68836" lon="1.65037">
        <ele>1457</ele>
        <time>2015-07-11T11:40:48Z</time>
      </trkpt>
      <trkpt lat="42.68835" lon="1.65027">
        <ele>1457</ele>
        <time>2015-07-11T11:40:56Z</time>
      </trkpt>
      <trkpt lat="42.68833" lon="1.6502">
        <ele>1457</ele>
        <time>2015-07-11T11:41:03Z</time>
      </trkpt>
      <trkpt lat="42.6883" lon="1.65021">
        <ele>1457</ele>
        <time>2015-07-11T11:41:05Z</time>
      </trkpt>
      <trkpt lat="42.68815" lon="1.6503">
        <ele>1457</ele>
        <time>2015-07-11T11:41:15Z</time>
      </trkpt>
      <trkpt lat="42.68637" lon="1.65042">
        <ele>1481</ele>
        <time>2015-07-11T11:47:10Z</time>
      </trkpt>
      <trkpt lat="42.68639" lon="1.65044">
        <ele>1481</ele>
        <time>2015-07-11T11:47:33Z</time>
      </trkpt>
      <trkpt lat="42.68632" lon="1.65041">
        <ele>1481</ele>
        <time>2015-07-11T11:47:46Z</time>
      </trkpt>
      <trkpt lat="42.68623" lon="1.65042">
        <ele>1479</ele>
        <time>2015-07-11T11:47:59Z</time>
      </trkpt>
      <trkpt lat="42.68614" lon="1.65042">
        <ele>1481</ele>
        <time>2015-07-11T11:48:14Z</time>
      </trkpt>
      <trkpt lat="42.68607" lon="1.65042">
        <ele>1482</ele>
        <time>2015-07-11T11:48:26Z</time>
      </trkpt>
      <trkpt lat="42.68601" lon="1.65043">
        <ele>1485</ele>
        <time>2015-07-11T11:48:41Z</time>
      </trkpt>
      <trkpt lat="42.68593" lon="1.65041">
        <ele>1486</ele>
        <time>2015-07-11T11:48:54Z</time>
      </trkpt>
      <trkpt lat="42.68592" lon="1.6504">
        <ele>1487</ele>
        <time>2015-07-11T11:49:14Z</time>
      </trkpt>
      <trkpt lat="42.68586" lon="1.65034">
        <ele>1487</ele>
        <time>2015-07-11T11:49:26Z</time>
      </trkpt>
      <trkpt lat="42.68583" lon="1.65028">
        <ele>1485</ele>
        <time>2015-07-11T11:49:39Z</time>
      </trkpt>
      <trkpt lat="42.68581" lon="1.65019">
        <ele>1485</ele>
        <time>2015-07-11T11:49:56Z</time>
      </trkpt>
      <trkpt lat="42.68582" lon="1.65017">
        <ele>1485</ele>
        <time>2015-07-11T11:49:58Z</time>
      </trkpt>
      <trkpt lat="42.68581" lon="1.65007">
        <ele>1485</ele>
        <time>2015-07-11T11:50:05Z</time>
      </trkpt>
      <trkpt lat="42.68579" lon="1.65006">
        <ele>1486</ele>
        <time>2015-07-11T11:50:07Z</time>
      </trkpt>
      <trkpt lat="42.6857" lon="1.65002">
        <ele>1487</ele>
        <time>2015-07-11T11:50:18Z</time>
      </trkpt>
      <trkpt lat="42.68571" lon="1.64996">
        <ele>1487</ele>
        <time>2015-07-11T11:50:24Z</time>
      </trkpt>
      <trkpt lat="42.68571" lon="1.64992">
        <ele>1488</ele>
        <time>2015-07-11T11:50:29Z</time>
      </trkpt>
      <trkpt lat="42.68572" lon="1.64974">
        <ele>1488</ele>
        <time>2015-07-11T11:50:39Z</time>
      </trkpt>
      <trkpt lat="42.68576" lon="1.6496">
        <ele>1489</ele>
        <time>2015-07-11T11:50:50Z</time>
      </trkpt>
      <trkpt lat="42.68579" lon="1.64953">
        <ele>1490</ele>
        <time>2015-07-11T11:50:55Z</time>
      </trkpt>
      <trkpt lat="42.68572" lon="1.64953">
        <ele>1491</ele>
        <time>2015-07-11T11:51:03Z</time>
      </trkpt>
      <trkpt lat="42.68568" lon="1.64952">
        <ele>1492</ele>
        <time>2015-07-11T11:51:06Z</time>
      </trkpt>
      <trkpt lat="42.68563" lon="1.64949">
        <ele>1492</ele>
        <time>2015-07-11T11:51:13Z</time>
      </trkpt>
      <trkpt lat="42.68522" lon="1.64967">
        <ele>1493</ele>
        <time>2015-07-11T11:51:36Z</time>
      </trkpt>
      <trkpt lat="42.68512" lon="1.64967">
        <ele>1494</ele>
        <time>2015-07-11T11:51:48Z</time>
      </trkpt>
      <trkpt lat="42.68501" lon="1.64965">
        <ele>1494</ele>
        <time>2015-07-11T11:51:58Z</time>
      </trkpt>
      <trkpt lat="42.685" lon="1.64966">
        <ele>1494</ele>
        <time>2015-07-11T11:51:59Z</time>
      </trkpt>
      <trkpt lat="42.68483" lon="1.64966">
        <ele>1495</ele>
        <time>2015-07-11T11:52:11Z</time>
      </trkpt>
      <trkpt lat="42.6848" lon="1.64966">
        <ele>1495</ele>
        <time>2015-07-11T11:52:13Z</time>
      </trkpt>
      <trkpt lat="42.68463" lon="1.64974">
        <ele>1495</ele>
        <time>2015-07-11T11:52:22Z</time>
      </trkpt>
      <trkpt lat="42.68452" lon="1.64972">
        <ele>1497</ele>
        <time>2015-07-11T11:52:35Z</time>
      </trkpt>
      <trkpt lat="42.68446" lon="1.64971">
        <ele>1497</ele>
        <time>2015-07-11T11:52:41Z</time>
      </trkpt>
      <trkpt lat="42.68437" lon="1.64961">
        <ele>1497</ele>
        <time>2015-07-11T11:52:54Z</time>
      </trkpt>
      <trkpt lat="42.68436" lon="1.64959">
        <ele>1497</ele>
        <time>2015-07-11T11:52:56Z</time>
      </trkpt>
      <trkpt lat="42.68426" lon="1.64955">
        <ele>1498</ele>
        <time>2015-07-11T11:53:07Z</time>
      </trkpt>
      <trkpt lat="42.68424" lon="1.64951">
        <ele>1500</ele>
        <time>2015-07-11T11:53:19Z</time>
      </trkpt>
      <trkpt lat="42.68421" lon="1.6495">
        <ele>1500</ele>
        <time>2015-07-11T11:53:23Z</time>
      </trkpt>
      <trkpt lat="42.68423" lon="1.64945">
        <ele>1501</ele>
        <time>2015-07-11T11:53:27Z</time>
      </trkpt>
      <trkpt lat="42.68418" lon="1.64942">
        <ele>1501</ele>
        <time>2015-07-11T11:53:32Z</time>
      </trkpt>
      <trkpt lat="42.68391" lon="1.64939">
        <ele>1512</ele>
        <time>2015-07-11T11:54:48Z</time>
      </trkpt>
      <trkpt lat="42.68391" lon="1.64939">
        <ele>1512</ele>
        <time>2015-07-11T11:54:49Z</time>
      </trkpt>
      <trkpt lat="42.68391" lon="1.64945">
        <ele>1512</ele>
        <time>2015-07-11T11:54:55Z</time>
      </trkpt>
      <trkpt lat="42.68381" lon="1.64953">
        <ele>1513</ele>
        <time>2015-07-11T11:55:08Z</time>
      </trkpt>
      <trkpt lat="42.68371" lon="1.64958">
        <ele>1514</ele>
        <time>2015-07-11T11:55:23Z</time>
      </trkpt>
      <trkpt lat="42.68362" lon="1.64956">
        <ele>1516</ele>
        <time>2015-07-11T11:55:37Z</time>
      </trkpt>
      <trkpt lat="42.68355" lon="1.64952">
        <ele>1518</ele>
        <time>2015-07-11T11:55:50Z</time>
      </trkpt>
      <trkpt lat="42.68348" lon="1.64942">
        <ele>1520</ele>
        <time>2015-07-11T11:56:07Z</time>
      </trkpt>
      <trkpt lat="42.6834" lon="1.64933">
        <ele>1522</ele>
        <time>2015-07-11T11:56:21Z</time>
      </trkpt>
      <trkpt lat="42.68334" lon="1.64922">
        <ele>1523</ele>
        <time>2015-07-11T11:56:34Z</time>
      </trkpt>
      <trkpt lat="42.68328" lon="1.64914">
        <ele>1525</ele>
        <time>2015-07-11T11:56:49Z</time>
      </trkpt>
      <trkpt lat="42.68324" lon="1.64904">
        <ele>1526</ele>
        <time>2015-07-11T11:56:59Z</time>
      </trkpt>
      <trkpt lat="42.68312" lon="1.64884">
        <ele>1526</ele>
        <time>2015-07-11T11:57:18Z</time>
      </trkpt>
      <trkpt lat="42.68299" lon="1.64883">
        <ele>1529</ele>
        <time>2015-07-11T11:57:34Z</time>
      </trkpt>
      <trkpt lat="42.68292" lon="1.64885">
        <ele>1530</ele>
        <time>2015-07-11T11:57:42Z</time>
      </trkpt>
      <trkpt lat="42.68288" lon="1.64898">
        <ele>1530</ele>
        <time>2015-07-11T11:57:56Z</time>
      </trkpt>
      <trkpt lat="42.68283" lon="1.64904">
        <ele>1532</ele>
        <time>2015-07-11T11:58:09Z</time>
      </trkpt>
      <trkpt lat="42.68276" lon="1.64908">
        <ele>1533</ele>
        <time>2015-07-11T11:58:21Z</time>
      </trkpt>
      <trkpt lat="42.68266" lon="1.64905">
        <ele>1535</ele>
        <time>2015-07-11T11:58:37Z</time>
      </trkpt>
      <trkpt lat="42.6826" lon="1.64905">
        <ele>1538</ele>
        <time>2015-07-11T11:58:51Z</time>
      </trkpt>
      <trkpt lat="42.68254" lon="1.6491">
        <ele>1540</ele>
        <time>2015-07-11T11:59:05Z</time>
      </trkpt>
      <trkpt lat="42.6826" lon="1.64919">
        <ele>1542</ele>
        <time>2015-07-11T11:59:17Z</time>
      </trkpt>
      <trkpt lat="42.68267" lon="1.64928">
        <ele>1543</ele>
        <time>2015-07-11T11:59:30Z</time>
      </trkpt>
      <trkpt lat="42.68268" lon="1.64933">
        <ele>1543</ele>
        <time>2015-07-11T11:59:46Z</time>
      </trkpt>
      <trkpt lat="42.68268" lon="1.64927">
        <ele>1543</ele>
        <time>2015-07-11T12:00:05Z</time>
      </trkpt>
      <trkpt lat="42.68268" lon="1.64926">
        <ele>1543</ele>
        <time>2015-07-11T12:00:18Z</time>
      </trkpt>
      <trkpt lat="42.68266" lon="1.64929">
        <ele>1543</ele>
        <time>2015-07-11T12:00:35Z</time>
      </trkpt>
      <trkpt lat="42.68267" lon="1.64934">
        <ele>1544</ele>
        <time>2015-07-11T12:00:51Z</time>
      </trkpt>
      <trkpt lat="42.68265" lon="1.64931">
        <ele>1543</ele>
        <time>2015-07-11T12:01:12Z</time>
      </trkpt>
      <trkpt lat="42.68264" lon="1.6493">
        <ele>1544</ele>
        <time>2015-07-11T12:01:39Z</time>
      </trkpt>
      <trkpt lat="42.6827" lon="1.64937">
        <ele>1544</ele>
        <time>2015-07-11T12:01:54Z</time>
      </trkpt>
      <trkpt lat="42.68276" lon="1.64947">
        <ele>1546</ele>
        <time>2015-07-11T12:02:06Z</time>
      </trkpt>
      <trkpt lat="42.68284" lon="1.64953">
        <ele>1548</ele>
        <time>2015-07-11T12:02:20Z</time>
      </trkpt>
      <trkpt lat="42.68281" lon="1.6496">
        <ele>1550</ele>
        <time>2015-07-11T12:02:32Z</time>
      </trkpt>
      <trkpt lat="42.68271" lon="1.64956">
        <ele>1552</ele>
        <time>2015-07-11T12:02:46Z</time>
      </trkpt>
      <trkpt lat="42.68266" lon="1.64956">
        <ele>1552</ele>
        <time>2015-07-11T12:02:53Z</time>
      </trkpt>
      <trkpt lat="42.68255" lon="1.64953">
        <ele>1553</ele>
        <time>2015-07-11T12:03:07Z</time>
      </trkpt>
      <trkpt lat="42.68252" lon="1.64954">
        <ele>1553</ele>
        <time>2015-07-11T12:03:22Z</time>
      </trkpt>
      <trkpt lat="42.68239" lon="1.64954">
        <ele>1553</ele>
        <time>2015-07-11T12:03:34Z</time>
      </trkpt>
      <trkpt lat="42.68232" lon="1.64954">
        <ele>1554</ele>
        <time>2015-07-11T12:03:40Z</time>
      </trkpt>
      <trkpt lat="42.68219" lon="1.64947">
        <ele>1554</ele>
        <time>2015-07-11T12:03:55Z</time>
      </trkpt>
      <trkpt lat="42.68219" lon="1.64947">
        <ele>1554</ele>
        <time>2015-07-11T12:03:56Z</time>
      </trkpt>
      <trkpt lat="42.68216" lon="1.64944">
        <ele>1554</ele>
        <time>2015-07-11T12:03:58Z</time>
      </trkpt>
      <trkpt lat="42.6822" lon="1.64946">
        <ele>1555</ele>
        <time>2015-07-11T12:11:16Z</time>
      </trkpt>
      <trkpt lat="42.68224" lon="1.64955">
        <ele>1556</ele>
        <time>2015-07-11T12:11:31Z</time>
      </trkpt>
      <trkpt lat="42.68227" lon="1.64961">
        <ele>1556</ele>
        <time>2015-07-11T12:11:49Z</time>
      </trkpt>
      <trkpt lat="42.6823" lon="1.64973">
        <ele>1556</ele>
        <time>2015-07-11T12:12:03Z</time>
      </trkpt>
      <trkpt lat="42.68234" lon="1.6498">
        <ele>1556</ele>
        <time>2015-07-11T12:12:10Z</time>
      </trkpt>
      <trkpt lat="42.68236" lon="1.64983">
        <ele>1556</ele>
        <time>2015-07-11T12:12:13Z</time>
      </trkpt>
      <trkpt lat="42.68247" lon="1.64998">
        <ele>1556</ele>
        <time>2015-07-11T12:12:30Z</time>
      </trkpt>
      <trkpt lat="42.68251" lon="1.65011">
        <ele>1556</ele>
        <time>2015-07-11T12:12:45Z</time>
      </trkpt>
      <trkpt lat="42.68255" lon="1.65026">
        <ele>1556</ele>
        <time>2015-07-11T12:13:00Z</time>
      </trkpt>
      <trkpt lat="42.68256" lon="1.65034">
        <ele>1556</ele>
        <time>2015-07-11T12:13:12Z</time>
      </trkpt>
      <trkpt lat="42.68257" lon="1.65044">
        <ele>1557</ele>
        <time>2015-07-11T12:13:27Z</time>
      </trkpt>
      <trkpt lat="42.68254" lon="1.65056">
        <ele>1558</ele>
        <time>2015-07-11T12:13:40Z</time>
      </trkpt>
      <trkpt lat="42.68254" lon="1.65073">
        <ele>1559</ele>
        <time>2015-07-11T12:13:56Z</time>
      </trkpt>
      <trkpt lat="42.68256" lon="1.65082">
        <ele>1559</ele>
        <time>2015-07-11T12:14:12Z</time>
      </trkpt>
      <trkpt lat="42.68245" lon="1.65082">
        <ele>1560</ele>
        <time>2015-07-11T12:14:26Z</time>
      </trkpt>
      <trkpt lat="42.68241" lon="1.65085">
        <ele>1562</ele>
        <time>2015-07-11T12:14:42Z</time>
      </trkpt>
      <trkpt lat="42.68239" lon="1.65096">
        <ele>1563</ele>
        <time>2015-07-11T12:14:57Z</time>
      </trkpt>
      <trkpt lat="42.68234" lon="1.651">
        <ele>1566</ele>
        <time>2015-07-11T12:15:07Z</time>
      </trkpt>
      <trkpt lat="42.68228" lon="1.65103">
        <ele>1568</ele>
        <time>2015-07-11T12:15:21Z</time>
      </trkpt>
      <trkpt lat="42.68225" lon="1.651">
        <ele>1569</ele>
        <time>2015-07-11T12:15:35Z</time>
      </trkpt>
      <trkpt lat="42.68218" lon="1.65094">
        <ele>1569</ele>
        <time>2015-07-11T12:15:52Z</time>
      </trkpt>
      <trkpt lat="42.68216" lon="1.65082">
        <ele>1570</ele>
        <time>2015-07-11T12:16:08Z</time>
      </trkpt>
      <trkpt lat="42.6821" lon="1.65077">
        <ele>1571</ele>
        <time>2015-07-11T12:16:23Z</time>
      </trkpt>
      <trkpt lat="42.68209" lon="1.65079">
        <ele>1573</ele>
        <time>2015-07-11T12:16:38Z</time>
      </trkpt>
      <trkpt lat="42.68206" lon="1.65072">
        <ele>1575</ele>
        <time>2015-07-11T12:16:54Z</time>
      </trkpt>
      <trkpt lat="42.68201" lon="1.65076">
        <ele>1576</ele>
        <time>2015-07-11T12:17:07Z</time>
      </trkpt>
      <trkpt lat="42.68198" lon="1.65075">
        <ele>1577</ele>
        <time>2015-07-11T12:17:23Z</time>
      </trkpt>
      <trkpt lat="42.68195" lon="1.65078">
        <ele>1579</ele>
        <time>2015-07-11T12:17:38Z</time>
      </trkpt>
      <trkpt lat="42.68188" lon="1.65076">
        <ele>1581</ele>
        <time>2015-07-11T12:17:54Z</time>
      </trkpt>
      <trkpt lat="42.68188" lon="1.65075">
        <ele>1582</ele>
        <time>2015-07-11T12:17:57Z</time>
      </trkpt>
      <trkpt lat="42.68187" lon="1.65081">
        <ele>1585</ele>
        <time>2015-07-11T12:18:15Z</time>
      </trkpt>
      <trkpt lat="42.68186" lon="1.65085">
        <ele>1587</ele>
        <time>2015-07-11T12:18:28Z</time>
      </trkpt>
      <trkpt lat="42.6819" lon="1.65093">
        <ele>1589</ele>
        <time>2015-07-11T12:18:43Z</time>
      </trkpt>
      <trkpt lat="42.68193" lon="1.651">
        <ele>1591</ele>
        <time>2015-07-11T12:18:54Z</time>
      </trkpt>
      <trkpt lat="42.6819" lon="1.65102">
        <ele>1593</ele>
        <time>2015-07-11T12:19:09Z</time>
      </trkpt>
      <trkpt lat="42.6819" lon="1.65103">
        <ele>1593</ele>
        <time>2015-07-11T12:19:12Z</time>
      </trkpt>
      <trkpt lat="42.68186" lon="1.65108">
        <ele>1594</ele>
        <time>2015-07-11T12:19:24Z</time>
      </trkpt>
      <trkpt lat="42.68186" lon="1.65112">
        <ele>1596</ele>
        <time>2015-07-11T12:19:39Z</time>
      </trkpt>
      <trkpt lat="42.68185" lon="1.65117">
        <ele>1598</ele>
        <time>2015-07-11T12:19:52Z</time>
      </trkpt>
      <trkpt lat="42.68172" lon="1.65113">
        <ele>1600</ele>
        <time>2015-07-11T12:20:05Z</time>
      </trkpt>
      <trkpt lat="42.68176" lon="1.65123">
        <ele>1602</ele>
        <time>2015-07-11T12:20:18Z</time>
      </trkpt>
      <trkpt lat="42.68166" lon="1.65123">
        <ele>1604</ele>
        <time>2015-07-11T12:20:33Z</time>
      </trkpt>
      <trkpt lat="42.68163" lon="1.65122">
        <ele>1605</ele>
        <time>2015-07-11T12:20:47Z</time>
      </trkpt>
      <trkpt lat="42.68159" lon="1.65119">
        <ele>1607</ele>
        <time>2015-07-11T12:21:02Z</time>
      </trkpt>
      <trkpt lat="42.68151" lon="1.65122">
        <ele>1609</ele>
        <time>2015-07-11T12:21:20Z</time>
      </trkpt>
      <trkpt lat="42.68148" lon="1.65115">
        <ele>1610</ele>
        <time>2015-07-11T12:21:32Z</time>
      </trkpt>
      <trkpt lat="42.68144" lon="1.65107">
        <ele>1612</ele>
        <time>2015-07-11T12:21:45Z</time>
      </trkpt>
      <trkpt lat="42.6814" lon="1.65108">
        <ele>1612</ele>
        <time>2015-07-11T12:21:55Z</time>
      </trkpt>
      <trkpt lat="42.68138" lon="1.65106">
        <ele>1613</ele>
        <time>2015-07-11T12:22:08Z</time>
      </trkpt>
      <trkpt lat="42.68137" lon="1.65112">
        <ele>1615</ele>
        <time>2015-07-11T12:22:22Z</time>
      </trkpt>
      <trkpt lat="42.68139" lon="1.6512">
        <ele>1617</ele>
        <time>2015-07-11T12:22:35Z</time>
      </trkpt>
      <trkpt lat="42.68139" lon="1.65124">
        <ele>1617</ele>
        <time>2015-07-11T12:22:40Z</time>
      </trkpt>
      <trkpt lat="42.68146" lon="1.65138">
        <ele>1618</ele>
        <time>2015-07-11T12:22:55Z</time>
      </trkpt>
      <trkpt lat="42.68148" lon="1.65142">
        <ele>1619</ele>
        <time>2015-07-11T12:23:09Z</time>
      </trkpt>
      <trkpt lat="42.6814" lon="1.65147">
        <ele>1619</ele>
        <time>2015-07-11T12:23:27Z</time>
      </trkpt>
      <trkpt lat="42.68143" lon="1.65151">
        <ele>1618</ele>
        <time>2015-07-11T12:23:39Z</time>
      </trkpt>
      <trkpt lat="42.68145" lon="1.65152">
        <ele>1618</ele>
        <time>2015-07-11T12:23:45Z</time>
      </trkpt>
      <trkpt lat="42.68151" lon="1.65156">
        <ele>1617</ele>
        <time>2015-07-11T12:23:55Z</time>
      </trkpt>
      <trkpt lat="42.68152" lon="1.65158">
        <ele>1616</ele>
        <time>2015-07-11T12:23:58Z</time>
      </trkpt>
      <trkpt lat="42.6817" lon="1.65175">
        <ele>1616</ele>
        <time>2015-07-11T12:24:11Z</time>
      </trkpt>
      <trkpt lat="42.68181" lon="1.6518">
        <ele>1615</ele>
        <time>2015-07-11T12:24:24Z</time>
      </trkpt>
      <trkpt lat="42.68184" lon="1.65184">
        <ele>1614</ele>
        <time>2015-07-11T12:24:28Z</time>
      </trkpt>
      <trkpt lat="42.68195" lon="1.652">
        <ele>1615</ele>
        <time>2015-07-11T12:24:40Z</time>
      </trkpt>
      <trkpt lat="42.68219" lon="1.65219">
        <ele>1615</ele>
        <time>2015-07-11T12:24:55Z</time>
      </trkpt>
      <trkpt lat="42.68222" lon="1.65229">
        <ele>1616</ele>
        <time>2015-07-11T12:25:09Z</time>
      </trkpt>
      <trkpt lat="42.68229" lon="1.65236">
        <ele>1618</ele>
        <time>2015-07-11T12:25:22Z</time>
      </trkpt>
      <trkpt lat="42.68216" lon="1.65245">
        <ele>1619</ele>
        <time>2015-07-11T12:25:39Z</time>
      </trkpt>
      <trkpt lat="42.68203" lon="1.65247">
        <ele>1620</ele>
        <time>2015-07-11T12:25:50Z</time>
      </trkpt>
      <trkpt lat="42.68195" lon="1.65256">
        <ele>1622</ele>
        <time>2015-07-11T12:26:04Z</time>
      </trkpt>
      <trkpt lat="42.68195" lon="1.65261">
        <ele>1623</ele>
        <time>2015-07-11T12:26:18Z</time>
      </trkpt>
      <trkpt lat="42.68193" lon="1.65263">
        <ele>1624</ele>
        <time>2015-07-11T12:26:31Z</time>
      </trkpt>
      <trkpt lat="42.68189" lon="1.65267">
        <ele>1625</ele>
        <time>2015-07-11T12:26:46Z</time>
      </trkpt>
      <trkpt lat="42.68191" lon="1.65272">
        <ele>1628</ele>
        <time>2015-07-11T12:27:02Z</time>
      </trkpt>
      <trkpt lat="42.68191" lon="1.65277">
        <ele>1631</ele>
        <time>2015-07-11T12:27:18Z</time>
      </trkpt>
      <trkpt lat="42.68193" lon="1.65282">
        <ele>1631</ele>
        <time>2015-07-11T12:27:32Z</time>
      </trkpt>
      <trkpt lat="42.68193" lon="1.65286">
        <ele>1633</ele>
        <time>2015-07-11T12:27:48Z</time>
      </trkpt>
      <trkpt lat="42.68201" lon="1.65291">
        <ele>1635</ele>
        <time>2015-07-11T12:28:00Z</time>
      </trkpt>
      <trkpt lat="42.68206" lon="1.65297">
        <ele>1637</ele>
        <time>2015-07-11T12:28:15Z</time>
      </trkpt>
      <trkpt lat="42.68206" lon="1.65299">
        <ele>1638</ele>
        <time>2015-07-11T12:28:21Z</time>
      </trkpt>
      <trkpt lat="42.68212" lon="1.65304">
        <ele>1638</ele>
        <time>2015-07-11T12:28:35Z</time>
      </trkpt>
      <trkpt lat="42.68211" lon="1.6531">
        <ele>1638</ele>
        <time>2015-07-11T12:28:41Z</time>
      </trkpt>
      <trkpt lat="42.68214" lon="1.65321">
        <ele>1639</ele>
        <time>2015-07-11T12:28:55Z</time>
      </trkpt>
      <trkpt lat="42.68209" lon="1.65324">
        <ele>1640</ele>
        <time>2015-07-11T12:29:10Z</time>
      </trkpt>
      <trkpt lat="42.68213" lon="1.6533">
        <ele>1640</ele>
        <time>2015-07-11T12:29:19Z</time>
      </trkpt>
      <trkpt lat="42.68214" lon="1.65335">
        <ele>1640</ele>
        <time>2015-07-11T12:29:29Z</time>
      </trkpt>
      <trkpt lat="42.68216" lon="1.65339">
        <ele>1640</ele>
        <time>2015-07-11T12:29:47Z</time>
      </trkpt>
      <trkpt lat="42.6821" lon="1.65346">
        <ele>1642</ele>
        <time>2015-07-11T12:30:04Z</time>
      </trkpt>
      <trkpt lat="42.68211" lon="1.65351">
        <ele>1643</ele>
        <time>2015-07-11T12:30:17Z</time>
      </trkpt>
      <trkpt lat="42.68213" lon="1.65358">
        <ele>1645</ele>
        <time>2015-07-11T12:30:29Z</time>
      </trkpt>
      <trkpt lat="42.68212" lon="1.6536">
        <ele>1646</ele>
        <time>2015-07-11T12:30:45Z</time>
      </trkpt>
      <trkpt lat="42.68208" lon="1.65364">
        <ele>1647</ele>
        <time>2015-07-11T12:30:59Z</time>
      </trkpt>
      <trkpt lat="42.6821" lon="1.65369">
        <ele>1649</ele>
        <time>2015-07-11T12:31:12Z</time>
      </trkpt>
      <trkpt lat="42.68196" lon="1.65369">
        <ele>1651</ele>
        <time>2015-07-11T12:31:25Z</time>
      </trkpt>
      <trkpt lat="42.682" lon="1.65376">
        <ele>1652</ele>
        <time>2015-07-11T12:31:38Z</time>
      </trkpt>
      <trkpt lat="42.68205" lon="1.65385">
        <ele>1653</ele>
        <time>2015-07-11T12:31:51Z</time>
      </trkpt>
      <trkpt lat="42.68209" lon="1.6539">
        <ele>1654</ele>
        <time>2015-07-11T12:32:02Z</time>
      </trkpt>
      <trkpt lat="42.68211" lon="1.65394">
        <ele>1655</ele>
        <time>2015-07-11T12:32:14Z</time>
      </trkpt>
      <trkpt lat="42.68211" lon="1.65398">
        <ele>1656</ele>
        <time>2015-07-11T12:32:29Z</time>
      </trkpt>
      <trkpt lat="42.68213" lon="1.6541">
        <ele>1658</ele>
        <time>2015-07-11T12:32:43Z</time>
      </trkpt>
      <trkpt lat="42.68212" lon="1.65417">
        <ele>1659</ele>
        <time>2015-07-11T12:32:54Z</time>
      </trkpt>
      <trkpt lat="42.68217" lon="1.65424">
        <ele>1660</ele>
        <time>2015-07-11T12:33:06Z</time>
      </trkpt>
      <trkpt lat="42.68222" lon="1.65433">
        <ele>1661</ele>
        <time>2015-07-11T12:33:19Z</time>
      </trkpt>
      <trkpt lat="42.68221" lon="1.65438">
        <ele>1662</ele>
        <time>2015-07-11T12:33:31Z</time>
      </trkpt>
      <trkpt lat="42.68225" lon="1.65447">
        <ele>1663</ele>
        <time>2015-07-11T12:33:44Z</time>
      </trkpt>
      <trkpt lat="42.68227" lon="1.65452">
        <ele>1665</ele>
        <time>2015-07-11T12:33:55Z</time>
      </trkpt>
      <trkpt lat="42.68221" lon="1.65458">
        <ele>1666</ele>
        <time>2015-07-11T12:34:09Z</time>
      </trkpt>
      <trkpt lat="42.68219" lon="1.65462">
        <ele>1667</ele>
        <time>2015-07-11T12:34:20Z</time>
      </trkpt>
      <trkpt lat="42.68222" lon="1.65465">
        <ele>1668</ele>
        <time>2015-07-11T12:34:31Z</time>
      </trkpt>
      <trkpt lat="42.68225" lon="1.65466">
        <ele>1669</ele>
        <time>2015-07-11T12:34:43Z</time>
      </trkpt>
      <trkpt lat="42.68231" lon="1.65474">
        <ele>1672</ele>
        <time>2015-07-11T12:34:58Z</time>
      </trkpt>
      <trkpt lat="42.68234" lon="1.65481">
        <ele>1672</ele>
        <time>2015-07-11T12:35:05Z</time>
      </trkpt>
      <trkpt lat="42.68235" lon="1.65495">
        <ele>1673</ele>
        <time>2015-07-11T12:35:19Z</time>
      </trkpt>
      <trkpt lat="42.68238" lon="1.65505">
        <ele>1675</ele>
        <time>2015-07-11T12:35:34Z</time>
      </trkpt>
      <trkpt lat="42.68241" lon="1.65512">
        <ele>1676</ele>
        <time>2015-07-11T12:35:43Z</time>
      </trkpt>
      <trkpt lat="42.6824" lon="1.65526">
        <ele>1677</ele>
        <time>2015-07-11T12:35:59Z</time>
      </trkpt>
      <trkpt lat="42.68243" lon="1.65538">
        <ele>1677</ele>
        <time>2015-07-11T12:36:12Z</time>
      </trkpt>
      <trkpt lat="42.68245" lon="1.6554">
        <ele>1677</ele>
        <time>2015-07-11T12:36:15Z</time>
      </trkpt>
      <trkpt lat="42.68248" lon="1.65547">
        <ele>1678</ele>
        <time>2015-07-11T12:36:27Z</time>
      </trkpt>
      <trkpt lat="42.68247" lon="1.65552">
        <ele>1678</ele>
        <time>2015-07-11T12:36:38Z</time>
      </trkpt>
      <trkpt lat="42.68252" lon="1.65554">
        <ele>1679</ele>
        <time>2015-07-11T12:36:52Z</time>
      </trkpt>
      <trkpt lat="42.68259" lon="1.65564">
        <ele>1681</ele>
        <time>2015-07-11T12:37:06Z</time>
      </trkpt>
      <trkpt lat="42.68258" lon="1.65574">
        <ele>1681</ele>
        <time>2015-07-11T12:37:19Z</time>
      </trkpt>
      <trkpt lat="42.68256" lon="1.65579">
        <ele>1681</ele>
        <time>2015-07-11T12:37:23Z</time>
      </trkpt>
      <trkpt lat="42.68247" lon="1.65585">
        <ele>1681</ele>
        <time>2015-07-11T12:37:36Z</time>
      </trkpt>
      <trkpt lat="42.68243" lon="1.65588">
        <ele>1681</ele>
        <time>2015-07-11T12:37:46Z</time>
      </trkpt>
      <trkpt lat="42.68239" lon="1.65593">
        <ele>1683</ele>
        <time>2015-07-11T12:37:58Z</time>
      </trkpt>
      <trkpt lat="42.68235" lon="1.65595">
        <ele>1685</ele>
        <time>2015-07-11T12:38:11Z</time>
      </trkpt>
      <trkpt lat="42.6823" lon="1.656">
        <ele>1687</ele>
        <time>2015-07-11T12:38:21Z</time>
      </trkpt>
      <trkpt lat="42.68224" lon="1.65605">
        <ele>1689</ele>
        <time>2015-07-11T12:38:35Z</time>
      </trkpt>
      <trkpt lat="42.68224" lon="1.65611">
        <ele>1690</ele>
        <time>2015-07-11T12:38:47Z</time>
      </trkpt>
      <trkpt lat="42.6822" lon="1.65613">
        <ele>1691</ele>
        <time>2015-07-11T12:38:59Z</time>
      </trkpt>
      <trkpt lat="42.68219" lon="1.65623">
        <ele>1692</ele>
        <time>2015-07-11T12:39:13Z</time>
      </trkpt>
      <trkpt lat="42.68223" lon="1.65633">
        <ele>1693</ele>
        <time>2015-07-11T12:39:28Z</time>
      </trkpt>
      <trkpt lat="42.68224" lon="1.65637">
        <ele>1693</ele>
        <time>2015-07-11T12:39:34Z</time>
      </trkpt>
      <trkpt lat="42.68231" lon="1.65647">
        <ele>1695</ele>
        <time>2015-07-11T12:39:49Z</time>
      </trkpt>
      <trkpt lat="42.68233" lon="1.65649">
        <ele>1696</ele>
        <time>2015-07-11T12:40:00Z</time>
      </trkpt>
      <trkpt lat="42.6824" lon="1.65657">
        <ele>1697</ele>
        <time>2015-07-11T12:40:14Z</time>
      </trkpt>
      <trkpt lat="42.68245" lon="1.65662">
        <ele>1698</ele>
        <time>2015-07-11T12:40:25Z</time>
      </trkpt>
      <trkpt lat="42.68244" lon="1.65677">
        <ele>1697</ele>
        <time>2015-07-11T12:40:39Z</time>
      </trkpt>
      <trkpt lat="42.68242" lon="1.65689">
        <ele>1697</ele>
        <time>2015-07-11T12:40:50Z</time>
      </trkpt>
      <trkpt lat="42.68241" lon="1.65699">
        <ele>1698</ele>
        <time>2015-07-11T12:41:03Z</time>
      </trkpt>
      <trkpt lat="42.6824" lon="1.65711">
        <ele>1698</ele>
        <time>2015-07-11T12:41:17Z</time>
      </trkpt>
      <trkpt lat="42.68245" lon="1.65719">
        <ele>1699</ele>
        <time>2015-07-11T12:41:31Z</time>
      </trkpt>
      <trkpt lat="42.68248" lon="1.65728">
        <ele>1699</ele>
        <time>2015-07-11T12:41:44Z</time>
      </trkpt>
      <trkpt lat="42.6825" lon="1.65731">
        <ele>1699</ele>
        <time>2015-07-11T12:41:47Z</time>
      </trkpt>
      <trkpt lat="42.68255" lon="1.65741">
        <ele>1699</ele>
        <time>2015-07-11T12:42:00Z</time>
      </trkpt>
      <trkpt lat="42.68258" lon="1.65751">
        <ele>1701</ele>
        <time>2015-07-11T12:42:13Z</time>
      </trkpt>
      <trkpt lat="42.68262" lon="1.65758">
        <ele>1701</ele>
        <time>2015-07-11T12:42:24Z</time>
      </trkpt>
      <trkpt lat="42.68265" lon="1.65764">
        <ele>1701</ele>
        <time>2015-07-11T12:42:36Z</time>
      </trkpt>
      <trkpt lat="42.68269" lon="1.65769">
        <ele>1701</ele>
        <time>2015-07-11T12:42:50Z</time>
      </trkpt>
      <trkpt lat="42.68264" lon="1.65776">
        <ele>1701</ele>
        <time>2015-07-11T12:43:05Z</time>
      </trkpt>
      <trkpt lat="42.68264" lon="1.65781">
        <ele>1701</ele>
        <time>2015-07-11T12:43:18Z</time>
      </trkpt>
      <trkpt lat="42.68267" lon="1.65787">
        <ele>1701</ele>
        <time>2015-07-11T12:43:39Z</time>
      </trkpt>
      <trkpt lat="42.68269" lon="1.65794">
        <ele>1703</ele>
        <time>2015-07-11T12:43:52Z</time>
      </trkpt>
      <trkpt lat="42.68269" lon="1.65793">
        <ele>1704</ele>
        <time>2015-07-11T12:44:06Z</time>
      </trkpt>
      <trkpt lat="42.68271" lon="1.65797">
        <ele>1706</ele>
        <time>2015-07-11T12:44:18Z</time>
      </trkpt>
      <trkpt lat="42.68274" lon="1.65798">
        <ele>1707</ele>
        <time>2015-07-11T12:44:31Z</time>
      </trkpt>
      <trkpt lat="42.6828" lon="1.65796">
        <ele>1709</ele>
        <time>2015-07-11T12:44:43Z</time>
      </trkpt>
      <trkpt lat="42.68284" lon="1.65802">
        <ele>1710</ele>
        <time>2015-07-11T12:44:55Z</time>
      </trkpt>
      <trkpt lat="42.68279" lon="1.65813">
        <ele>1711</ele>
        <time>2015-07-11T12:45:07Z</time>
      </trkpt>
      <trkpt lat="42.68278" lon="1.65819">
        <ele>1713</ele>
        <time>2015-07-11T12:45:18Z</time>
      </trkpt>
      <trkpt lat="42.68276" lon="1.65826">
        <ele>1714</ele>
        <time>2015-07-11T12:45:28Z</time>
      </trkpt>
      <trkpt lat="42.68275" lon="1.65832">
        <ele>1714</ele>
        <time>2015-07-11T12:45:38Z</time>
      </trkpt>
      <trkpt lat="42.68274" lon="1.65838">
        <ele>1715</ele>
        <time>2015-07-11T12:45:50Z</time>
      </trkpt>
      <trkpt lat="42.68276" lon="1.65844">
        <ele>1717</ele>
        <time>2015-07-11T12:46:01Z</time>
      </trkpt>
      <trkpt lat="42.68276" lon="1.65853">
        <ele>1718</ele>
        <time>2015-07-11T12:46:15Z</time>
      </trkpt>
      <trkpt lat="42.68279" lon="1.65862">
        <ele>1719</ele>
        <time>2015-07-11T12:46:30Z</time>
      </trkpt>
      <trkpt lat="42.68277" lon="1.65868">
        <ele>1721</ele>
        <time>2015-07-11T12:46:41Z</time>
      </trkpt>
      <trkpt lat="42.6828" lon="1.65874">
        <ele>1722</ele>
        <time>2015-07-11T12:46:53Z</time>
      </trkpt>
      <trkpt lat="42.68282" lon="1.65882">
        <ele>1724</ele>
        <time>2015-07-11T12:47:08Z</time>
      </trkpt>
      <trkpt lat="42.68279" lon="1.65892">
        <ele>1724</ele>
        <time>2015-07-11T12:47:20Z</time>
      </trkpt>
      <trkpt lat="42.68276" lon="1.65898">
        <ele>1726</ele>
        <time>2015-07-11T12:47:32Z</time>
      </trkpt>
      <trkpt lat="42.68279" lon="1.65905">
        <ele>1727</ele>
        <time>2015-07-11T12:47:46Z</time>
      </trkpt>
      <trkpt lat="42.68278" lon="1.65913">
        <ele>1728</ele>
        <time>2015-07-11T12:47:58Z</time>
      </trkpt>
      <trkpt lat="42.68281" lon="1.65918">
        <ele>1729</ele>
        <time>2015-07-11T12:48:11Z</time>
      </trkpt>
      <trkpt lat="42.68281" lon="1.65924">
        <ele>1730</ele>
        <time>2015-07-11T12:48:23Z</time>
      </trkpt>
      <trkpt lat="42.68284" lon="1.65928">
        <ele>1731</ele>
        <time>2015-07-11T12:48:31Z</time>
      </trkpt>
      <trkpt lat="42.68285" lon="1.6594">
        <ele>1733</ele>
        <time>2015-07-11T12:48:47Z</time>
      </trkpt>
      <trkpt lat="42.68286" lon="1.65945">
        <ele>1733</ele>
        <time>2015-07-11T12:48:54Z</time>
      </trkpt>
      <trkpt lat="42.6829" lon="1.65953">
        <ele>1734</ele>
        <time>2015-07-11T12:49:07Z</time>
      </trkpt>
      <trkpt lat="42.68292" lon="1.65955">
        <ele>1734</ele>
        <time>2015-07-11T12:49:12Z</time>
      </trkpt>
      <trkpt lat="42.68294" lon="1.65965">
        <ele>1734</ele>
        <time>2015-07-11T12:49:26Z</time>
      </trkpt>
      <trkpt lat="42.68298" lon="1.65974">
        <ele>1735</ele>
        <time>2015-07-11T12:49:39Z</time>
      </trkpt>
      <trkpt lat="42.68296" lon="1.65982">
        <ele>1736</ele>
        <time>2015-07-11T12:49:50Z</time>
      </trkpt>
      <trkpt lat="42.68302" lon="1.65988">
        <ele>1737</ele>
        <time>2015-07-11T12:50:03Z</time>
      </trkpt>
      <trkpt lat="42.68302" lon="1.65999">
        <ele>1737</ele>
        <time>2015-07-11T12:50:15Z</time>
      </trkpt>
      <trkpt lat="42.68303" lon="1.6601">
        <ele>1737</ele>
        <time>2015-07-11T12:50:28Z</time>
      </trkpt>
      <trkpt lat="42.68299" lon="1.66024">
        <ele>1739</ele>
        <time>2015-07-11T12:50:41Z</time>
      </trkpt>
      <trkpt lat="42.683" lon="1.66032">
        <ele>1740</ele>
        <time>2015-07-11T12:50:52Z</time>
      </trkpt>
      <trkpt lat="42.68295" lon="1.66043">
        <ele>1741</ele>
        <time>2015-07-11T12:51:06Z</time>
      </trkpt>
      <trkpt lat="42.6829" lon="1.66052">
        <ele>1742</ele>
        <time>2015-07-11T12:51:19Z</time>
      </trkpt>
      <trkpt lat="42.68289" lon="1.66061">
        <ele>1743</ele>
        <time>2015-07-11T12:51:33Z</time>
      </trkpt>
      <trkpt lat="42.68288" lon="1.66072">
        <ele>1745</ele>
        <time>2015-07-11T12:51:48Z</time>
      </trkpt>
      <trkpt lat="42.68282" lon="1.66073">
        <ele>1746</ele>
        <time>2015-07-11T12:52:02Z</time>
      </trkpt>
      <trkpt lat="42.68279" lon="1.66079">
        <ele>1747</ele>
        <time>2015-07-11T12:52:15Z</time>
      </trkpt>
      <trkpt lat="42.68279" lon="1.66082">
        <ele>1747</ele>
        <time>2015-07-11T12:52:30Z</time>
      </trkpt>
      <trkpt lat="42.68275" lon="1.66085">
        <ele>1748</ele>
        <time>2015-07-11T12:52:43Z</time>
      </trkpt>
      <trkpt lat="42.68275" lon="1.66092">
        <ele>1750</ele>
        <time>2015-07-11T12:52:57Z</time>
      </trkpt>
      <trkpt lat="42.68272" lon="1.66099">
        <ele>1751</ele>
        <time>2015-07-11T12:53:10Z</time>
      </trkpt>
      <trkpt lat="42.68272" lon="1.66107">
        <ele>1753</ele>
        <time>2015-07-11T12:53:24Z</time>
      </trkpt>
      <trkpt lat="42.6827" lon="1.66116">
        <ele>1754</ele>
        <time>2015-07-11T12:53:36Z</time>
      </trkpt>
      <trkpt lat="42.68265" lon="1.66125">
        <ele>1754</ele>
        <time>2015-07-11T12:53:49Z</time>
      </trkpt>
      <trkpt lat="42.68261" lon="1.66133">
        <ele>1755</ele>
        <time>2015-07-11T12:54:01Z</time>
      </trkpt>
      <trkpt lat="42.68257" lon="1.66143">
        <ele>1755</ele>
        <time>2015-07-11T12:54:15Z</time>
      </trkpt>
      <trkpt lat="42.68252" lon="1.66147">
        <ele>1755</ele>
        <time>2015-07-11T12:54:23Z</time>
      </trkpt>
      <trkpt lat="42.68247" lon="1.66155">
        <ele>1755</ele>
        <time>2015-07-11T12:54:34Z</time>
      </trkpt>
      <trkpt lat="42.68244" lon="1.66168">
        <ele>1755</ele>
        <time>2015-07-11T12:54:48Z</time>
      </trkpt>
      <trkpt lat="42.68244" lon="1.66179">
        <ele>1756</ele>
        <time>2015-07-11T12:55:00Z</time>
      </trkpt>
      <trkpt lat="42.68243" lon="1.66182">
        <ele>1757</ele>
        <time>2015-07-11T12:55:02Z</time>
      </trkpt>
      <trkpt lat="42.6824" lon="1.66192">
        <ele>1756</ele>
        <time>2015-07-11T12:55:18Z</time>
      </trkpt>
      <trkpt lat="42.68236" lon="1.66202">
        <ele>1756</ele>
        <time>2015-07-11T12:55:30Z</time>
      </trkpt>
      <trkpt lat="42.68235" lon="1.66214">
        <ele>1758</ele>
        <time>2015-07-11T12:55:42Z</time>
      </trkpt>
      <trkpt lat="42.68233" lon="1.66219">
        <ele>1758</ele>
        <time>2015-07-11T12:55:52Z</time>
      </trkpt>
      <trkpt lat="42.68234" lon="1.66222">
        <ele>1759</ele>
        <time>2015-07-11T12:55:55Z</time>
      </trkpt>
      <trkpt lat="42.68233" lon="1.66225">
        <ele>1759</ele>
        <time>2015-07-11T12:55:58Z</time>
      </trkpt>
      <trkpt lat="42.68233" lon="1.66227">
        <ele>1758</ele>
        <time>2015-07-11T12:56:00Z</time>
      </trkpt>
      <trkpt lat="42.68232" lon="1.6623">
        <ele>1760</ele>
        <time>2015-07-11T12:56:02Z</time>
      </trkpt>
      <trkpt lat="42.68228" lon="1.66247">
        <ele>1759</ele>
        <time>2015-07-11T12:56:16Z</time>
      </trkpt>
      <trkpt lat="42.68227" lon="1.66251">
        <ele>1760</ele>
        <time>2015-07-11T12:56:19Z</time>
      </trkpt>
      <trkpt lat="42.68225" lon="1.66265">
        <ele>1760</ele>
        <time>2015-07-11T12:56:33Z</time>
      </trkpt>
      <trkpt lat="42.6822" lon="1.66279">
        <ele>1761</ele>
        <time>2015-07-11T12:56:47Z</time>
      </trkpt>
      <trkpt lat="42.68213" lon="1.66289">
        <ele>1762</ele>
        <time>2015-07-11T12:57:00Z</time>
      </trkpt>
      <trkpt lat="42.68207" lon="1.66301">
        <ele>1763</ele>
        <time>2015-07-11T12:57:13Z</time>
      </trkpt>
      <trkpt lat="42.68207" lon="1.66301">
        <ele>1763</ele>
        <time>2015-07-11T12:57:14Z</time>
      </trkpt>
      <trkpt lat="42.682" lon="1.66312">
        <ele>1764</ele>
        <time>2015-07-11T12:57:28Z</time>
      </trkpt>
      <trkpt lat="42.68201" lon="1.66323">
        <ele>1765</ele>
        <time>2015-07-11T12:57:41Z</time>
      </trkpt>
      <trkpt lat="42.682" lon="1.66331">
        <ele>1766</ele>
        <time>2015-07-11T12:57:52Z</time>
      </trkpt>
      <trkpt lat="42.68193" lon="1.66342">
        <ele>1766</ele>
        <time>2015-07-11T12:58:05Z</time>
      </trkpt>
      <trkpt lat="42.68188" lon="1.66348">
        <ele>1767</ele>
        <time>2015-07-11T12:58:15Z</time>
      </trkpt>
      <trkpt lat="42.68187" lon="1.66348">
        <ele>1767</ele>
        <time>2015-07-11T12:58:25Z</time>
      </trkpt>
      <trkpt lat="42.68187" lon="1.66346">
        <ele>1767</ele>
        <time>2015-07-11T12:58:47Z</time>
      </trkpt>
      <trkpt lat="42.68185" lon="1.66346">
        <ele>1767</ele>
        <time>2015-07-11T12:58:57Z</time>
      </trkpt>
      <trkpt lat="42.68187" lon="1.66344">
        <ele>1767</ele>
        <time>2015-07-11T12:59:24Z</time>
      </trkpt>
      <trkpt lat="42.68185" lon="1.66345">
        <ele>1767</ele>
        <time>2015-07-11T12:59:58Z</time>
      </trkpt>
      <trkpt lat="42.68187" lon="1.66346">
        <ele>1767</ele>
        <time>2015-07-11T13:00:26Z</time>
      </trkpt>
      <trkpt lat="42.68187" lon="1.66344">
        <ele>1767</ele>
        <time>2015-07-11T13:00:48Z</time>
      </trkpt>
      <trkpt lat="42.68186" lon="1.66343">
        <ele>1767</ele>
        <time>2015-07-11T13:01:11Z</time>
      </trkpt>
      <trkpt lat="42.68183" lon="1.66343">
        <ele>1768</ele>
        <time>2015-07-11T13:01:27Z</time>
      </trkpt>
      <trkpt lat="42.68183" lon="1.66344">
        <ele>1768</ele>
        <time>2015-07-11T13:01:40Z</time>
      </trkpt>
      <trkpt lat="42.68186" lon="1.66346">
        <ele>1768</ele>
        <time>2015-07-11T13:01:59Z</time>
      </trkpt>
      <trkpt lat="42.68186" lon="1.66345">
        <ele>1768</ele>
        <time>2015-07-11T13:02:13Z</time>
      </trkpt>
      <trkpt lat="42.68186" lon="1.66345">
        <ele>1768</ele>
        <time>2015-07-11T13:02:33Z</time>
      </trkpt>
      <trkpt lat="42.68185" lon="1.66344">
        <ele>1768</ele>
        <time>2015-07-11T13:02:51Z</time>
      </trkpt>
      <trkpt lat="42.68186" lon="1.66345">
        <ele>1767</ele>
        <time>2015-07-11T13:03:05Z</time>
      </trkpt>
      <trkpt lat="42.68186" lon="1.66345">
        <ele>1768</ele>
        <time>2015-07-11T13:03:20Z</time>
      </trkpt>
      <trkpt lat="42.68186" lon="1.66347">
        <ele>1768</ele>
        <time>2015-07-11T13:03:39Z</time>
      </trkpt>
      <trkpt lat="42.68187" lon="1.66345">
        <ele>1767</ele>
        <time>2015-07-11T13:04:01Z</time>
      </trkpt>
      <trkpt lat="42.68189" lon="1.66345">
        <ele>1768</ele>
        <time>2015-07-11T13:04:22Z</time>
      </trkpt>
      <trkpt lat="42.68188" lon="1.66347">
        <ele>1768</ele>
        <time>2015-07-11T13:04:45Z</time>
      </trkpt>
      <trkpt lat="42.68184" lon="1.66348">
        <ele>1768</ele>
        <time>2015-07-11T13:04:59Z</time>
      </trkpt>
      <trkpt lat="42.68179" lon="1.66355">
        <ele>1769</ele>
        <time>2015-07-11T13:05:11Z</time>
      </trkpt>
      <trkpt lat="42.68175" lon="1.66362">
        <ele>1770</ele>
        <time>2015-07-11T13:05:23Z</time>
      </trkpt>
      <trkpt lat="42.68168" lon="1.66367">
        <ele>1772</ele>
        <time>2015-07-11T13:05:36Z</time>
      </trkpt>
      <trkpt lat="42.68164" lon="1.66376">
        <ele>1773</ele>
        <time>2015-07-11T13:05:48Z</time>
      </trkpt>
      <trkpt lat="42.68159" lon="1.66386">
        <ele>1774</ele>
        <time>2015-07-11T13:06:03Z</time>
      </trkpt>
      <trkpt lat="42.68152" lon="1.66391">
        <ele>1776</ele>
        <time>2015-07-11T13:06:16Z</time>
      </trkpt>
      <trkpt lat="42.68149" lon="1.66395">
        <ele>1777</ele>
        <time>2015-07-11T13:06:28Z</time>
      </trkpt>
      <trkpt lat="42.68146" lon="1.664">
        <ele>1780</ele>
        <time>2015-07-11T13:06:40Z</time>
      </trkpt>
      <trkpt lat="42.68147" lon="1.66405">
        <ele>1780</ele>
        <time>2015-07-11T13:06:51Z</time>
      </trkpt>
      <trkpt lat="42.68148" lon="1.66412">
        <ele>1782</ele>
        <time>2015-07-11T13:07:03Z</time>
      </trkpt>
      <trkpt lat="42.68148" lon="1.66418">
        <ele>1783</ele>
        <time>2015-07-11T13:07:16Z</time>
      </trkpt>
      <trkpt lat="42.68146" lon="1.66424">
        <ele>1785</ele>
        <time>2015-07-11T13:07:27Z</time>
      </trkpt>
      <trkpt lat="42.68143" lon="1.66429">
        <ele>1787</ele>
        <time>2015-07-11T13:07:38Z</time>
      </trkpt>
      <trkpt lat="42.68136" lon="1.66433">
        <ele>1789</ele>
        <time>2015-07-11T13:07:49Z</time>
      </trkpt>
      <trkpt lat="42.68128" lon="1.66428">
        <ele>1789</ele>
        <time>2015-07-11T13:08:01Z</time>
      </trkpt>
      <trkpt lat="42.68122" lon="1.66424">
        <ele>1789</ele>
        <time>2015-07-11T13:08:13Z</time>
      </trkpt>
      <trkpt lat="42.68119" lon="1.66425">
        <ele>1790</ele>
        <time>2015-07-11T13:08:27Z</time>
      </trkpt>
      <trkpt lat="42.68116" lon="1.66435">
        <ele>1791</ele>
        <time>2015-07-11T13:08:40Z</time>
      </trkpt>
      <trkpt lat="42.68113" lon="1.66439">
        <ele>1790</ele>
        <time>2015-07-11T13:08:47Z</time>
      </trkpt>
      <trkpt lat="42.68102" lon="1.6645">
        <ele>1791</ele>
        <time>2015-07-11T13:09:02Z</time>
      </trkpt>
      <trkpt lat="42.68098" lon="1.66456">
        <ele>1792</ele>
        <time>2015-07-11T13:09:16Z</time>
      </trkpt>
      <trkpt lat="42.68094" lon="1.66468">
        <ele>1793</ele>
        <time>2015-07-11T13:09:30Z</time>
      </trkpt>
      <trkpt lat="42.68089" lon="1.66468">
        <ele>1794</ele>
        <time>2015-07-11T13:09:41Z</time>
      </trkpt>
      <trkpt lat="42.68087" lon="1.66466">
        <ele>1795</ele>
        <time>2015-07-11T13:09:52Z</time>
      </trkpt>
      <trkpt lat="42.68081" lon="1.66469">
        <ele>1797</ele>
        <time>2015-07-11T13:10:06Z</time>
      </trkpt>
      <trkpt lat="42.68077" lon="1.66474">
        <ele>1798</ele>
        <time>2015-07-11T13:10:19Z</time>
      </trkpt>
      <trkpt lat="42.68076" lon="1.6648">
        <ele>1799</ele>
        <time>2015-07-11T13:10:31Z</time>
      </trkpt>
      <trkpt lat="42.68069" lon="1.66481">
        <ele>1800</ele>
        <time>2015-07-11T13:10:44Z</time>
      </trkpt>
      <trkpt lat="42.68066" lon="1.66483">
        <ele>1802</ele>
        <time>2015-07-11T13:10:55Z</time>
      </trkpt>
      <trkpt lat="42.68062" lon="1.66487">
        <ele>1803</ele>
        <time>2015-07-11T13:11:07Z</time>
      </trkpt>
      <trkpt lat="42.68059" lon="1.66493">
        <ele>1805</ele>
        <time>2015-07-11T13:11:20Z</time>
      </trkpt>
      <trkpt lat="42.68054" lon="1.66498">
        <ele>1806</ele>
        <time>2015-07-11T13:11:32Z</time>
      </trkpt>
      <trkpt lat="42.68051" lon="1.66503">
        <ele>1806</ele>
        <time>2015-07-11T13:11:45Z</time>
      </trkpt>
      <trkpt lat="42.68046" lon="1.66503">
        <ele>1807</ele>
        <time>2015-07-11T13:12:05Z</time>
      </trkpt>
      <trkpt lat="42.68038" lon="1.66503">
        <ele>1805</ele>
        <time>2015-07-11T13:12:21Z</time>
      </trkpt>
      <trkpt lat="42.68032" lon="1.66504">
        <ele>1807</ele>
        <time>2015-07-11T13:12:34Z</time>
      </trkpt>
      <trkpt lat="42.68026" lon="1.66507">
        <ele>1808</ele>
        <time>2015-07-11T13:12:47Z</time>
      </trkpt>
      <trkpt lat="42.68025" lon="1.66507">
        <ele>1808</ele>
        <time>2015-07-11T13:12:48Z</time>
      </trkpt>
      <trkpt lat="42.68022" lon="1.66512">
        <ele>1808</ele>
        <time>2015-07-11T13:12:54Z</time>
      </trkpt>
      <trkpt lat="42.68018" lon="1.66515">
        <ele>1808</ele>
        <time>2015-07-11T13:13:01Z</time>
      </trkpt>
      <trkpt lat="42.68015" lon="1.66516">
        <ele>1808</ele>
        <time>2015-07-11T13:13:04Z</time>
      </trkpt>
      <trkpt lat="42.68009" lon="1.66525">
        <ele>1810</ele>
        <time>2015-07-11T13:13:18Z</time>
      </trkpt>
      <trkpt lat="42.68005" lon="1.66533">
        <ele>1810</ele>
        <time>2015-07-11T13:13:29Z</time>
      </trkpt>
      <trkpt lat="42.67998" lon="1.6654">
        <ele>1811</ele>
        <time>2015-07-11T13:13:42Z</time>
      </trkpt>
      <trkpt lat="42.67991" lon="1.66547">
        <ele>1811</ele>
        <time>2015-07-11T13:13:54Z</time>
      </trkpt>
      <trkpt lat="42.67985" lon="1.66552">
        <ele>1812</ele>
        <time>2015-07-11T13:14:05Z</time>
      </trkpt>
      <trkpt lat="42.67978" lon="1.66563">
        <ele>1813</ele>
        <time>2015-07-11T13:14:19Z</time>
      </trkpt>
      <trkpt lat="42.67969" lon="1.6657">
        <ele>1813</ele>
        <time>2015-07-11T13:14:32Z</time>
      </trkpt>
      <trkpt lat="42.67963" lon="1.66572">
        <ele>1814</ele>
        <time>2015-07-11T13:14:40Z</time>
      </trkpt>
      <trkpt lat="42.67956" lon="1.66578">
        <ele>1814</ele>
        <time>2015-07-11T13:14:54Z</time>
      </trkpt>
      <trkpt lat="42.67951" lon="1.66586">
        <ele>1815</ele>
        <time>2015-07-11T13:15:07Z</time>
      </trkpt>
      <trkpt lat="42.67947" lon="1.66597">
        <ele>1816</ele>
        <time>2015-07-11T13:15:19Z</time>
      </trkpt>
      <trkpt lat="42.67943" lon="1.66598">
        <ele>1817</ele>
        <time>2015-07-11T13:15:31Z</time>
      </trkpt>
      <trkpt lat="42.67933" lon="1.66605">
        <ele>1818</ele>
        <time>2015-07-11T13:15:45Z</time>
      </trkpt>
      <trkpt lat="42.6793" lon="1.66611">
        <ele>1819</ele>
        <time>2015-07-11T13:15:58Z</time>
      </trkpt>
      <trkpt lat="42.67926" lon="1.66613">
        <ele>1820</ele>
        <time>2015-07-11T13:16:08Z</time>
      </trkpt>
      <trkpt lat="42.67924" lon="1.66613">
        <ele>1821</ele>
        <time>2015-07-11T13:16:22Z</time>
      </trkpt>
      <trkpt lat="42.67918" lon="1.66614">
        <ele>1822</ele>
        <time>2015-07-11T13:16:34Z</time>
      </trkpt>
      <trkpt lat="42.67908" lon="1.66615">
        <ele>1823</ele>
        <time>2015-07-11T13:16:48Z</time>
      </trkpt>
      <trkpt lat="42.67906" lon="1.66624">
        <ele>1823</ele>
        <time>2015-07-11T13:17:01Z</time>
      </trkpt>
      <trkpt lat="42.67898" lon="1.6663">
        <ele>1826</ele>
        <time>2015-07-11T13:17:15Z</time>
      </trkpt>
      <trkpt lat="42.67893" lon="1.66634">
        <ele>1827</ele>
        <time>2015-07-11T13:17:27Z</time>
      </trkpt>
      <trkpt lat="42.67893" lon="1.66637">
        <ele>1827</ele>
        <time>2015-07-11T13:17:37Z</time>
      </trkpt>
      <trkpt lat="42.67889" lon="1.66643">
        <ele>1829</ele>
        <time>2015-07-11T13:17:49Z</time>
      </trkpt>
      <trkpt lat="42.67887" lon="1.66649">
        <ele>1829</ele>
        <time>2015-07-11T13:18:00Z</time>
      </trkpt>
      <trkpt lat="42.67884" lon="1.66655">
        <ele>1830</ele>
        <time>2015-07-11T13:18:12Z</time>
      </trkpt>
      <trkpt lat="42.67878" lon="1.66658">
        <ele>1831</ele>
        <time>2015-07-11T13:18:25Z</time>
      </trkpt>
      <trkpt lat="42.67873" lon="1.66665">
        <ele>1832</ele>
        <time>2015-07-11T13:18:38Z</time>
      </trkpt>
      <trkpt lat="42.67869" lon="1.66663">
        <ele>1831</ele>
        <time>2015-07-11T13:18:50Z</time>
      </trkpt>
      <trkpt lat="42.67864" lon="1.66652">
        <ele>1832</ele>
        <time>2015-07-11T13:19:03Z</time>
      </trkpt>
      <trkpt lat="42.67864" lon="1.66646">
        <ele>1833</ele>
        <time>2015-07-11T13:19:14Z</time>
      </trkpt>
      <trkpt lat="42.67857" lon="1.66645">
        <ele>1835</ele>
        <time>2015-07-11T13:19:28Z</time>
      </trkpt>
      <trkpt lat="42.67854" lon="1.66654">
        <ele>1836</ele>
        <time>2015-07-11T13:19:41Z</time>
      </trkpt>
      <trkpt lat="42.6785" lon="1.66659">
        <ele>1838</ele>
        <time>2015-07-11T13:19:53Z</time>
      </trkpt>
      <trkpt lat="42.67843" lon="1.6666">
        <ele>1840</ele>
        <time>2015-07-11T13:20:07Z</time>
      </trkpt>
      <trkpt lat="42.67835" lon="1.66659">
        <ele>1842</ele>
        <time>2015-07-11T13:20:24Z</time>
      </trkpt>
      <trkpt lat="42.67829" lon="1.66665">
        <ele>1843</ele>
        <time>2015-07-11T13:20:37Z</time>
      </trkpt>
      <trkpt lat="42.67826" lon="1.6667">
        <ele>1845</ele>
        <time>2015-07-11T13:20:52Z</time>
      </trkpt>
      <trkpt lat="42.67826" lon="1.66675">
        <ele>1846</ele>
        <time>2015-07-11T13:21:07Z</time>
      </trkpt>
      <trkpt lat="42.67824" lon="1.66681">
        <ele>1848</ele>
        <time>2015-07-11T13:21:21Z</time>
      </trkpt>
      <trkpt lat="42.67816" lon="1.66685">
        <ele>1849</ele>
        <time>2015-07-11T13:21:34Z</time>
      </trkpt>
      <trkpt lat="42.67813" lon="1.66686">
        <ele>1850</ele>
        <time>2015-07-11T13:21:46Z</time>
      </trkpt>
      <trkpt lat="42.67808" lon="1.6668">
        <ele>1851</ele>
        <time>2015-07-11T13:21:59Z</time>
      </trkpt>
      <trkpt lat="42.67802" lon="1.66683">
        <ele>1852</ele>
        <time>2015-07-11T13:22:12Z</time>
      </trkpt>
      <trkpt lat="42.67796" lon="1.66688">
        <ele>1853</ele>
        <time>2015-07-11T13:22:24Z</time>
      </trkpt>
      <trkpt lat="42.67793" lon="1.66694">
        <ele>1854</ele>
        <time>2015-07-11T13:22:35Z</time>
      </trkpt>
      <trkpt lat="42.67786" lon="1.66697">
        <ele>1855</ele>
        <time>2015-07-11T13:22:48Z</time>
      </trkpt>
      <trkpt lat="42.6778" lon="1.667">
        <ele>1856</ele>
        <time>2015-07-11T13:23:01Z</time>
      </trkpt>
      <trkpt lat="42.67773" lon="1.66694">
        <ele>1859</ele>
        <time>2015-07-11T13:23:15Z</time>
      </trkpt>
      <trkpt lat="42.67768" lon="1.66693">
        <ele>1859</ele>
        <time>2015-07-11T13:23:27Z</time>
      </trkpt>
      <trkpt lat="42.67764" lon="1.66689">
        <ele>1861</ele>
        <time>2015-07-11T13:23:40Z</time>
      </trkpt>
      <trkpt lat="42.67755" lon="1.66693">
        <ele>1862</ele>
        <time>2015-07-11T13:23:53Z</time>
      </trkpt>
      <trkpt lat="42.67745" lon="1.66699">
        <ele>1864</ele>
        <time>2015-07-11T13:24:07Z</time>
      </trkpt>
      <trkpt lat="42.67734" lon="1.66704">
        <ele>1864</ele>
        <time>2015-07-11T13:24:21Z</time>
      </trkpt>
      <trkpt lat="42.6773" lon="1.66704">
        <ele>1865</ele>
        <time>2015-07-11T13:24:26Z</time>
      </trkpt>
      <trkpt lat="42.67721" lon="1.66706">
        <ele>1865</ele>
        <time>2015-07-11T13:24:38Z</time>
      </trkpt>
      <trkpt lat="42.67713" lon="1.66702">
        <ele>1866</ele>
        <time>2015-07-11T13:24:52Z</time>
      </trkpt>
      <trkpt lat="42.67708" lon="1.66704">
        <ele>1867</ele>
        <time>2015-07-11T13:25:07Z</time>
      </trkpt>
      <trkpt lat="42.67699" lon="1.66711">
        <ele>1868</ele>
        <time>2015-07-11T13:25:20Z</time>
      </trkpt>
      <trkpt lat="42.67693" lon="1.66709">
        <ele>1870</ele>
        <time>2015-07-11T13:25:34Z</time>
      </trkpt>
      <trkpt lat="42.67691" lon="1.66709">
        <ele>1871</ele>
        <time>2015-07-11T13:25:42Z</time>
      </trkpt>
      <trkpt lat="42.67686" lon="1.66709">
        <ele>1874</ele>
        <time>2015-07-11T13:25:57Z</time>
      </trkpt>
      <trkpt lat="42.67683" lon="1.66716">
        <ele>1876</ele>
        <time>2015-07-11T13:26:10Z</time>
      </trkpt>
      <trkpt lat="42.6768" lon="1.6672">
        <ele>1877</ele>
        <time>2015-07-11T13:26:16Z</time>
      </trkpt>
      <trkpt lat="42.67672" lon="1.66727">
        <ele>1877</ele>
        <time>2015-07-11T13:26:29Z</time>
      </trkpt>
      <trkpt lat="42.67668" lon="1.66732">
        <ele>1879</ele>
        <time>2015-07-11T13:26:45Z</time>
      </trkpt>
      <trkpt lat="42.67668" lon="1.66728">
        <ele>1878</ele>
        <time>2015-07-11T13:27:12Z</time>
      </trkpt>
      <trkpt lat="42.67668" lon="1.66729">
        <ele>1878</ele>
        <time>2015-07-11T13:27:27Z</time>
      </trkpt>
      <trkpt lat="42.67665" lon="1.66734">
        <ele>1878</ele>
        <time>2015-07-11T13:27:48Z</time>
      </trkpt>
      <trkpt lat="42.67666" lon="1.66738">
        <ele>1878</ele>
        <time>2015-07-11T13:28:08Z</time>
      </trkpt>
      <trkpt lat="42.67659" lon="1.66739">
        <ele>1878</ele>
        <time>2015-07-11T13:28:21Z</time>
      </trkpt>
      <trkpt lat="42.67653" lon="1.6674">
        <ele>1879</ele>
        <time>2015-07-11T13:28:36Z</time>
      </trkpt>
      <trkpt lat="42.67653" lon="1.66738">
        <ele>1879</ele>
        <time>2015-07-11T13:28:53Z</time>
      </trkpt>
      <trkpt lat="42.67647" lon="1.66729">
        <ele>1878</ele>
        <time>2015-07-11T13:29:08Z</time>
      </trkpt>
      <trkpt lat="42.67651" lon="1.66735">
        <ele>1878</ele>
        <time>2015-07-11T13:29:22Z</time>
      </trkpt>
      <trkpt lat="42.6765" lon="1.66746">
        <ele>1880</ele>
        <time>2015-07-11T13:29:38Z</time>
      </trkpt>
      <trkpt lat="42.67649" lon="1.66748">
        <ele>1880</ele>
        <time>2015-07-11T13:29:51Z</time>
      </trkpt>
      <trkpt lat="42.67654" lon="1.66748">
        <ele>1882</ele>
        <time>2015-07-11T13:30:05Z</time>
      </trkpt>
      <trkpt lat="42.67656" lon="1.66749">
        <ele>1882</ele>
        <time>2015-07-11T13:30:07Z</time>
      </trkpt>
      <trkpt lat="42.67661" lon="1.6676">
        <ele>1883</ele>
        <time>2015-07-11T13:30:21Z</time>
      </trkpt>
      <trkpt lat="42.67666" lon="1.66766">
        <ele>1883</ele>
        <time>2015-07-11T13:30:33Z</time>
      </trkpt>
      <trkpt lat="42.67667" lon="1.66772">
        <ele>1885</ele>
        <time>2015-07-11T13:30:46Z</time>
      </trkpt>
      <trkpt lat="42.67668" lon="1.66779">
        <ele>1886</ele>
        <time>2015-07-11T13:30:57Z</time>
      </trkpt>
      <trkpt lat="42.67668" lon="1.66783">
        <ele>1887</ele>
        <time>2015-07-11T13:31:03Z</time>
      </trkpt>
      <trkpt lat="42.67672" lon="1.66791">
        <ele>1889</ele>
        <time>2015-07-11T13:31:15Z</time>
      </trkpt>
      <trkpt lat="42.67669" lon="1.66794">
        <ele>1888</ele>
        <time>2015-07-11T13:31:28Z</time>
      </trkpt>
      <trkpt lat="42.67665" lon="1.66801">
        <ele>1891</ele>
        <time>2015-07-11T13:31:45Z</time>
      </trkpt>
      <trkpt lat="42.67663" lon="1.6681">
        <ele>1892</ele>
        <time>2015-07-11T13:32:01Z</time>
      </trkpt>
      <trkpt lat="42.67662" lon="1.66818">
        <ele>1894</ele>
        <time>2015-07-11T13:32:13Z</time>
      </trkpt>
      <trkpt lat="42.67658" lon="1.66822">
        <ele>1895</ele>
        <time>2015-07-11T13:32:25Z</time>
      </trkpt>
      <trkpt lat="42.67653" lon="1.66824">
        <ele>1897</ele>
        <time>2015-07-11T13:32:39Z</time>
      </trkpt>
      <trkpt lat="42.67649" lon="1.66823">
        <ele>1897</ele>
        <time>2015-07-11T13:32:53Z</time>
      </trkpt>
      <trkpt lat="42.67647" lon="1.66831">
        <ele>1899</ele>
        <time>2015-07-11T13:33:08Z</time>
      </trkpt>
      <trkpt lat="42.67646" lon="1.66833">
        <ele>1900</ele>
        <time>2015-07-11T13:33:11Z</time>
      </trkpt>
      <trkpt lat="42.67639" lon="1.66839">
        <ele>1902</ele>
        <time>2015-07-11T13:33:24Z</time>
      </trkpt>
      <trkpt lat="42.67634" lon="1.66835">
        <ele>1903</ele>
        <time>2015-07-11T13:33:37Z</time>
      </trkpt>
      <trkpt lat="42.67633" lon="1.66844">
        <ele>1904</ele>
        <time>2015-07-11T13:33:50Z</time>
      </trkpt>
      <trkpt lat="42.67628" lon="1.66848">
        <ele>1905</ele>
        <time>2015-07-11T13:34:05Z</time>
      </trkpt>
      <trkpt lat="42.67628" lon="1.66852">
        <ele>1906</ele>
        <time>2015-07-11T13:34:17Z</time>
      </trkpt>
      <trkpt lat="42.67622" lon="1.66852">
        <ele>1907</ele>
        <time>2015-07-11T13:34:31Z</time>
      </trkpt>
      <trkpt lat="42.67621" lon="1.66852">
        <ele>1907</ele>
        <time>2015-07-11T13:34:33Z</time>
      </trkpt>
      <trkpt lat="42.67616" lon="1.66862">
        <ele>1910</ele>
        <time>2015-07-11T13:34:47Z</time>
      </trkpt>
      <trkpt lat="42.67611" lon="1.66865">
        <ele>1911</ele>
        <time>2015-07-11T13:35:01Z</time>
      </trkpt>
      <trkpt lat="42.67607" lon="1.66876">
        <ele>1912</ele>
        <time>2015-07-11T13:35:15Z</time>
      </trkpt>
      <trkpt lat="42.67602" lon="1.66872">
        <ele>1914</ele>
        <time>2015-07-11T13:35:27Z</time>
      </trkpt>
      <trkpt lat="42.676" lon="1.66873">
        <ele>1916</ele>
        <time>2015-07-11T13:35:39Z</time>
      </trkpt>
      <trkpt lat="42.67593" lon="1.66874">
        <ele>1917</ele>
        <time>2015-07-11T13:35:51Z</time>
      </trkpt>
      <trkpt lat="42.67588" lon="1.66869">
        <ele>1919</ele>
        <time>2015-07-11T13:36:05Z</time>
      </trkpt>
      <trkpt lat="42.67585" lon="1.66867">
        <ele>1920</ele>
        <time>2015-07-11T13:36:18Z</time>
      </trkpt>
      <trkpt lat="42.67583" lon="1.66872">
        <ele>1922</ele>
        <time>2015-07-11T13:36:30Z</time>
      </trkpt>
      <trkpt lat="42.67579" lon="1.66871">
        <ele>1923</ele>
        <time>2015-07-11T13:36:44Z</time>
      </trkpt>
      <trkpt lat="42.67575" lon="1.66868">
        <ele>1926</ele>
        <time>2015-07-11T13:36:58Z</time>
      </trkpt>
      <trkpt lat="42.67571" lon="1.66861">
        <ele>1927</ele>
        <time>2015-07-11T13:37:12Z</time>
      </trkpt>
      <trkpt lat="42.67569" lon="1.6686">
        <ele>1929</ele>
        <time>2015-07-11T13:37:25Z</time>
      </trkpt>
      <trkpt lat="42.67566" lon="1.66855">
        <ele>1931</ele>
        <time>2015-07-11T13:37:39Z</time>
      </trkpt>
      <trkpt lat="42.67562" lon="1.66855">
        <ele>1932</ele>
        <time>2015-07-11T13:37:52Z</time>
      </trkpt>
      <trkpt lat="42.67558" lon="1.66854">
        <ele>1934</ele>
        <time>2015-07-11T13:38:06Z</time>
      </trkpt>
      <trkpt lat="42.67558" lon="1.66846">
        <ele>1935</ele>
        <time>2015-07-11T13:38:20Z</time>
      </trkpt>
      <trkpt lat="42.67556" lon="1.66844">
        <ele>1936</ele>
        <time>2015-07-11T13:38:32Z</time>
      </trkpt>
      <trkpt lat="42.67553" lon="1.66846">
        <ele>1938</ele>
        <time>2015-07-11T13:38:45Z</time>
      </trkpt>
      <trkpt lat="42.6755" lon="1.66843">
        <ele>1940</ele>
        <time>2015-07-11T13:38:58Z</time>
      </trkpt>
      <trkpt lat="42.67546" lon="1.66839">
        <ele>1941</ele>
        <time>2015-07-11T13:39:10Z</time>
      </trkpt>
      <trkpt lat="42.67541" lon="1.66838">
        <ele>1942</ele>
        <time>2015-07-11T13:39:25Z</time>
      </trkpt>
      <trkpt lat="42.67541" lon="1.66839">
        <ele>1942</ele>
        <time>2015-07-11T13:39:53Z</time>
      </trkpt>
      <trkpt lat="42.6754" lon="1.66842">
        <ele>1942</ele>
        <time>2015-07-11T13:40:20Z</time>
      </trkpt>
      <trkpt lat="42.67538" lon="1.66838">
        <ele>1942</ele>
        <time>2015-07-11T13:40:27Z</time>
      </trkpt>
      <trkpt lat="42.67533" lon="1.66837">
        <ele>1942</ele>
        <time>2015-07-11T13:40:33Z</time>
      </trkpt>
      <trkpt lat="42.67527" lon="1.66832">
        <ele>1942</ele>
        <time>2015-07-11T13:40:45Z</time>
      </trkpt>
      <trkpt lat="42.67521" lon="1.66829">
        <ele>1943</ele>
        <time>2015-07-11T13:40:57Z</time>
      </trkpt>
      <trkpt lat="42.67514" lon="1.66826">
        <ele>1945</ele>
        <time>2015-07-11T13:41:10Z</time>
      </trkpt>
      <trkpt lat="42.67513" lon="1.66826">
        <ele>1945</ele>
        <time>2015-07-11T13:41:13Z</time>
      </trkpt>
      <trkpt lat="42.67509" lon="1.66826">
        <ele>1945</ele>
        <time>2015-07-11T13:41:20Z</time>
      </trkpt>
      <trkpt lat="42.67507" lon="1.66827">
        <ele>1946</ele>
        <time>2015-07-11T13:41:22Z</time>
      </trkpt>
      <trkpt lat="42.67499" lon="1.6682">
        <ele>1946</ele>
        <time>2015-07-11T13:41:37Z</time>
      </trkpt>
      <trkpt lat="42.67498" lon="1.66817">
        <ele>1946</ele>
        <time>2015-07-11T13:41:40Z</time>
      </trkpt>
      <trkpt lat="42.67489" lon="1.66816">
        <ele>1946</ele>
        <time>2015-07-11T13:41:54Z</time>
      </trkpt>
      <trkpt lat="42.67483" lon="1.66818">
        <ele>1946</ele>
        <time>2015-07-11T13:42:06Z</time>
      </trkpt>
      <trkpt lat="42.67475" lon="1.6682">
        <ele>1947</ele>
        <time>2015-07-11T13:42:17Z</time>
      </trkpt>
      <trkpt lat="42.67467" lon="1.66815">
        <ele>1949</ele>
        <time>2015-07-11T13:42:30Z</time>
      </trkpt>
      <trkpt lat="42.67459" lon="1.66811">
        <ele>1948</ele>
        <time>2015-07-11T13:42:42Z</time>
      </trkpt>
      <trkpt lat="42.67451" lon="1.66818">
        <ele>1949</ele>
        <time>2015-07-11T13:42:56Z</time>
      </trkpt>
      <trkpt lat="42.67447" lon="1.6682">
        <ele>1950</ele>
        <time>2015-07-11T13:43:02Z</time>
      </trkpt>
      <trkpt lat="42.67436" lon="1.66824">
        <ele>1951</ele>
        <time>2015-07-11T13:43:16Z</time>
      </trkpt>
      <trkpt lat="42.67429" lon="1.66831">
        <ele>1952</ele>
        <time>2015-07-11T13:43:30Z</time>
      </trkpt>
      <trkpt lat="42.67422" lon="1.66834">
        <ele>1954</ele>
        <time>2015-07-11T13:43:42Z</time>
      </trkpt>
      <trkpt lat="42.67421" lon="1.66833">
        <ele>1954</ele>
        <time>2015-07-11T13:43:55Z</time>
      </trkpt>
      <trkpt lat="42.6742" lon="1.66837">
        <ele>1954</ele>
        <time>2015-07-11T13:44:09Z</time>
      </trkpt>
      <trkpt lat="42.6742" lon="1.66849">
        <ele>1955</ele>
        <time>2015-07-11T13:44:24Z</time>
      </trkpt>
      <trkpt lat="42.67417" lon="1.66856">
        <ele>1957</ele>
        <time>2015-07-11T13:44:35Z</time>
      </trkpt>
      <trkpt lat="42.67415" lon="1.66859">
        <ele>1958</ele>
        <time>2015-07-11T13:44:40Z</time>
      </trkpt>
      <trkpt lat="42.67413" lon="1.66862">
        <ele>1959</ele>
        <time>2015-07-11T13:44:44Z</time>
      </trkpt>
      <trkpt lat="42.67412" lon="1.66868">
        <ele>1959</ele>
        <time>2015-07-11T13:44:49Z</time>
      </trkpt>
      <trkpt lat="42.67412" lon="1.66883">
        <ele>1959</ele>
        <time>2015-07-11T13:45:00Z</time>
      </trkpt>
      <trkpt lat="42.67409" lon="1.66887">
        <ele>1959</ele>
        <time>2015-07-11T13:45:04Z</time>
      </trkpt>
      <trkpt lat="42.67407" lon="1.66899">
        <ele>1959</ele>
        <time>2015-07-11T13:45:12Z</time>
      </trkpt>
      <trkpt lat="42.67404" lon="1.66911">
        <ele>1960</ele>
        <time>2015-07-11T13:45:24Z</time>
      </trkpt>
      <trkpt lat="42.67398" lon="1.66923">
        <ele>1960</ele>
        <time>2015-07-11T13:45:38Z</time>
      </trkpt>
      <trkpt lat="42.67396" lon="1.66926">
        <ele>1961</ele>
        <time>2015-07-11T13:45:43Z</time>
      </trkpt>
      <trkpt lat="42.67389" lon="1.66931">
        <ele>1960</ele>
        <time>2015-07-11T13:45:56Z</time>
      </trkpt>
      <trkpt lat="42.6739" lon="1.66934">
        <ele>1960</ele>
        <time>2015-07-11T13:46:13Z</time>
      </trkpt>
      <trkpt lat="42.67389" lon="1.66933">
        <ele>1960</ele>
        <time>2015-07-11T13:46:38Z</time>
      </trkpt>
      <trkpt lat="42.67388" lon="1.66936">
        <ele>1960</ele>
        <time>2015-07-11T13:46:54Z</time>
      </trkpt>
      <trkpt lat="42.67388" lon="1.6694">
        <ele>1960</ele>
        <time>2015-07-11T13:47:01Z</time>
      </trkpt>
      <trkpt lat="42.67378" lon="1.6695">
        <ele>1961</ele>
        <time>2015-07-11T13:47:15Z</time>
      </trkpt>
      <trkpt lat="42.67378" lon="1.66951">
        <ele>1961</ele>
        <time>2015-07-11T13:47:17Z</time>
      </trkpt>
      <trkpt lat="42.67374" lon="1.66958">
        <ele>1962</ele>
        <time>2015-07-11T13:47:29Z</time>
      </trkpt>
      <trkpt lat="42.67373" lon="1.66961">
        <ele>1962</ele>
        <time>2015-07-11T13:47:37Z</time>
      </trkpt>
      <trkpt lat="42.67372" lon="1.66971">
        <ele>1964</ele>
        <time>2015-07-11T13:47:50Z</time>
      </trkpt>
      <trkpt lat="42.67371" lon="1.66971">
        <ele>1965</ele>
        <time>2015-07-11T13:47:51Z</time>
      </trkpt>
      <trkpt lat="42.67364" lon="1.6698">
        <ele>1966</ele>
        <time>2015-07-11T13:48:05Z</time>
      </trkpt>
      <trkpt lat="42.67363" lon="1.66979">
        <ele>1966</ele>
        <time>2015-07-11T13:48:18Z</time>
      </trkpt>
      <trkpt lat="42.67367" lon="1.66983">
        <ele>1965</ele>
        <time>2015-07-11T13:48:35Z</time>
      </trkpt>
      <trkpt lat="42.67364" lon="1.66984">
        <ele>1965</ele>
        <time>2015-07-11T13:48:56Z</time>
      </trkpt>
      <trkpt lat="42.67361" lon="1.66982">
        <ele>1965</ele>
        <time>2015-07-11T13:49:09Z</time>
      </trkpt>
      <trkpt lat="42.67366" lon="1.66984">
        <ele>1965</ele>
        <time>2015-07-11T13:49:21Z</time>
      </trkpt>
      <trkpt lat="42.67367" lon="1.66984">
        <ele>1965</ele>
        <time>2015-07-11T13:49:41Z</time>
      </trkpt>
      <trkpt lat="42.67368" lon="1.66983">
        <ele>1966</ele>
        <time>2015-07-11T13:49:55Z</time>
      </trkpt>
      <trkpt lat="42.6737" lon="1.66984">
        <ele>1966</ele>
        <time>2015-07-11T13:50:23Z</time>
      </trkpt>
      <trkpt lat="42.67367" lon="1.66986">
        <ele>1966</ele>
        <time>2015-07-11T13:50:49Z</time>
      </trkpt>
      <trkpt lat="42.67366" lon="1.66986">
        <ele>1965</ele>
        <time>2015-07-11T13:51:07Z</time>
      </trkpt>
      <trkpt lat="42.67368" lon="1.66988">
        <ele>1965</ele>
        <time>2015-07-11T13:51:33Z</time>
      </trkpt>
      <trkpt lat="42.67368" lon="1.66984">
        <ele>1966</ele>
        <time>2015-07-11T13:52:02Z</time>
      </trkpt>
      <trkpt lat="42.67368" lon="1.66979">
        <ele>1966</ele>
        <time>2015-07-11T13:52:34Z</time>
      </trkpt>
      <trkpt lat="42.67365" lon="1.66982">
        <ele>1966</ele>
        <time>2015-07-11T13:52:51Z</time>
      </trkpt>
      <trkpt lat="42.67363" lon="1.66983">
        <ele>1966</ele>
        <time>2015-07-11T13:53:22Z</time>
      </trkpt>
      <trkpt lat="42.67364" lon="1.66982">
        <ele>1966</ele>
        <time>2015-07-11T13:53:42Z</time>
      </trkpt>
      <trkpt lat="42.67364" lon="1.66981">
        <ele>1966</ele>
        <time>2015-07-11T13:54:07Z</time>
      </trkpt>
      <trkpt lat="42.67359" lon="1.66978">
        <ele>1967</ele>
        <time>2015-07-11T13:54:28Z</time>
      </trkpt>
      <trkpt lat="42.67368" lon="1.66985">
        <ele>1967</ele>
        <time>2015-07-11T13:54:50Z</time>
      </trkpt>
      <trkpt lat="42.67368" lon="1.66976">
        <ele>1966</ele>
        <time>2015-07-11T13:55:05Z</time>
      </trkpt>
      <trkpt lat="42.67364" lon="1.66982">
        <ele>1967</ele>
        <time>2015-07-11T13:55:22Z</time>
      </trkpt>
      <trkpt lat="42.67367" lon="1.66977">
        <ele>1967</ele>
        <time>2015-07-11T13:55:37Z</time>
      </trkpt>
      <trkpt lat="42.67371" lon="1.66983">
        <ele>1967</ele>
        <time>2015-07-11T13:56:12Z</time>
      </trkpt>
      <trkpt lat="42.67371" lon="1.66985">
        <ele>1966</ele>
        <time>2015-07-11T13:56:41Z</time>
      </trkpt>
      <trkpt lat="42.67371" lon="1.66985">
        <ele>1967</ele>
        <time>2015-07-11T13:57:10Z</time>
      </trkpt>
      <trkpt lat="42.67366" lon="1.66986">
        <ele>1967</ele>
        <time>2015-07-11T13:57:44Z</time>
      </trkpt>
      <trkpt lat="42.67363" lon="1.66991">
        <ele>1967</ele>
        <time>2015-07-11T13:58:19Z</time>
      </trkpt>
      <trkpt lat="42.6736" lon="1.66991">
        <ele>1968</ele>
        <time>2015-07-11T13:58:48Z</time>
      </trkpt>
      <trkpt lat="42.67355" lon="1.66988">
        <ele>1968</ele>
        <time>2015-07-11T13:59:08Z</time>
      </trkpt>
      <trkpt lat="42.67352" lon="1.66989">
        <ele>1966</ele>
        <time>2015-07-11T13:59:23Z</time>
      </trkpt>
      <trkpt lat="42.67344" lon="1.66987">
        <ele>1966</ele>
        <time>2015-07-11T13:59:38Z</time>
      </trkpt>
      <trkpt lat="42.67331" lon="1.66989">
        <ele>1966</ele>
        <time>2015-07-11T13:59:54Z</time>
      </trkpt>
      <trkpt lat="42.67324" lon="1.66987">
        <ele>1965</ele>
        <time>2015-07-11T14:00:04Z</time>
      </trkpt>
      <trkpt lat="42.67323" lon="1.66987">
        <ele>1965</ele>
        <time>2015-07-11T14:00:05Z</time>
      </trkpt>
      <trkpt lat="42.67316" lon="1.66984">
        <ele>1964</ele>
        <time>2015-07-11T14:00:18Z</time>
      </trkpt>
      <trkpt lat="42.67309" lon="1.66985">
        <ele>1965</ele>
        <time>2015-07-11T14:00:32Z</time>
      </trkpt>
      <trkpt lat="42.67305" lon="1.66988">
        <ele>1965</ele>
        <time>2015-07-11T14:00:42Z</time>
      </trkpt>
      <trkpt lat="42.67294" lon="1.66987">
        <ele>1965</ele>
        <time>2015-07-11T14:00:54Z</time>
      </trkpt>
      <trkpt lat="42.67285" lon="1.66984">
        <ele>1966</ele>
        <time>2015-07-11T14:01:07Z</time>
      </trkpt>
      <trkpt lat="42.67275" lon="1.66982">
        <ele>1966</ele>
        <time>2015-07-11T14:01:19Z</time>
      </trkpt>
      <trkpt lat="42.67267" lon="1.66986">
        <ele>1966</ele>
        <time>2015-07-11T14:01:30Z</time>
      </trkpt>
      <trkpt lat="42.6726" lon="1.66997">
        <ele>1967</ele>
        <time>2015-07-11T14:01:42Z</time>
      </trkpt>
      <trkpt lat="42.67256" lon="1.67006">
        <ele>1967</ele>
        <time>2015-07-11T14:01:54Z</time>
      </trkpt>
      <trkpt lat="42.67255" lon="1.67012">
        <ele>1967</ele>
        <time>2015-07-11T14:02:06Z</time>
      </trkpt>
      <trkpt lat="42.6725" lon="1.67015">
        <ele>1968</ele>
        <time>2015-07-11T14:02:19Z</time>
      </trkpt>
      <trkpt lat="42.67251" lon="1.67019">
        <ele>1968</ele>
        <time>2015-07-11T14:02:25Z</time>
      </trkpt>
      <trkpt lat="42.67244" lon="1.67028">
        <ele>1968</ele>
        <time>2015-07-11T14:02:38Z</time>
      </trkpt>
      <trkpt lat="42.67236" lon="1.67033">
        <ele>1969</ele>
        <time>2015-07-11T14:02:52Z</time>
      </trkpt>
      <trkpt lat="42.67234" lon="1.67039">
        <ele>1969</ele>
        <time>2015-07-11T14:03:04Z</time>
      </trkpt>
      <trkpt lat="42.67233" lon="1.67041">
        <ele>1969</ele>
        <time>2015-07-11T14:03:06Z</time>
      </trkpt>
      <trkpt lat="42.67228" lon="1.6704">
        <ele>1969</ele>
        <time>2015-07-11T14:03:11Z</time>
      </trkpt>
      <trkpt lat="42.67213" lon="1.67044">
        <ele>1969</ele>
        <time>2015-07-11T14:03:28Z</time>
      </trkpt>
      <trkpt lat="42.67214" lon="1.67047">
        <ele>1970</ele>
        <time>2015-07-11T14:03:32Z</time>
      </trkpt>
      <trkpt lat="42.67207" lon="1.67055">
        <ele>1970</ele>
        <time>2015-07-11T14:03:47Z</time>
      </trkpt>
      <trkpt lat="42.67203" lon="1.67057">
        <ele>1970</ele>
        <time>2015-07-11T14:03:59Z</time>
      </trkpt>
      <trkpt lat="42.67201" lon="1.67067">
        <ele>1970</ele>
        <time>2015-07-11T14:04:12Z</time>
      </trkpt>
      <trkpt lat="42.67189" lon="1.67069">
        <ele>1973</ele>
        <time>2015-07-11T14:04:26Z</time>
      </trkpt>
      <trkpt lat="42.67188" lon="1.6707">
        <ele>1972</ele>
        <time>2015-07-11T14:04:27Z</time>
      </trkpt>
      <trkpt lat="42.67183" lon="1.67069">
        <ele>1972</ele>
        <time>2015-07-11T14:04:32Z</time>
      </trkpt>
      <trkpt lat="42.67178" lon="1.67072">
        <ele>1972</ele>
        <time>2015-07-11T14:04:38Z</time>
      </trkpt>
      <trkpt lat="42.67166" lon="1.67069">
        <ele>1972</ele>
        <time>2015-07-11T14:04:51Z</time>
      </trkpt>
      <trkpt lat="42.67163" lon="1.6707">
        <ele>1972</ele>
        <time>2015-07-11T14:05:03Z</time>
      </trkpt>
      <trkpt lat="42.67162" lon="1.67071">
        <ele>1972</ele>
        <time>2015-07-11T14:05:08Z</time>
      </trkpt>
      <trkpt lat="42.67152" lon="1.67067">
        <ele>1973</ele>
        <time>2015-07-11T14:05:22Z</time>
      </trkpt>
      <trkpt lat="42.67149" lon="1.67068">
        <ele>1974</ele>
        <time>2015-07-11T14:05:33Z</time>
      </trkpt>
      <trkpt lat="42.67143" lon="1.6707">
        <ele>1975</ele>
        <time>2015-07-11T14:05:45Z</time>
      </trkpt>
      <trkpt lat="42.67135" lon="1.67068">
        <ele>1976</ele>
        <time>2015-07-11T14:05:58Z</time>
      </trkpt>
      <trkpt lat="42.67129" lon="1.67064">
        <ele>1978</ele>
        <time>2015-07-11T14:06:11Z</time>
      </trkpt>
      <trkpt lat="42.67123" lon="1.67066">
        <ele>1979</ele>
        <time>2015-07-11T14:06:22Z</time>
      </trkpt>
      <trkpt lat="42.67119" lon="1.6706">
        <ele>1979</ele>
        <time>2015-07-11T14:06:33Z</time>
      </trkpt>
      <trkpt lat="42.67117" lon="1.67062">
        <ele>1980</ele>
        <time>2015-07-11T14:06:44Z</time>
      </trkpt>
      <trkpt lat="42.67111" lon="1.67069">
        <ele>1983</ele>
        <time>2015-07-11T14:06:59Z</time>
      </trkpt>
      <trkpt lat="42.67109" lon="1.67078">
        <ele>1983</ele>
        <time>2015-07-11T14:07:10Z</time>
      </trkpt>
      <trkpt lat="42.67104" lon="1.67082">
        <ele>1984</ele>
        <time>2015-07-11T14:07:20Z</time>
      </trkpt>
      <trkpt lat="42.67105" lon="1.67082">
        <ele>1984</ele>
        <time>2015-07-11T14:07:36Z</time>
      </trkpt>
      <trkpt lat="42.67104" lon="1.67083">
        <ele>1984</ele>
        <time>2015-07-11T14:07:41Z</time>
      </trkpt>
      <trkpt lat="42.671" lon="1.67095">
        <ele>1984</ele>
        <time>2015-07-11T14:07:56Z</time>
      </trkpt>
      <trkpt lat="42.671" lon="1.67098">
        <ele>1985</ele>
        <time>2015-07-11T14:08:00Z</time>
      </trkpt>
      <trkpt lat="42.67092" lon="1.67111">
        <ele>1983</ele>
        <time>2015-07-11T14:08:15Z</time>
      </trkpt>
      <trkpt lat="42.67081" lon="1.67123">
        <ele>1981</ele>
        <time>2015-07-11T14:08:31Z</time>
      </trkpt>
      <trkpt lat="42.67077" lon="1.67125">
        <ele>1981</ele>
        <time>2015-07-11T14:08:36Z</time>
      </trkpt>
      <trkpt lat="42.6707" lon="1.6713">
        <ele>1981</ele>
        <time>2015-07-11T14:08:49Z</time>
      </trkpt>
      <trkpt lat="42.67063" lon="1.67134">
        <ele>1981</ele>
        <time>2015-07-11T14:09:01Z</time>
      </trkpt>
      <trkpt lat="42.67062" lon="1.67134">
        <ele>1981</ele>
        <time>2015-07-11T14:09:02Z</time>
      </trkpt>
      <trkpt lat="42.67053" lon="1.67133">
        <ele>1981</ele>
        <time>2015-07-11T14:09:13Z</time>
      </trkpt>
      <trkpt lat="42.67037" lon="1.67136">
        <ele>1982</ele>
        <time>2015-07-11T14:09:28Z</time>
      </trkpt>
      <trkpt lat="42.67031" lon="1.67135">
        <ele>1982</ele>
        <time>2015-07-11T14:09:34Z</time>
      </trkpt>
      <trkpt lat="42.67019" lon="1.67144">
        <ele>1982</ele>
        <time>2015-07-11T14:09:49Z</time>
      </trkpt>
      <trkpt lat="42.67013" lon="1.67149">
        <ele>1981</ele>
        <time>2015-07-11T14:09:57Z</time>
      </trkpt>
      <trkpt lat="42.67004" lon="1.6716">
        <ele>1981</ele>
        <time>2015-07-11T14:10:11Z</time>
      </trkpt>
      <trkpt lat="42.66999" lon="1.67165">
        <ele>1981</ele>
        <time>2015-07-11T14:10:21Z</time>
      </trkpt>
      <trkpt lat="42.66994" lon="1.67172">
        <ele>1981</ele>
        <time>2015-07-11T14:10:32Z</time>
      </trkpt>
      <trkpt lat="42.66986" lon="1.67176">
        <ele>1981</ele>
        <time>2015-07-11T14:10:44Z</time>
      </trkpt>
      <trkpt lat="42.66974" lon="1.67173">
        <ele>1981</ele>
        <time>2015-07-11T14:10:57Z</time>
      </trkpt>
      <trkpt lat="42.66969" lon="1.67169">
        <ele>1981</ele>
        <time>2015-07-11T14:11:04Z</time>
      </trkpt>
      <trkpt lat="42.66965" lon="1.67164">
        <ele>1982</ele>
        <time>2015-07-11T14:11:11Z</time>
      </trkpt>
      <trkpt lat="42.66959" lon="1.67154">
        <ele>1981</ele>
        <time>2015-07-11T14:11:25Z</time>
      </trkpt>
      <trkpt lat="42.66958" lon="1.67154">
        <ele>1981</ele>
        <time>2015-07-11T14:11:27Z</time>
      </trkpt>
      <trkpt lat="42.66951" lon="1.67145">
        <ele>1982</ele>
        <time>2015-07-11T14:11:39Z</time>
      </trkpt>
      <trkpt lat="42.66939" lon="1.67144">
        <ele>1982</ele>
        <time>2015-07-11T14:11:53Z</time>
      </trkpt>
      <trkpt lat="42.66935" lon="1.67143">
        <ele>1982</ele>
        <time>2015-07-11T14:11:57Z</time>
      </trkpt>
      <trkpt lat="42.66921" lon="1.6714">
        <ele>1983</ele>
        <time>2015-07-11T14:12:12Z</time>
      </trkpt>
      <trkpt lat="42.66908" lon="1.67136">
        <ele>1984</ele>
        <time>2015-07-11T14:12:26Z</time>
      </trkpt>
      <trkpt lat="42.66899" lon="1.67129">
        <ele>1984</ele>
        <time>2015-07-11T14:12:40Z</time>
      </trkpt>
      <trkpt lat="42.66891" lon="1.67126">
        <ele>1984</ele>
        <time>2015-07-11T14:12:51Z</time>
      </trkpt>
      <trkpt lat="42.66884" lon="1.6713">
        <ele>1984</ele>
        <time>2015-07-11T14:13:05Z</time>
      </trkpt>
      <trkpt lat="42.66884" lon="1.67133">
        <ele>1985</ele>
        <time>2015-07-11T14:13:21Z</time>
      </trkpt>
      <trkpt lat="42.66874" lon="1.67138">
        <ele>1984</ele>
        <time>2015-07-11T14:13:36Z</time>
      </trkpt>
      <trkpt lat="42.66874" lon="1.67136">
        <ele>1984</ele>
        <time>2015-07-11T14:13:57Z</time>
      </trkpt>
      <trkpt lat="42.66864" lon="1.67134">
        <ele>1982</ele>
        <time>2015-07-11T14:14:08Z</time>
      </trkpt>
      <trkpt lat="42.66863" lon="1.67135">
        <ele>1982</ele>
        <time>2015-07-11T14:14:10Z</time>
      </trkpt>
      <trkpt lat="42.6686" lon="1.67136">
        <ele>1983</ele>
        <time>2015-07-11T14:14:13Z</time>
      </trkpt>
      <trkpt lat="42.66852" lon="1.67138">
        <ele>1983</ele>
        <time>2015-07-11T14:14:20Z</time>
      </trkpt>
      <trkpt lat="42.66841" lon="1.6714">
        <ele>1983</ele>
        <time>2015-07-11T14:14:35Z</time>
      </trkpt>
      <trkpt lat="42.6684" lon="1.67141">
        <ele>1983</ele>
        <time>2015-07-11T14:14:37Z</time>
      </trkpt>
      <trkpt lat="42.6683" lon="1.6714">
        <ele>1983</ele>
        <time>2015-07-11T14:14:46Z</time>
      </trkpt>
      <trkpt lat="42.66826" lon="1.67141">
        <ele>1983</ele>
        <time>2015-07-11T14:14:54Z</time>
      </trkpt>
      <trkpt lat="42.6682" lon="1.67136">
        <ele>1983</ele>
        <time>2015-07-11T14:15:00Z</time>
      </trkpt>
      <trkpt lat="42.66812" lon="1.6713">
        <ele>1984</ele>
        <time>2015-07-11T14:15:13Z</time>
      </trkpt>
      <trkpt lat="42.66807" lon="1.6713">
        <ele>1984</ele>
        <time>2015-07-11T14:15:24Z</time>
      </trkpt>
      <trkpt lat="42.66804" lon="1.67129">
        <ele>1984</ele>
        <time>2015-07-11T14:15:28Z</time>
      </trkpt>
      <trkpt lat="42.66796" lon="1.6713">
        <ele>1985</ele>
        <time>2015-07-11T14:15:37Z</time>
      </trkpt>
      <trkpt lat="42.66787" lon="1.67128">
        <ele>1985</ele>
        <time>2015-07-11T14:15:49Z</time>
      </trkpt>
      <trkpt lat="42.66782" lon="1.67126">
        <ele>1985</ele>
        <time>2015-07-11T14:15:59Z</time>
      </trkpt>
      <trkpt lat="42.66775" lon="1.67123">
        <ele>1985</ele>
        <time>2015-07-11T14:16:12Z</time>
      </trkpt>
      <trkpt lat="42.66766" lon="1.67122">
        <ele>1984</ele>
        <time>2015-07-11T14:16:27Z</time>
      </trkpt>
      <trkpt lat="42.6676" lon="1.6712">
        <ele>1986</ele>
        <time>2015-07-11T14:16:40Z</time>
      </trkpt>
      <trkpt lat="42.66753" lon="1.67116">
        <ele>1988</ele>
        <time>2015-07-11T14:16:52Z</time>
      </trkpt>
      <trkpt lat="42.66746" lon="1.67114">
        <ele>1990</ele>
        <time>2015-07-11T14:17:05Z</time>
      </trkpt>
      <trkpt lat="42.66742" lon="1.67113">
        <ele>1991</ele>
        <time>2015-07-11T14:17:20Z</time>
      </trkpt>
      <trkpt lat="42.66736" lon="1.67118">
        <ele>1994</ele>
        <time>2015-07-11T14:17:35Z</time>
      </trkpt>
      <trkpt lat="42.6673" lon="1.67115">
        <ele>1995</ele>
        <time>2015-07-11T14:17:48Z</time>
      </trkpt>
      <trkpt lat="42.66724" lon="1.67119">
        <ele>1997</ele>
        <time>2015-07-11T14:18:01Z</time>
      </trkpt>
      <trkpt lat="42.66718" lon="1.67117">
        <ele>1998</ele>
        <time>2015-07-11T14:18:11Z</time>
      </trkpt>
      <trkpt lat="42.66711" lon="1.67118">
        <ele>1998</ele>
        <time>2015-07-11T14:18:25Z</time>
      </trkpt>
      <trkpt lat="42.66709" lon="1.67121">
        <ele>1998</ele>
        <time>2015-07-11T14:18:29Z</time>
      </trkpt>
      <trkpt lat="42.66699" lon="1.67126">
        <ele>2000</ele>
        <time>2015-07-11T14:18:43Z</time>
      </trkpt>
      <trkpt lat="42.66693" lon="1.67126">
        <ele>2000</ele>
        <time>2015-07-11T14:18:50Z</time>
      </trkpt>
      <trkpt lat="42.6669" lon="1.67124">
        <ele>2000</ele>
        <time>2015-07-11T14:18:53Z</time>
      </trkpt>
      <trkpt lat="42.66677" lon="1.67116">
        <ele>2000</ele>
        <time>2015-07-11T14:19:08Z</time>
      </trkpt>
      <trkpt lat="42.6667" lon="1.6711">
        <ele>2002</ele>
        <time>2015-07-11T14:19:22Z</time>
      </trkpt>
      <trkpt lat="42.66663" lon="1.67104">
        <ele>2004</ele>
        <time>2015-07-11T14:19:37Z</time>
      </trkpt>
      <trkpt lat="42.66655" lon="1.671">
        <ele>2005</ele>
        <time>2015-07-11T14:19:50Z</time>
      </trkpt>
      <trkpt lat="42.66654" lon="1.67099">
        <ele>2005</ele>
        <time>2015-07-11T14:19:53Z</time>
      </trkpt>
      <trkpt lat="42.66643" lon="1.67099">
        <ele>2006</ele>
        <time>2015-07-11T14:20:08Z</time>
      </trkpt>
      <trkpt lat="42.66638" lon="1.67101">
        <ele>2007</ele>
        <time>2015-07-11T14:20:20Z</time>
      </trkpt>
      <trkpt lat="42.66632" lon="1.67097">
        <ele>2009</ele>
        <time>2015-07-11T14:20:32Z</time>
      </trkpt>
      <trkpt lat="42.66629" lon="1.67093">
        <ele>2011</ele>
        <time>2015-07-11T14:20:43Z</time>
      </trkpt>
      <trkpt lat="42.66625" lon="1.67092">
        <ele>2011</ele>
        <time>2015-07-11T14:20:49Z</time>
      </trkpt>
      <trkpt lat="42.66617" lon="1.67088">
        <ele>2012</ele>
        <time>2015-07-11T14:21:03Z</time>
      </trkpt>
      <trkpt lat="42.66609" lon="1.67088">
        <ele>2014</ele>
        <time>2015-07-11T14:21:16Z</time>
      </trkpt>
      <trkpt lat="42.66606" lon="1.67082">
        <ele>2015</ele>
        <time>2015-07-11T14:21:29Z</time>
      </trkpt>
      <trkpt lat="42.66602" lon="1.67079">
        <ele>2016</ele>
        <time>2015-07-11T14:21:40Z</time>
      </trkpt>
      <trkpt lat="42.66595" lon="1.67076">
        <ele>2017</ele>
        <time>2015-07-11T14:21:52Z</time>
      </trkpt>
      <trkpt lat="42.66589" lon="1.67073">
        <ele>2018</ele>
        <time>2015-07-11T14:22:06Z</time>
      </trkpt>
      <trkpt lat="42.6658" lon="1.67071">
        <ele>2020</ele>
        <time>2015-07-11T14:22:20Z</time>
      </trkpt>
      <trkpt lat="42.66571" lon="1.6707">
        <ele>2022</ele>
        <time>2015-07-11T14:22:33Z</time>
      </trkpt>
      <trkpt lat="42.66565" lon="1.67064">
        <ele>2024</ele>
        <time>2015-07-11T14:22:46Z</time>
      </trkpt>
      <trkpt lat="42.66561" lon="1.67061">
        <ele>2025</ele>
        <time>2015-07-11T14:23:00Z</time>
      </trkpt>
      <trkpt lat="42.66555" lon="1.67058">
        <ele>2026</ele>
        <time>2015-07-11T14:23:13Z</time>
      </trkpt>
      <trkpt lat="42.66549" lon="1.67056">
        <ele>2028</ele>
        <time>2015-07-11T14:23:25Z</time>
      </trkpt>
      <trkpt lat="42.66544" lon="1.67054">
        <ele>2029</ele>
        <time>2015-07-11T14:23:40Z</time>
      </trkpt>
      <trkpt lat="42.66539" lon="1.67052">
        <ele>2030</ele>
        <time>2015-07-11T14:23:53Z</time>
      </trkpt>
      <trkpt lat="42.66537" lon="1.67046">
        <ele>2031</ele>
        <time>2015-07-11T14:24:05Z</time>
      </trkpt>
      <trkpt lat="42.66533" lon="1.67047">
        <ele>2032</ele>
        <time>2015-07-11T14:24:11Z</time>
      </trkpt>
      <trkpt lat="42.66527" lon="1.67046">
        <ele>2032</ele>
        <time>2015-07-11T14:24:22Z</time>
      </trkpt>
      <trkpt lat="42.66521" lon="1.67048">
        <ele>2033</ele>
        <time>2015-07-11T14:24:34Z</time>
      </trkpt>
      <trkpt lat="42.66518" lon="1.67044">
        <ele>2035</ele>
        <time>2015-07-11T14:24:48Z</time>
      </trkpt>
      <trkpt lat="42.66515" lon="1.67041">
        <ele>2037</ele>
        <time>2015-07-11T14:25:00Z</time>
      </trkpt>
      <trkpt lat="42.66512" lon="1.67037">
        <ele>2039</ele>
        <time>2015-07-11T14:25:13Z</time>
      </trkpt>
      <trkpt lat="42.66507" lon="1.67037">
        <ele>2040</ele>
        <time>2015-07-11T14:25:30Z</time>
      </trkpt>
      <trkpt lat="42.66503" lon="1.67042">
        <ele>2040</ele>
        <time>2015-07-11T14:25:43Z</time>
      </trkpt>
      <trkpt lat="42.66502" lon="1.6704">
        <ele>2040</ele>
        <time>2015-07-11T14:26:00Z</time>
      </trkpt>
      <trkpt lat="42.66502" lon="1.67041">
        <ele>2040</ele>
        <time>2015-07-11T14:26:02Z</time>
      </trkpt>
      <trkpt lat="42.66491" lon="1.67045">
        <ele>2040</ele>
        <time>2015-07-11T14:26:19Z</time>
      </trkpt>
      <trkpt lat="42.66487" lon="1.67044">
        <ele>2041</ele>
        <time>2015-07-11T14:26:31Z</time>
      </trkpt>
      <trkpt lat="42.66485" lon="1.6704">
        <ele>2042</ele>
        <time>2015-07-11T14:26:43Z</time>
      </trkpt>
      <trkpt lat="42.66479" lon="1.67034">
        <ele>2045</ele>
        <time>2015-07-11T14:26:59Z</time>
      </trkpt>
      <trkpt lat="42.66472" lon="1.67029">
        <ele>2047</ele>
        <time>2015-07-11T14:27:12Z</time>
      </trkpt>
      <trkpt lat="42.66466" lon="1.67018">
        <ele>2049</ele>
        <time>2015-07-11T14:27:26Z</time>
      </trkpt>
      <trkpt lat="42.6646" lon="1.67014">
        <ele>2050</ele>
        <time>2015-07-11T14:27:41Z</time>
      </trkpt>
      <trkpt lat="42.6645" lon="1.67017">
        <ele>2050</ele>
        <time>2015-07-11T14:27:56Z</time>
      </trkpt>
      <trkpt lat="42.66447" lon="1.67011">
        <ele>2052</ele>
        <time>2015-07-11T14:28:08Z</time>
      </trkpt>
      <trkpt lat="42.66443" lon="1.67005">
        <ele>2053</ele>
        <time>2015-07-11T14:28:23Z</time>
      </trkpt>
      <trkpt lat="42.66446" lon="1.66997">
        <ele>2053</ele>
        <time>2015-07-11T14:28:36Z</time>
      </trkpt>
      <trkpt lat="42.66445" lon="1.66995">
        <ele>2053</ele>
        <time>2015-07-11T14:28:52Z</time>
      </trkpt>
      <trkpt lat="42.66439" lon="1.66993">
        <ele>2053</ele>
        <time>2015-07-11T14:29:04Z</time>
      </trkpt>
      <trkpt lat="42.66424" lon="1.66989">
        <ele>2053</ele>
        <time>2015-07-11T14:29:20Z</time>
      </trkpt>
      <trkpt lat="42.66416" lon="1.66979">
        <ele>2053</ele>
        <time>2015-07-11T14:29:33Z</time>
      </trkpt>
      <trkpt lat="42.66411" lon="1.66973">
        <ele>2054</ele>
        <time>2015-07-11T14:29:46Z</time>
      </trkpt>
      <trkpt lat="42.66411" lon="1.66966">
        <ele>2055</ele>
        <time>2015-07-11T14:30:00Z</time>
      </trkpt>
      <trkpt lat="42.66407" lon="1.66962">
        <ele>2057</ele>
        <time>2015-07-11T14:30:10Z</time>
      </trkpt>
      <trkpt lat="42.66399" lon="1.66956">
        <ele>2058</ele>
        <time>2015-07-11T14:30:24Z</time>
      </trkpt>
      <trkpt lat="42.664" lon="1.66957">
        <ele>2057</ele>
        <time>2015-07-11T14:30:38Z</time>
      </trkpt>
      <trkpt lat="42.66401" lon="1.66956">
        <ele>2058</ele>
        <time>2015-07-11T14:31:01Z</time>
      </trkpt>
      <trkpt lat="42.66394" lon="1.66953">
        <ele>2059</ele>
        <time>2015-07-11T14:31:16Z</time>
      </trkpt>
      <trkpt lat="42.66393" lon="1.66945">
        <ele>2060</ele>
        <time>2015-07-11T14:31:30Z</time>
      </trkpt>
      <trkpt lat="42.66391" lon="1.66942">
        <ele>2062</ele>
        <time>2015-07-11T14:31:43Z</time>
      </trkpt>
      <trkpt lat="42.66391" lon="1.66938">
        <ele>2064</ele>
        <time>2015-07-11T14:31:56Z</time>
      </trkpt>
      <trkpt lat="42.6639" lon="1.66935">
        <ele>2065</ele>
        <time>2015-07-11T14:32:11Z</time>
      </trkpt>
      <trkpt lat="42.66389" lon="1.66929">
        <ele>2066</ele>
        <time>2015-07-11T14:32:25Z</time>
      </trkpt>
      <trkpt lat="42.66386" lon="1.66924">
        <ele>2068</ele>
        <time>2015-07-11T14:32:38Z</time>
      </trkpt>
      <trkpt lat="42.66386" lon="1.66919">
        <ele>2069</ele>
        <time>2015-07-11T14:32:51Z</time>
      </trkpt>
      <trkpt lat="42.66391" lon="1.66918">
        <ele>2070</ele>
        <time>2015-07-11T14:33:03Z</time>
      </trkpt>
      <trkpt lat="42.66396" lon="1.66918">
        <ele>2072</ele>
        <time>2015-07-11T14:33:18Z</time>
      </trkpt>
      <trkpt lat="42.66399" lon="1.66919">
        <ele>2073</ele>
        <time>2015-07-11T14:33:29Z</time>
      </trkpt>
      <trkpt lat="42.66399" lon="1.66909">
        <ele>2073</ele>
        <time>2015-07-11T14:33:40Z</time>
      </trkpt>
      <trkpt lat="42.66398" lon="1.66901">
        <ele>2074</ele>
        <time>2015-07-11T14:33:51Z</time>
      </trkpt>
      <trkpt lat="42.66396" lon="1.66893">
        <ele>2075</ele>
        <time>2015-07-11T14:34:02Z</time>
      </trkpt>
      <trkpt lat="42.66397" lon="1.66885">
        <ele>2076</ele>
        <time>2015-07-11T14:34:14Z</time>
      </trkpt>
      <trkpt lat="42.66403" lon="1.66881">
        <ele>2077</ele>
        <time>2015-07-11T14:34:26Z</time>
      </trkpt>
      <trkpt lat="42.66406" lon="1.66877">
        <ele>2078</ele>
        <time>2015-07-11T14:34:37Z</time>
      </trkpt>
      <trkpt lat="42.66407" lon="1.66874">
        <ele>2078</ele>
        <time>2015-07-11T14:34:40Z</time>
      </trkpt>
      <trkpt lat="42.66413" lon="1.66862">
        <ele>2077</ele>
        <time>2015-07-11T14:34:55Z</time>
      </trkpt>
      <trkpt lat="42.6642" lon="1.66853">
        <ele>2078</ele>
        <time>2015-07-11T14:35:09Z</time>
      </trkpt>
      <trkpt lat="42.66424" lon="1.66842">
        <ele>2080</ele>
        <time>2015-07-11T14:35:24Z</time>
      </trkpt>
      <trkpt lat="42.66428" lon="1.66827">
        <ele>2080</ele>
        <time>2015-07-11T14:35:39Z</time>
      </trkpt>
      <trkpt lat="42.6643" lon="1.66816">
        <ele>2081</ele>
        <time>2015-07-11T14:35:52Z</time>
      </trkpt>
      <trkpt lat="42.66433" lon="1.66808">
        <ele>2082</ele>
        <time>2015-07-11T14:36:05Z</time>
      </trkpt>
      <trkpt lat="42.66436" lon="1.66805">
        <ele>2083</ele>
        <time>2015-07-11T14:36:21Z</time>
      </trkpt>
      <trkpt lat="42.66435" lon="1.66804">
        <ele>2083</ele>
        <time>2015-07-11T14:36:50Z</time>
      </trkpt>
      <trkpt lat="42.66437" lon="1.668">
        <ele>2083</ele>
        <time>2015-07-11T14:37:04Z</time>
      </trkpt>
      <trkpt lat="42.66436" lon="1.66798">
        <ele>2083</ele>
        <time>2015-07-11T14:37:14Z</time>
      </trkpt>
      <trkpt lat="42.66432" lon="1.66788">
        <ele>2081</ele>
        <time>2015-07-11T14:37:27Z</time>
      </trkpt>
      <trkpt lat="42.66427" lon="1.66781">
        <ele>2079</ele>
        <time>2015-07-11T14:37:36Z</time>
      </trkpt>
      <trkpt lat="42.66425" lon="1.66778">
        <ele>2079</ele>
        <time>2015-07-11T14:37:39Z</time>
      </trkpt>
      <trkpt lat="42.66419" lon="1.66767">
        <ele>2079</ele>
        <time>2015-07-11T14:37:51Z</time>
      </trkpt>
      <trkpt lat="42.66416" lon="1.6676">
        <ele>2078</ele>
        <time>2015-07-11T14:38:04Z</time>
      </trkpt>
      <trkpt lat="42.66408" lon="1.6675">
        <ele>2078</ele>
        <time>2015-07-11T14:38:18Z</time>
      </trkpt>
      <trkpt lat="42.664" lon="1.66744">
        <ele>2078</ele>
        <time>2015-07-11T14:38:31Z</time>
      </trkpt>
      <trkpt lat="42.66391" lon="1.66745">
        <ele>2078</ele>
        <time>2015-07-11T14:38:45Z</time>
      </trkpt>
      <trkpt lat="42.66391" lon="1.66732">
        <ele>2079</ele>
        <time>2015-07-11T14:38:57Z</time>
      </trkpt>
      <trkpt lat="42.66391" lon="1.66722">
        <ele>2079</ele>
        <time>2015-07-11T14:39:10Z</time>
      </trkpt>
      <trkpt lat="42.66383" lon="1.66717">
        <ele>2081</ele>
        <time>2015-07-11T14:39:23Z</time>
      </trkpt>
      <trkpt lat="42.6638" lon="1.66708">
        <ele>2081</ele>
        <time>2015-07-11T14:39:35Z</time>
      </trkpt>
      <trkpt lat="42.66377" lon="1.66705">
        <ele>2081</ele>
        <time>2015-07-11T14:39:48Z</time>
      </trkpt>
      <trkpt lat="42.66371" lon="1.667">
        <ele>2082</ele>
        <time>2015-07-11T14:40:02Z</time>
      </trkpt>
      <trkpt lat="42.66368" lon="1.66703">
        <ele>2079</ele>
        <time>2015-07-11T14:40:10Z</time>
      </trkpt>
      <trkpt lat="42.66367" lon="1.66703">
        <ele>2082</ele>
        <time>2015-07-11T14:40:11Z</time>
      </trkpt>
      <trkpt lat="42.66364" lon="1.66703">
        <ele>2082</ele>
        <time>2015-07-11T14:40:16Z</time>
      </trkpt>
      <trkpt lat="42.66362" lon="1.66704">
        <ele>2083</ele>
        <time>2015-07-11T14:40:21Z</time>
      </trkpt>
      <trkpt lat="42.6636" lon="1.66704">
        <ele>2083</ele>
        <time>2015-07-11T14:40:23Z</time>
      </trkpt>
      <trkpt lat="42.66356" lon="1.66702">
        <ele>2082</ele>
        <time>2015-07-11T14:40:26Z</time>
      </trkpt>
      <trkpt lat="42.66347" lon="1.66692">
        <ele>2083</ele>
        <time>2015-07-11T14:40:41Z</time>
      </trkpt>
      <trkpt lat="42.66346" lon="1.66689">
        <ele>2084</ele>
        <time>2015-07-11T14:40:43Z</time>
      </trkpt>
      <trkpt lat="42.66343" lon="1.66685">
        <ele>2085</ele>
        <time>2015-07-11T14:40:52Z</time>
      </trkpt>
      <trkpt lat="42.6634" lon="1.6669">
        <ele>2085</ele>
        <time>2015-07-11T14:40:58Z</time>
      </trkpt>
      <trkpt lat="42.66338" lon="1.66693">
        <ele>2086</ele>
        <time>2015-07-11T14:41:01Z</time>
      </trkpt>
      <trkpt lat="42.66327" lon="1.66686">
        <ele>2086</ele>
        <time>2015-07-11T14:41:15Z</time>
      </trkpt>
      <trkpt lat="42.66322" lon="1.66685">
        <ele>2085</ele>
        <time>2015-07-11T14:41:27Z</time>
      </trkpt>
      <trkpt lat="42.6632" lon="1.6668">
        <ele>2085</ele>
        <time>2015-07-11T14:41:45Z</time>
      </trkpt>
      <trkpt lat="42.66319" lon="1.66671">
        <ele>2085</ele>
        <time>2015-07-11T14:41:57Z</time>
      </trkpt>
      <trkpt lat="42.66319" lon="1.66659">
        <ele>2084</ele>
        <time>2015-07-11T14:42:11Z</time>
      </trkpt>
      <trkpt lat="42.66318" lon="1.66646">
        <ele>2085</ele>
        <time>2015-07-11T14:42:23Z</time>
      </trkpt>
      <trkpt lat="42.66321" lon="1.66637">
        <ele>2085</ele>
        <time>2015-07-11T14:42:36Z</time>
      </trkpt>
      <trkpt lat="42.6633" lon="1.66632">
        <ele>2087</ele>
        <time>2015-07-11T14:42:50Z</time>
      </trkpt>
      <trkpt lat="42.66336" lon="1.66624">
        <ele>2089</ele>
        <time>2015-07-11T14:43:08Z</time>
      </trkpt>
      <trkpt lat="42.66335" lon="1.66618">
        <ele>2090</ele>
        <time>2015-07-11T14:43:25Z</time>
      </trkpt>
      <trkpt lat="42.66337" lon="1.66615">
        <ele>2091</ele>
        <time>2015-07-11T14:43:38Z</time>
      </trkpt>
      <trkpt lat="42.6634" lon="1.66611">
        <ele>2092</ele>
        <time>2015-07-11T14:43:52Z</time>
      </trkpt>
      <trkpt lat="42.6634" lon="1.66606">
        <ele>2094</ele>
        <time>2015-07-11T14:44:05Z</time>
      </trkpt>
      <trkpt lat="42.66343" lon="1.66598">
        <ele>2096</ele>
        <time>2015-07-11T14:44:19Z</time>
      </trkpt>
      <trkpt lat="42.66346" lon="1.66593">
        <ele>2097</ele>
        <time>2015-07-11T14:44:31Z</time>
      </trkpt>
      <trkpt lat="42.66355" lon="1.66587">
        <ele>2098</ele>
        <time>2015-07-11T14:44:46Z</time>
      </trkpt>
      <trkpt lat="42.66356" lon="1.66583">
        <ele>2097</ele>
        <time>2015-07-11T14:44:59Z</time>
      </trkpt>
      <trkpt lat="42.66362" lon="1.66584">
        <ele>2099</ele>
        <time>2015-07-11T14:45:13Z</time>
      </trkpt>
      <trkpt lat="42.6636" lon="1.66576">
        <ele>2101</ele>
        <time>2015-07-11T14:45:28Z</time>
      </trkpt>
      <trkpt lat="42.66358" lon="1.66569">
        <ele>2101</ele>
        <time>2015-07-11T14:45:40Z</time>
      </trkpt>
      <trkpt lat="42.66356" lon="1.66564">
        <ele>2102</ele>
        <time>2015-07-11T14:45:53Z</time>
      </trkpt>
      <trkpt lat="42.66354" lon="1.66559">
        <ele>2103</ele>
        <time>2015-07-11T14:46:06Z</time>
      </trkpt>
      <trkpt lat="42.66358" lon="1.66557">
        <ele>2104</ele>
        <time>2015-07-11T14:46:20Z</time>
      </trkpt>
      <trkpt lat="42.66357" lon="1.66553">
        <ele>2106</ele>
        <time>2015-07-11T14:46:37Z</time>
      </trkpt>
      <trkpt lat="42.6636" lon="1.66554">
        <ele>2107</ele>
        <time>2015-07-11T14:46:53Z</time>
      </trkpt>
      <trkpt lat="42.6636" lon="1.66548">
        <ele>2108</ele>
        <time>2015-07-11T14:47:08Z</time>
      </trkpt>
      <trkpt lat="42.66361" lon="1.66544">
        <ele>2110</ele>
        <time>2015-07-11T14:47:19Z</time>
      </trkpt>
      <trkpt lat="42.66365" lon="1.66542">
        <ele>2113</ele>
        <time>2015-07-11T14:47:34Z</time>
      </trkpt>
      <trkpt lat="42.66368" lon="1.66539">
        <ele>2114</ele>
        <time>2015-07-11T14:47:47Z</time>
      </trkpt>
      <trkpt lat="42.66366" lon="1.6653">
        <ele>2116</ele>
        <time>2015-07-11T14:48:01Z</time>
      </trkpt>
      <trkpt lat="42.66365" lon="1.66521">
        <ele>2117</ele>
        <time>2015-07-11T14:48:15Z</time>
      </trkpt>
      <trkpt lat="42.66363" lon="1.66516">
        <ele>2118</ele>
        <time>2015-07-11T14:48:28Z</time>
      </trkpt>
      <trkpt lat="42.66367" lon="1.66509">
        <ele>2120</ele>
        <time>2015-07-11T14:48:45Z</time>
      </trkpt>
      <trkpt lat="42.66367" lon="1.66504">
        <ele>2122</ele>
        <time>2015-07-11T14:48:59Z</time>
      </trkpt>
      <trkpt lat="42.66366" lon="1.66497">
        <ele>2123</ele>
        <time>2015-07-11T14:49:12Z</time>
      </trkpt>
      <trkpt lat="42.66363" lon="1.66495">
        <ele>2123</ele>
        <time>2015-07-11T14:49:29Z</time>
      </trkpt>
      <trkpt lat="42.66358" lon="1.66498">
        <ele>2125</ele>
        <time>2015-07-11T14:49:42Z</time>
      </trkpt>
      <trkpt lat="42.66352" lon="1.66497">
        <ele>2126</ele>
        <time>2015-07-11T14:49:54Z</time>
      </trkpt>
      <trkpt lat="42.66347" lon="1.66494">
        <ele>2126</ele>
        <time>2015-07-11T14:50:05Z</time>
      </trkpt>
      <trkpt lat="42.66346" lon="1.66493">
        <ele>2126</ele>
        <time>2015-07-11T14:50:07Z</time>
      </trkpt>
      <trkpt lat="42.66339" lon="1.66487">
        <ele>2127</ele>
        <time>2015-07-11T14:50:23Z</time>
      </trkpt>
      <trkpt lat="42.66336" lon="1.66484">
        <ele>2128</ele>
        <time>2015-07-11T14:50:29Z</time>
      </trkpt>
      <trkpt lat="42.66326" lon="1.66481">
        <ele>2128</ele>
        <time>2015-07-11T14:50:43Z</time>
      </trkpt>
      <trkpt lat="42.66323" lon="1.66484">
        <ele>2128</ele>
        <time>2015-07-11T14:50:55Z</time>
      </trkpt>
      <trkpt lat="42.66317" lon="1.66488">
        <ele>2126</ele>
        <time>2015-07-11T14:51:07Z</time>
      </trkpt>
      <trkpt lat="42.66314" lon="1.66485">
        <ele>2127</ele>
        <time>2015-07-11T14:51:20Z</time>
      </trkpt>
      <trkpt lat="42.66312" lon="1.6648">
        <ele>2127</ele>
        <time>2015-07-11T14:51:37Z</time>
      </trkpt>
      <trkpt lat="42.66309" lon="1.66481">
        <ele>2128</ele>
        <time>2015-07-11T14:51:52Z</time>
      </trkpt>
      <trkpt lat="42.66307" lon="1.66476">
        <ele>2130</ele>
        <time>2015-07-11T14:52:06Z</time>
      </trkpt>
      <trkpt lat="42.66306" lon="1.66472">
        <ele>2130</ele>
        <time>2015-07-11T14:52:20Z</time>
      </trkpt>
      <trkpt lat="42.66305" lon="1.66471">
        <ele>2132</ele>
        <time>2015-07-11T14:52:34Z</time>
      </trkpt>
      <trkpt lat="42.66302" lon="1.66469">
        <ele>2134</ele>
        <time>2015-07-11T14:52:51Z</time>
      </trkpt>
      <trkpt lat="42.663" lon="1.66465">
        <ele>2135</ele>
        <time>2015-07-11T14:53:06Z</time>
      </trkpt>
      <trkpt lat="42.663" lon="1.66463">
        <ele>2136</ele>
        <time>2015-07-11T14:53:20Z</time>
      </trkpt>
      <trkpt lat="42.66299" lon="1.66462">
        <ele>2137</ele>
        <time>2015-07-11T14:53:35Z</time>
      </trkpt>
      <trkpt lat="42.66297" lon="1.6646">
        <ele>2138</ele>
        <time>2015-07-11T14:53:55Z</time>
      </trkpt>
      <trkpt lat="42.66298" lon="1.66461">
        <ele>2138</ele>
        <time>2015-07-11T14:54:02Z</time>
      </trkpt>
      <trkpt lat="42.66295" lon="1.66465">
        <ele>2138</ele>
        <time>2015-07-11T14:54:13Z</time>
      </trkpt>
      <trkpt lat="42.66292" lon="1.66457">
        <ele>2139</ele>
        <time>2015-07-11T14:54:26Z</time>
      </trkpt>
      <trkpt lat="42.66292" lon="1.66453">
        <ele>2140</ele>
        <time>2015-07-11T14:54:38Z</time>
      </trkpt>
      <trkpt lat="42.66291" lon="1.66448">
        <ele>2140</ele>
        <time>2015-07-11T14:54:53Z</time>
      </trkpt>
      <trkpt lat="42.66291" lon="1.66444">
        <ele>2141</ele>
        <time>2015-07-11T14:55:05Z</time>
      </trkpt>
      <trkpt lat="42.66291" lon="1.66441">
        <ele>2142</ele>
        <time>2015-07-11T14:55:18Z</time>
      </trkpt>
      <trkpt lat="42.66295" lon="1.66441">
        <ele>2142</ele>
        <time>2015-07-11T14:55:31Z</time>
      </trkpt>
      <trkpt lat="42.66295" lon="1.66437">
        <ele>2144</ele>
        <time>2015-07-11T14:55:45Z</time>
      </trkpt>
      <trkpt lat="42.66296" lon="1.66437">
        <ele>2144</ele>
        <time>2015-07-11T14:55:58Z</time>
      </trkpt>
      <trkpt lat="42.66295" lon="1.66428">
        <ele>2146</ele>
        <time>2015-07-11T14:56:13Z</time>
      </trkpt>
      <trkpt lat="42.66292" lon="1.66424">
        <ele>2147</ele>
        <time>2015-07-11T14:56:26Z</time>
      </trkpt>
      <trkpt lat="42.66291" lon="1.66424">
        <ele>2148</ele>
        <time>2015-07-11T14:56:40Z</time>
      </trkpt>
      <trkpt lat="42.66286" lon="1.6642">
        <ele>2148</ele>
        <time>2015-07-11T14:56:52Z</time>
      </trkpt>
      <trkpt lat="42.6628" lon="1.66418">
        <ele>2148</ele>
        <time>2015-07-11T14:57:03Z</time>
      </trkpt>
      <trkpt lat="42.66279" lon="1.66412">
        <ele>2149</ele>
        <time>2015-07-11T14:57:17Z</time>
      </trkpt>
      <trkpt lat="42.66277" lon="1.66404">
        <ele>2150</ele>
        <time>2015-07-11T14:57:30Z</time>
      </trkpt>
      <trkpt lat="42.66272" lon="1.66397">
        <ele>2152</ele>
        <time>2015-07-11T14:57:44Z</time>
      </trkpt>
      <trkpt lat="42.66267" lon="1.66393">
        <ele>2153</ele>
        <time>2015-07-11T14:57:58Z</time>
      </trkpt>
      <trkpt lat="42.66265" lon="1.66392">
        <ele>2152</ele>
        <time>2015-07-11T14:58:01Z</time>
      </trkpt>
      <trkpt lat="42.66255" lon="1.6639">
        <ele>2153</ele>
        <time>2015-07-11T14:58:14Z</time>
      </trkpt>
      <trkpt lat="42.66246" lon="1.66388">
        <ele>2155</ele>
        <time>2015-07-11T14:58:28Z</time>
      </trkpt>
      <trkpt lat="42.66236" lon="1.66379">
        <ele>2155</ele>
        <time>2015-07-11T14:58:43Z</time>
      </trkpt>
      <trkpt lat="42.66234" lon="1.66379">
        <ele>2155</ele>
        <time>2015-07-11T14:58:46Z</time>
      </trkpt>
      <trkpt lat="42.66227" lon="1.66384">
        <ele>2155</ele>
        <time>2015-07-11T14:58:59Z</time>
      </trkpt>
      <trkpt lat="42.66221" lon="1.66388">
        <ele>2155</ele>
        <time>2015-07-11T14:59:07Z</time>
      </trkpt>
      <trkpt lat="42.66213" lon="1.66383">
        <ele>2156</ele>
        <time>2015-07-11T14:59:20Z</time>
      </trkpt>
      <trkpt lat="42.66205" lon="1.66382">
        <ele>2157</ele>
        <time>2015-07-11T14:59:32Z</time>
      </trkpt>
      <trkpt lat="42.66196" lon="1.66383">
        <ele>2158</ele>
        <time>2015-07-11T14:59:46Z</time>
      </trkpt>
      <trkpt lat="42.66191" lon="1.66391">
        <ele>2160</ele>
        <time>2015-07-11T15:00:00Z</time>
      </trkpt>
      <trkpt lat="42.6618" lon="1.66385">
        <ele>2159</ele>
        <time>2015-07-11T15:00:12Z</time>
      </trkpt>
      <trkpt lat="42.66173" lon="1.66387">
        <ele>2160</ele>
        <time>2015-07-11T15:00:25Z</time>
      </trkpt>
      <trkpt lat="42.66167" lon="1.66388">
        <ele>2162</ele>
        <time>2015-07-11T15:00:38Z</time>
      </trkpt>
      <trkpt lat="42.6616" lon="1.66386">
        <ele>2163</ele>
        <time>2015-07-11T15:00:52Z</time>
      </trkpt>
      <trkpt lat="42.66154" lon="1.66388">
        <ele>2164</ele>
        <time>2015-07-11T15:00:58Z</time>
      </trkpt>
      <trkpt lat="42.66143" lon="1.66389">
        <ele>2163</ele>
        <time>2015-07-11T15:01:11Z</time>
      </trkpt>
      <trkpt lat="42.6614" lon="1.66389">
        <ele>2164</ele>
        <time>2015-07-11T15:01:15Z</time>
      </trkpt>
      <trkpt lat="42.6613" lon="1.66383">
        <ele>2165</ele>
        <time>2015-07-11T15:01:31Z</time>
      </trkpt>
      <trkpt lat="42.6612" lon="1.66382">
        <ele>2165</ele>
        <time>2015-07-11T15:01:43Z</time>
      </trkpt>
      <trkpt lat="42.6611" lon="1.66384">
        <ele>2166</ele>
        <time>2015-07-11T15:01:57Z</time>
      </trkpt>
      <trkpt lat="42.66106" lon="1.66384">
        <ele>2166</ele>
        <time>2015-07-11T15:02:03Z</time>
      </trkpt>
      <trkpt lat="42.66099" lon="1.66386">
        <ele>2166</ele>
        <time>2015-07-11T15:02:12Z</time>
      </trkpt>
      <trkpt lat="42.66088" lon="1.66382">
        <ele>2166</ele>
        <time>2015-07-11T15:02:28Z</time>
      </trkpt>
      <trkpt lat="42.6608" lon="1.66379">
        <ele>2168</ele>
        <time>2015-07-11T15:02:40Z</time>
      </trkpt>
      <trkpt lat="42.66072" lon="1.66381">
        <ele>2170</ele>
        <time>2015-07-11T15:02:56Z</time>
      </trkpt>
      <trkpt lat="42.66066" lon="1.66381">
        <ele>2170</ele>
        <time>2015-07-11T15:03:08Z</time>
      </trkpt>
      <trkpt lat="42.66061" lon="1.66383">
        <ele>2172</ele>
        <time>2015-07-11T15:03:22Z</time>
      </trkpt>
      <trkpt lat="42.66059" lon="1.66382">
        <ele>2174</ele>
        <time>2015-07-11T15:03:41Z</time>
      </trkpt>
      <trkpt lat="42.66058" lon="1.66389">
        <ele>2175</ele>
        <time>2015-07-11T15:03:54Z</time>
      </trkpt>
      <trkpt lat="42.66059" lon="1.66392">
        <ele>2177</ele>
        <time>2015-07-11T15:04:07Z</time>
      </trkpt>
      <trkpt lat="42.66059" lon="1.66398">
        <ele>2178</ele>
        <time>2015-07-11T15:04:21Z</time>
      </trkpt>
      <trkpt lat="42.66058" lon="1.66398">
        <ele>2178</ele>
        <time>2015-07-11T15:04:44Z</time>
      </trkpt>
      <trkpt lat="42.66062" lon="1.66396">
        <ele>2178</ele>
        <time>2015-07-11T15:05:07Z</time>
      </trkpt>
      <trkpt lat="42.66062" lon="1.66399">
        <ele>2180</ele>
        <time>2015-07-11T15:05:29Z</time>
      </trkpt>
      <trkpt lat="42.6606" lon="1.66403">
        <ele>2179</ele>
        <time>2015-07-11T15:05:50Z</time>
      </trkpt>
      <trkpt lat="42.66061" lon="1.66409">
        <ele>2181</ele>
        <time>2015-07-11T15:06:05Z</time>
      </trkpt>
      <trkpt lat="42.66057" lon="1.66412">
        <ele>2183</ele>
        <time>2015-07-11T15:06:20Z</time>
      </trkpt>
      <trkpt lat="42.66054" lon="1.66408">
        <ele>2184</ele>
        <time>2015-07-11T15:06:32Z</time>
      </trkpt>
      <trkpt lat="42.66052" lon="1.66405">
        <ele>2185</ele>
        <time>2015-07-11T15:06:47Z</time>
      </trkpt>
      <trkpt lat="42.6605" lon="1.66406">
        <ele>2186</ele>
        <time>2015-07-11T15:07:01Z</time>
      </trkpt>
      <trkpt lat="42.66044" lon="1.66406">
        <ele>2187</ele>
        <time>2015-07-11T15:07:16Z</time>
      </trkpt>
      <trkpt lat="42.66041" lon="1.6641">
        <ele>2188</ele>
        <time>2015-07-11T15:07:30Z</time>
      </trkpt>
      <trkpt lat="42.66038" lon="1.66411">
        <ele>2190</ele>
        <time>2015-07-11T15:07:43Z</time>
      </trkpt>
      <trkpt lat="42.66031" lon="1.66411">
        <ele>2190</ele>
        <time>2015-07-11T15:07:56Z</time>
      </trkpt>
      <trkpt lat="42.66021" lon="1.66414">
        <ele>2191</ele>
        <time>2015-07-11T15:08:12Z</time>
      </trkpt>
      <trkpt lat="42.66013" lon="1.66418">
        <ele>2193</ele>
        <time>2015-07-11T15:08:23Z</time>
      </trkpt>
      <trkpt lat="42.66004" lon="1.6642">
        <ele>2193</ele>
        <time>2015-07-11T15:08:36Z</time>
      </trkpt>
      <trkpt lat="42.66003" lon="1.66421">
        <ele>2193</ele>
        <time>2015-07-11T15:08:38Z</time>
      </trkpt>
      <trkpt lat="42.65987" lon="1.66421">
        <ele>2193</ele>
        <time>2015-07-11T15:08:55Z</time>
      </trkpt>
      <trkpt lat="42.65975" lon="1.66423">
        <ele>2194</ele>
        <time>2015-07-11T15:09:09Z</time>
      </trkpt>
      <trkpt lat="42.65968" lon="1.66421">
        <ele>2194</ele>
        <time>2015-07-11T15:09:22Z</time>
      </trkpt>
      <trkpt lat="42.65963" lon="1.66426">
        <ele>2194</ele>
        <time>2015-07-11T15:09:39Z</time>
      </trkpt>
      <trkpt lat="42.65953" lon="1.66424">
        <ele>2194</ele>
        <time>2015-07-11T15:09:53Z</time>
      </trkpt>
      <trkpt lat="42.65951" lon="1.66424">
        <ele>2194</ele>
        <time>2015-07-11T15:09:57Z</time>
      </trkpt>
      <trkpt lat="42.65944" lon="1.66424">
        <ele>2196</ele>
        <time>2015-07-11T15:10:10Z</time>
      </trkpt>
      <trkpt lat="42.65934" lon="1.66424">
        <ele>2197</ele>
        <time>2015-07-11T15:10:23Z</time>
      </trkpt>
      <trkpt lat="42.65928" lon="1.66424">
        <ele>2198</ele>
        <time>2015-07-11T15:10:34Z</time>
      </trkpt>
      <trkpt lat="42.65917" lon="1.66423">
        <ele>2199</ele>
        <time>2015-07-11T15:10:48Z</time>
      </trkpt>
      <trkpt lat="42.65911" lon="1.66424">
        <ele>2200</ele>
        <time>2015-07-11T15:11:01Z</time>
      </trkpt>
      <trkpt lat="42.65911" lon="1.66423">
        <ele>2200</ele>
        <time>2015-07-11T15:11:14Z</time>
      </trkpt>
      <trkpt lat="42.65909" lon="1.66427">
        <ele>2200</ele>
        <time>2015-07-11T15:11:26Z</time>
      </trkpt>
      <trkpt lat="42.65897" lon="1.66433">
        <ele>2201</ele>
        <time>2015-07-11T15:11:39Z</time>
      </trkpt>
      <trkpt lat="42.65888" lon="1.66439">
        <ele>2200</ele>
        <time>2015-07-11T15:11:49Z</time>
      </trkpt>
      <trkpt lat="42.65869" lon="1.66448">
        <ele>2198</ele>
        <time>2015-07-11T15:12:07Z</time>
      </trkpt>
      <trkpt lat="42.65867" lon="1.66449">
        <ele>2198</ele>
        <time>2015-07-11T15:12:09Z</time>
      </trkpt>
      <trkpt lat="42.65853" lon="1.66455">
        <ele>2198</ele>
        <time>2015-07-11T15:12:22Z</time>
      </trkpt>
      <trkpt lat="42.65845" lon="1.66456">
        <ele>2198</ele>
        <time>2015-07-11T15:12:28Z</time>
      </trkpt>
      <trkpt lat="42.65838" lon="1.66455">
        <ele>2198</ele>
        <time>2015-07-11T15:12:35Z</time>
      </trkpt>
      <trkpt lat="42.6583" lon="1.6645">
        <ele>2199</ele>
        <time>2015-07-11T15:12:43Z</time>
      </trkpt>
      <trkpt lat="42.65829" lon="1.6645">
        <ele>2198</ele>
        <time>2015-07-11T15:12:45Z</time>
      </trkpt>
      <trkpt lat="42.6582" lon="1.66443">
        <ele>2199</ele>
        <time>2015-07-11T15:12:59Z</time>
      </trkpt>
      <trkpt lat="42.65813" lon="1.66437">
        <ele>2201</ele>
        <time>2015-07-11T15:13:12Z</time>
      </trkpt>
      <trkpt lat="42.6581" lon="1.66434">
        <ele>2202</ele>
        <time>2015-07-11T15:13:28Z</time>
      </trkpt>
      <trkpt lat="42.65807" lon="1.66431">
        <ele>2203</ele>
        <time>2015-07-11T15:13:43Z</time>
      </trkpt>
      <trkpt lat="42.65803" lon="1.66432">
        <ele>2205</ele>
        <time>2015-07-11T15:13:56Z</time>
      </trkpt>
      <trkpt lat="42.658" lon="1.66437">
        <ele>2206</ele>
        <time>2015-07-11T15:14:11Z</time>
      </trkpt>
      <trkpt lat="42.658" lon="1.66434">
        <ele>2207</ele>
        <time>2015-07-11T15:14:28Z</time>
      </trkpt>
      <trkpt lat="42.65798" lon="1.66438">
        <ele>2208</ele>
        <time>2015-07-11T15:14:43Z</time>
      </trkpt>
      <trkpt lat="42.65799" lon="1.66433">
        <ele>2208</ele>
        <time>2015-07-11T15:14:54Z</time>
      </trkpt>
      <trkpt lat="42.658" lon="1.66436">
        <ele>2209</ele>
        <time>2015-07-11T15:15:14Z</time>
      </trkpt>
      <trkpt lat="42.65799" lon="1.66439">
        <ele>2209</ele>
        <time>2015-07-11T15:15:31Z</time>
      </trkpt>
      <trkpt lat="42.65792" lon="1.66439">
        <ele>2210</ele>
        <time>2015-07-11T15:15:42Z</time>
      </trkpt>
      <trkpt lat="42.65787" lon="1.6644">
        <ele>2212</ele>
        <time>2015-07-11T15:15:55Z</time>
      </trkpt>
      <trkpt lat="42.65779" lon="1.66444">
        <ele>2212</ele>
        <time>2015-07-11T15:16:08Z</time>
      </trkpt>
      <trkpt lat="42.65772" lon="1.66443">
        <ele>2214</ele>
        <time>2015-07-11T15:16:20Z</time>
      </trkpt>
      <trkpt lat="42.65764" lon="1.6644">
        <ele>2215</ele>
        <time>2015-07-11T15:16:32Z</time>
      </trkpt>
      <trkpt lat="42.65758" lon="1.66433">
        <ele>2215</ele>
        <time>2015-07-11T15:16:46Z</time>
      </trkpt>
      <trkpt lat="42.65749" lon="1.66429">
        <ele>2217</ele>
        <time>2015-07-11T15:17:01Z</time>
      </trkpt>
      <trkpt lat="42.6575" lon="1.6643">
        <ele>2217</ele>
        <time>2015-07-11T15:17:18Z</time>
      </trkpt>
      <trkpt lat="42.65751" lon="1.66429">
        <ele>2218</ele>
        <time>2015-07-11T15:17:29Z</time>
      </trkpt>
      <trkpt lat="42.65752" lon="1.6643">
        <ele>2218</ele>
        <time>2015-07-11T15:17:53Z</time>
      </trkpt>
      <trkpt lat="42.65747" lon="1.66426">
        <ele>2219</ele>
        <time>2015-07-11T15:18:12Z</time>
      </trkpt>
      <trkpt lat="42.65742" lon="1.66423">
        <ele>2220</ele>
        <time>2015-07-11T15:18:25Z</time>
      </trkpt>
      <trkpt lat="42.65737" lon="1.6642">
        <ele>2222</ele>
        <time>2015-07-11T15:18:40Z</time>
      </trkpt>
      <trkpt lat="42.65733" lon="1.66422">
        <ele>2221</ele>
        <time>2015-07-11T15:18:52Z</time>
      </trkpt>
      <trkpt lat="42.65729" lon="1.66422">
        <ele>2223</ele>
        <time>2015-07-11T15:19:05Z</time>
      </trkpt>
      <trkpt lat="42.65728" lon="1.66419">
        <ele>2224</ele>
        <time>2015-07-11T15:19:20Z</time>
      </trkpt>
      <trkpt lat="42.65723" lon="1.66418">
        <ele>2225</ele>
        <time>2015-07-11T15:19:35Z</time>
      </trkpt>
      <trkpt lat="42.65719" lon="1.66417">
        <ele>2226</ele>
        <time>2015-07-11T15:19:49Z</time>
      </trkpt>
      <trkpt lat="42.65715" lon="1.66414">
        <ele>2227</ele>
        <time>2015-07-11T15:20:02Z</time>
      </trkpt>
      <trkpt lat="42.65713" lon="1.66418">
        <ele>2227</ele>
        <time>2015-07-11T15:20:18Z</time>
      </trkpt>
      <trkpt lat="42.65709" lon="1.66416">
        <ele>2229</ele>
        <time>2015-07-11T15:20:31Z</time>
      </trkpt>
      <trkpt lat="42.65705" lon="1.66416">
        <ele>2229</ele>
        <time>2015-07-11T15:20:43Z</time>
      </trkpt>
      <trkpt lat="42.65703" lon="1.66418">
        <ele>2228</ele>
        <time>2015-07-11T15:20:56Z</time>
      </trkpt>
      <trkpt lat="42.65698" lon="1.66415">
        <ele>2230</ele>
        <time>2015-07-11T15:21:08Z</time>
      </trkpt>
      <trkpt lat="42.65692" lon="1.66415">
        <ele>2231</ele>
        <time>2015-07-11T15:21:21Z</time>
      </trkpt>
      <trkpt lat="42.65691" lon="1.66414">
        <ele>2233</ele>
        <time>2015-07-11T15:21:41Z</time>
      </trkpt>
      <trkpt lat="42.65687" lon="1.66411">
        <ele>2233</ele>
        <time>2015-07-11T15:21:56Z</time>
      </trkpt>
      <trkpt lat="42.65684" lon="1.66411">
        <ele>2234</ele>
        <time>2015-07-11T15:22:15Z</time>
      </trkpt>
      <trkpt lat="42.65682" lon="1.6641">
        <ele>2234</ele>
        <time>2015-07-11T15:22:27Z</time>
      </trkpt>
      <trkpt lat="42.6568" lon="1.66409">
        <ele>2235</ele>
        <time>2015-07-11T15:22:48Z</time>
      </trkpt>
      <trkpt lat="42.65679" lon="1.66408">
        <ele>2235</ele>
        <time>2015-07-11T15:22:50Z</time>
      </trkpt>
      <trkpt lat="42.65676" lon="1.66408">
        <ele>2236</ele>
        <time>2015-07-11T15:23:02Z</time>
      </trkpt>
      <trkpt lat="42.65673" lon="1.66404">
        <ele>2238</ele>
        <time>2015-07-11T15:23:14Z</time>
      </trkpt>
      <trkpt lat="42.65671" lon="1.66407">
        <ele>2238</ele>
        <time>2015-07-11T15:23:26Z</time>
      </trkpt>
      <trkpt lat="42.65668" lon="1.66407">
        <ele>2239</ele>
        <time>2015-07-11T15:23:39Z</time>
      </trkpt>
      <trkpt lat="42.65668" lon="1.66404">
        <ele>2239</ele>
        <time>2015-07-11T15:23:52Z</time>
      </trkpt>
      <trkpt lat="42.65663" lon="1.66403">
        <ele>2239</ele>
        <time>2015-07-11T15:24:05Z</time>
      </trkpt>
      <trkpt lat="42.6566" lon="1.66401">
        <ele>2240</ele>
        <time>2015-07-11T15:24:15Z</time>
      </trkpt>
      <trkpt lat="42.65659" lon="1.66401">
        <ele>2241</ele>
        <time>2015-07-11T15:24:29Z</time>
      </trkpt>
      <trkpt lat="42.65657" lon="1.66402">
        <ele>2240</ele>
        <time>2015-07-11T15:24:51Z</time>
      </trkpt>
      <trkpt lat="42.65653" lon="1.66402">
        <ele>2242</ele>
        <time>2015-07-11T15:25:06Z</time>
      </trkpt>
      <trkpt lat="42.65651" lon="1.66399">
        <ele>2242</ele>
        <time>2015-07-11T15:25:19Z</time>
      </trkpt>
      <trkpt lat="42.65648" lon="1.66397">
        <ele>2244</ele>
        <time>2015-07-11T15:25:28Z</time>
      </trkpt>
      <trkpt lat="42.65645" lon="1.66396">
        <ele>2244</ele>
        <time>2015-07-11T15:25:39Z</time>
      </trkpt>
      <trkpt lat="42.65645" lon="1.66392">
        <ele>2245</ele>
        <time>2015-07-11T15:25:55Z</time>
      </trkpt>
      <trkpt lat="42.65644" lon="1.66392">
        <ele>2245</ele>
        <time>2015-07-11T15:26:10Z</time>
      </trkpt>
      <trkpt lat="42.6564" lon="1.66388">
        <ele>2246</ele>
        <time>2015-07-11T15:26:24Z</time>
      </trkpt>
      <trkpt lat="42.65639" lon="1.66385">
        <ele>2246</ele>
        <time>2015-07-11T15:26:41Z</time>
      </trkpt>
      <trkpt lat="42.65638" lon="1.66385">
        <ele>2248</ele>
        <time>2015-07-11T15:26:49Z</time>
      </trkpt>
      <trkpt lat="42.65637" lon="1.66382">
        <ele>2248</ele>
        <time>2015-07-11T15:27:03Z</time>
      </trkpt>
      <trkpt lat="42.65637" lon="1.66378">
        <ele>2248</ele>
        <time>2015-07-11T15:27:17Z</time>
      </trkpt>
      <trkpt lat="42.65635" lon="1.66375">
        <ele>2249</ele>
        <time>2015-07-11T15:27:32Z</time>
      </trkpt>
      <trkpt lat="42.65634" lon="1.66376">
        <ele>2250</ele>
        <time>2015-07-11T15:27:51Z</time>
      </trkpt>
      <trkpt lat="42.65632" lon="1.66373">
        <ele>2250</ele>
        <time>2015-07-11T15:28:07Z</time>
      </trkpt>
      <trkpt lat="42.65634" lon="1.66366">
        <ele>2252</ele>
        <time>2015-07-11T15:28:23Z</time>
      </trkpt>
      <trkpt lat="42.65632" lon="1.66366">
        <ele>2252</ele>
        <time>2015-07-11T15:28:39Z</time>
      </trkpt>
      <trkpt lat="42.65629" lon="1.66366">
        <ele>2253</ele>
        <time>2015-07-11T15:28:53Z</time>
      </trkpt>
      <trkpt lat="42.65626" lon="1.66365">
        <ele>2255</ele>
        <time>2015-07-11T15:29:09Z</time>
      </trkpt>
      <trkpt lat="42.65624" lon="1.66361">
        <ele>2256</ele>
        <time>2015-07-11T15:29:23Z</time>
      </trkpt>
      <trkpt lat="42.65617" lon="1.66361">
        <ele>2257</ele>
        <time>2015-07-11T15:29:34Z</time>
      </trkpt>
      <trkpt lat="42.65609" lon="1.66363">
        <ele>2257</ele>
        <time>2015-07-11T15:29:46Z</time>
      </trkpt>
      <trkpt lat="42.65608" lon="1.66366">
        <ele>2257</ele>
        <time>2015-07-11T15:29:51Z</time>
      </trkpt>
      <trkpt lat="42.65604" lon="1.66367">
        <ele>2257</ele>
        <time>2015-07-11T15:30:05Z</time>
      </trkpt>
      <trkpt lat="42.65604" lon="1.66364">
        <ele>2256</ele>
        <time>2015-07-11T15:30:25Z</time>
      </trkpt>
      <trkpt lat="42.65603" lon="1.66363">
        <ele>2257</ele>
        <time>2015-07-11T15:31:01Z</time>
      </trkpt>
      <trkpt lat="42.65605" lon="1.66364">
        <ele>2257</ele>
        <time>2015-07-11T15:31:32Z</time>
      </trkpt>
      <trkpt lat="42.65605" lon="1.66363">
        <ele>2256</ele>
        <time>2015-07-11T15:32:08Z</time>
      </trkpt>
      <trkpt lat="42.65605" lon="1.66363">
        <ele>2257</ele>
        <time>2015-07-11T15:32:45Z</time>
      </trkpt>
      <trkpt lat="42.65607" lon="1.66364">
        <ele>2257</ele>
        <time>2015-07-11T15:33:23Z</time>
      </trkpt>
      <trkpt lat="42.65605" lon="1.66364">
        <ele>2257</ele>
        <time>2015-07-11T15:34:08Z</time>
      </trkpt>
      <trkpt lat="42.65606" lon="1.66364">
        <ele>2258</ele>
        <time>2015-07-11T15:34:48Z</time>
      </trkpt>
      <trkpt lat="42.65606" lon="1.66366">
        <ele>2258</ele>
        <time>2015-07-11T15:35:22Z</time>
      </trkpt>
      <trkpt lat="42.65606" lon="1.66365">
        <ele>2257</ele>
        <time>2015-07-11T15:35:52Z</time>
      </trkpt>
      <trkpt lat="42.65605" lon="1.66365">
        <ele>2257</ele>
        <time>2015-07-11T15:36:33Z</time>
      </trkpt>
      <trkpt lat="42.65606" lon="1.66363">
        <ele>2258</ele>
        <time>2015-07-11T15:37:08Z</time>
      </trkpt>
      <trkpt lat="42.65605" lon="1.66364">
        <ele>2258</ele>
        <time>2015-07-11T15:37:44Z</time>
      </trkpt>
      <trkpt lat="42.65605" lon="1.66364">
        <ele>2258</ele>
        <time>2015-07-11T15:38:30Z</time>
      </trkpt>
      <trkpt lat="42.65605" lon="1.66364">
        <ele>2258</ele>
        <time>2015-07-11T15:39:12Z</time>
      </trkpt>
      <trkpt lat="42.65605" lon="1.66364">
        <ele>2258</ele>
        <time>2015-07-11T15:39:56Z</time>
      </trkpt>
      <trkpt lat="42.65605" lon="1.66363">
        <ele>2258</ele>
        <time>2015-07-11T15:40:36Z</time>
      </trkpt>
      <trkpt lat="42.65605" lon="1.66363">
        <ele>2258</ele>
        <time>2015-07-11T15:41:23Z</time>
      </trkpt>
      <trkpt lat="42.65606" lon="1.66364">
        <ele>2258</ele>
        <time>2015-07-11T15:41:59Z</time>
      </trkpt>
      <trkpt lat="42.65605" lon="1.66365">
        <ele>2258</ele>
        <time>2015-07-11T15:42:38Z</time>
      </trkpt>
      <trkpt lat="42.65605" lon="1.66363">
        <ele>2259</ele>
        <time>2015-07-11T15:43:24Z</time>
      </trkpt>
      <trkpt lat="42.65605" lon="1.66363">
        <ele>2258</ele>
        <time>2015-07-11T15:44:09Z</time>
      </trkpt>
      <trkpt lat="42.65605" lon="1.66364">
        <ele>2259</ele>
        <time>2015-07-11T15:44:55Z</time>
      </trkpt>
      <trkpt lat="42.65605" lon="1.66363">
        <ele>2258</ele>
        <time>2015-07-11T15:45:44Z</time>
      </trkpt>
      <trkpt lat="42.65605" lon="1.66362">
        <ele>2259</ele>
        <time>2015-07-11T15:46:20Z</time>
      </trkpt>
      <trkpt lat="42.65605" lon="1.66362">
        <ele>2259</ele>
        <time>2015-07-11T15:47:04Z</time>
      </trkpt>
      <trkpt lat="42.65606" lon="1.66362">
        <ele>2260</ele>
        <time>2015-07-11T15:47:54Z</time>
      </trkpt>
      <trkpt lat="42.65604" lon="1.66362">
        <ele>2259</ele>
        <time>2015-07-11T15:48:32Z</time>
      </trkpt>
      <trkpt lat="42.65606" lon="1.66362">
        <ele>2260</ele>
        <time>2015-07-11T15:49:13Z</time>
      </trkpt>
      <trkpt lat="42.65605" lon="1.66361">
        <ele>2260</ele>
        <time>2015-07-11T15:50:01Z</time>
      </trkpt>
      <trkpt lat="42.65606" lon="1.66361">
        <ele>2260</ele>
        <time>2015-07-11T15:50:47Z</time>
      </trkpt>
      <trkpt lat="42.65605" lon="1.66362">
        <ele>2260</ele>
        <time>2015-07-11T15:51:23Z</time>
      </trkpt>
      <trkpt lat="42.65605" lon="1.66362">
        <ele>2260</ele>
        <time>2015-07-11T15:52:04Z</time>
      </trkpt>
      <trkpt lat="42.65604" lon="1.66362">
        <ele>2260</ele>
        <time>2015-07-11T15:52:47Z</time>
      </trkpt>
      <trkpt lat="42.65605" lon="1.66361">
        <ele>2260</ele>
        <time>2015-07-11T15:53:36Z</time>
      </trkpt>
      <trkpt lat="42.65605" lon="1.66361">
        <ele>2260</ele>
        <time>2015-07-11T15:54:18Z</time>
      </trkpt>
      <trkpt lat="42.65605" lon="1.66361">
        <ele>2260</ele>
        <time>2015-07-11T15:55:03Z</time>
      </trkpt>
      <trkpt lat="42.65605" lon="1.66361">
        <ele>2260</ele>
        <time>2015-07-11T15:55:43Z</time>
      </trkpt>
      <trkpt lat="42.65604" lon="1.66362">
        <ele>2260</ele>
        <time>2015-07-11T15:56:22Z</time>
      </trkpt>
      <trkpt lat="42.65605" lon="1.66362">
        <ele>2260</ele>
        <time>2015-07-11T15:57:04Z</time>
      </trkpt>
      <trkpt lat="42.65605" lon="1.66361">
        <ele>2260</ele>
        <time>2015-07-11T15:57:46Z</time>
      </trkpt>
      <trkpt lat="42.65605" lon="1.66362">
        <ele>2260</ele>
        <time>2015-07-11T15:58:28Z</time>
      </trkpt>
      <trkpt lat="42.65606" lon="1.66361">
        <ele>2260</ele>
        <time>2015-07-11T15:59:15Z</time>
      </trkpt>
      <trkpt lat="42.65605" lon="1.66362">
        <ele>2260</ele>
        <time>2015-07-11T16:00:01Z</time>
      </trkpt>
      <trkpt lat="42.65606" lon="1.66363">
        <ele>2260</ele>
        <time>2015-07-11T16:00:37Z</time>
      </trkpt>
      <trkpt lat="42.65606" lon="1.66362">
        <ele>2260</ele>
        <time>2015-07-11T16:01:15Z</time>
      </trkpt>
      <trkpt lat="42.65605" lon="1.66362">
        <ele>2260</ele>
        <time>2015-07-11T16:01:53Z</time>
      </trkpt>
      <trkpt lat="42.65606" lon="1.66362">
        <ele>2260</ele>
        <time>2015-07-11T16:02:32Z</time>
      </trkpt>
      <trkpt lat="42.65605" lon="1.66362">
        <ele>2260</ele>
        <time>2015-07-11T16:03:14Z</time>
      </trkpt>
      <trkpt lat="42.65606" lon="1.66361">
        <ele>2260</ele>
        <time>2015-07-11T16:04:00Z</time>
      </trkpt>
      <trkpt lat="42.65606" lon="1.66361">
        <ele>2260</ele>
        <time>2015-07-11T16:04:37Z</time>
      </trkpt>
      <trkpt lat="42.65606" lon="1.66363">
        <ele>2260</ele>
        <time>2015-07-11T16:05:19Z</time>
      </trkpt>
      <trkpt lat="42.65606" lon="1.66363">
        <ele>2260</ele>
        <time>2015-07-11T16:05:52Z</time>
      </trkpt>
      <trkpt lat="42.65606" lon="1.66362">
        <ele>2260</ele>
        <time>2015-07-11T16:06:36Z</time>
      </trkpt>
      <trkpt lat="42.65605" lon="1.66361">
        <ele>2260</ele>
        <time>2015-07-11T16:07:12Z</time>
      </trkpt>
      <trkpt lat="42.65605" lon="1.66361">
        <ele>2260</ele>
        <time>2015-07-11T16:07:55Z</time>
      </trkpt>
      <trkpt lat="42.65605" lon="1.66362">
        <ele>2260</ele>
        <time>2015-07-11T16:08:39Z</time>
      </trkpt>
      <trkpt lat="42.65606" lon="1.66363">
        <ele>2260</ele>
        <time>2015-07-11T16:09:22Z</time>
      </trkpt>
      <trkpt lat="42.65606" lon="1.66362">
        <ele>2260</ele>
        <time>2015-07-11T16:09:58Z</time>
      </trkpt>
      <trkpt lat="42.65606" lon="1.66363">
        <ele>2261</ele>
        <time>2015-07-11T16:10:46Z</time>
      </trkpt>
      <trkpt lat="42.65606" lon="1.66363">
        <ele>2260</ele>
        <time>2015-07-11T16:11:29Z</time>
      </trkpt>
      <trkpt lat="42.65606" lon="1.66363">
        <ele>2261</ele>
        <time>2015-07-11T16:12:15Z</time>
      </trkpt>
      <trkpt lat="42.65606" lon="1.66363">
        <ele>2260</ele>
        <time>2015-07-11T16:12:51Z</time>
      </trkpt>
      <trkpt lat="42.65606" lon="1.66363">
        <ele>2261</ele>
        <time>2015-07-11T16:13:26Z</time>
      </trkpt>
      <trkpt lat="42.65607" lon="1.66364">
        <ele>2261</ele>
        <time>2015-07-11T16:14:10Z</time>
      </trkpt>
      <trkpt lat="42.65607" lon="1.66363">
        <ele>2261</ele>
        <time>2015-07-11T16:14:50Z</time>
      </trkpt>
      <trkpt lat="42.65606" lon="1.66364">
        <ele>2260</ele>
        <time>2015-07-11T16:15:37Z</time>
      </trkpt>
      <trkpt lat="42.65606" lon="1.66363">
        <ele>2260</ele>
        <time>2015-07-11T16:16:21Z</time>
      </trkpt>
      <trkpt lat="42.65606" lon="1.66363">
        <ele>2260</ele>
        <time>2015-07-11T16:17:12Z</time>
      </trkpt>
      <trkpt lat="42.65605" lon="1.66362">
        <ele>2260</ele>
        <time>2015-07-11T16:17:55Z</time>
      </trkpt>
      <trkpt lat="42.65605" lon="1.66363">
        <ele>2260</ele>
        <time>2015-07-11T16:18:35Z</time>
      </trkpt>
      <trkpt lat="42.65605" lon="1.66362">
        <ele>2259</ele>
        <time>2015-07-11T16:19:28Z</time>
      </trkpt>
      <trkpt lat="42.65606" lon="1.66362">
        <ele>2259</ele>
        <time>2015-07-11T16:20:09Z</time>
      </trkpt>
      <trkpt lat="42.65606" lon="1.66361">
        <ele>2259</ele>
        <time>2015-07-11T16:20:42Z</time>
      </trkpt>
      <trkpt lat="42.65605" lon="1.66361">
        <ele>2259</ele>
        <time>2015-07-11T16:21:26Z</time>
      </trkpt>
      <trkpt lat="42.65605" lon="1.66361">
        <ele>2259</ele>
        <time>2015-07-11T16:22:15Z</time>
      </trkpt>
      <trkpt lat="42.65605" lon="1.66361">
        <ele>2259</ele>
        <time>2015-07-11T16:23:03Z</time>
      </trkpt>
      <trkpt lat="42.65605" lon="1.66362">
        <ele>2259</ele>
        <time>2015-07-11T16:23:45Z</time>
      </trkpt>
      <trkpt lat="42.65605" lon="1.66363">
        <ele>2259</ele>
        <time>2015-07-11T16:24:28Z</time>
      </trkpt>
      <trkpt lat="42.65606" lon="1.66363">
        <ele>2259</ele>
        <time>2015-07-11T16:25:16Z</time>
      </trkpt>
      <trkpt lat="42.65604" lon="1.66363">
        <ele>2260</ele>
        <time>2015-07-11T16:26:02Z</time>
      </trkpt>
      <trkpt lat="42.65605" lon="1.66362">
        <ele>2259</ele>
        <time>2015-07-11T16:26:34Z</time>
      </trkpt>
      <trkpt lat="42.65606" lon="1.66363">
        <ele>2259</ele>
        <time>2015-07-11T16:27:20Z</time>
      </trkpt>
      <trkpt lat="42.65605" lon="1.66363">
        <ele>2260</ele>
        <time>2015-07-11T16:27:55Z</time>
      </trkpt>
      <trkpt lat="42.65605" lon="1.6636">
        <ele>2260</ele>
        <time>2015-07-11T16:28:32Z</time>
      </trkpt>
      <trkpt lat="42.65607" lon="1.66361">
        <ele>2260</ele>
        <time>2015-07-11T16:29:01Z</time>
      </trkpt>
      <trkpt lat="42.65607" lon="1.66363">
        <ele>2260</ele>
        <time>2015-07-11T16:29:31Z</time>
      </trkpt>
      <trkpt lat="42.65605" lon="1.66363">
        <ele>2260</ele>
        <time>2015-07-11T16:29:56Z</time>
      </trkpt>
      <trkpt lat="42.65608" lon="1.66362">
        <ele>2260</ele>
        <time>2015-07-11T16:30:30Z</time>
      </trkpt>
      <trkpt lat="42.65602" lon="1.66364">
        <ele>2262</ele>
        <time>2015-07-11T16:30:52Z</time>
      </trkpt>
      <trkpt lat="42.65601" lon="1.66362">
        <ele>2261</ele>
        <time>2015-07-11T16:31:05Z</time>
      </trkpt>
      <trkpt lat="42.65599" lon="1.66363">
        <ele>2262</ele>
        <time>2015-07-11T16:31:20Z</time>
      </trkpt>
      <trkpt lat="42.65595" lon="1.66371">
        <ele>2261</ele>
        <time>2015-07-11T16:31:32Z</time>
      </trkpt>
      <trkpt lat="42.65595" lon="1.66374">
        <ele>2262</ele>
        <time>2015-07-11T16:31:55Z</time>
      </trkpt>
      <trkpt lat="42.65593" lon="1.66373">
        <ele>2261</ele>
        <time>2015-07-11T16:31:59Z</time>
      </trkpt>
      <trkpt lat="42.65585" lon="1.66378">
        <ele>2262</ele>
        <time>2015-07-11T16:32:12Z</time>
      </trkpt>
      <trkpt lat="42.65574" lon="1.6638">
        <ele>2262</ele>
        <time>2015-07-11T16:32:25Z</time>
      </trkpt>
      <trkpt lat="42.65568" lon="1.66379">
        <ele>2263</ele>
        <time>2015-07-11T16:32:38Z</time>
      </trkpt>
      <trkpt lat="42.65566" lon="1.66378">
        <ele>2264</ele>
        <time>2015-07-11T16:32:41Z</time>
      </trkpt>
      <trkpt lat="42.65558" lon="1.66376">
        <ele>2264</ele>
        <time>2015-07-11T16:32:52Z</time>
      </trkpt>
      <trkpt lat="42.65553" lon="1.66377">
        <ele>2265</ele>
        <time>2015-07-11T16:33:08Z</time>
      </trkpt>
      <trkpt lat="42.65551" lon="1.66378">
        <ele>2265</ele>
        <time>2015-07-11T16:33:11Z</time>
      </trkpt>
      <trkpt lat="42.65547" lon="1.66376">
        <ele>2264</ele>
        <time>2015-07-11T16:33:26Z</time>
      </trkpt>
      <trkpt lat="42.65544" lon="1.66376">
        <ele>2265</ele>
        <time>2015-07-11T16:33:37Z</time>
      </trkpt>
      <trkpt lat="42.65541" lon="1.66373">
        <ele>2263</ele>
        <time>2015-07-11T16:33:49Z</time>
      </trkpt>
      <trkpt lat="42.65537" lon="1.66369">
        <ele>2264</ele>
        <time>2015-07-11T16:34:01Z</time>
      </trkpt>
      <trkpt lat="42.65535" lon="1.66364">
        <ele>2263</ele>
        <time>2015-07-11T16:34:13Z</time>
      </trkpt>
      <trkpt lat="42.65527" lon="1.66361">
        <ele>2262</ele>
        <time>2015-07-11T16:34:25Z</time>
      </trkpt>
      <trkpt lat="42.65522" lon="1.66362">
        <ele>2261</ele>
        <time>2015-07-11T16:34:37Z</time>
      </trkpt>
      <trkpt lat="42.65517" lon="1.66358">
        <ele>2261</ele>
        <time>2015-07-11T16:34:45Z</time>
      </trkpt>
      <trkpt lat="42.65511" lon="1.6636">
        <ele>2261</ele>
        <time>2015-07-11T16:34:57Z</time>
      </trkpt>
      <trkpt lat="42.65509" lon="1.66357">
        <ele>2261</ele>
        <time>2015-07-11T16:35:01Z</time>
      </trkpt>
      <trkpt lat="42.65507" lon="1.66357">
        <ele>2261</ele>
        <time>2015-07-11T16:35:04Z</time>
      </trkpt>
      <trkpt lat="42.65499" lon="1.66354">
        <ele>2260</ele>
        <time>2015-07-11T16:35:14Z</time>
      </trkpt>
      <trkpt lat="42.65488" lon="1.6635">
        <ele>2261</ele>
        <time>2015-07-11T16:35:27Z</time>
      </trkpt>
      <trkpt lat="42.65485" lon="1.66349">
        <ele>2261</ele>
        <time>2015-07-11T16:35:34Z</time>
      </trkpt>
      <trkpt lat="42.65477" lon="1.66341">
        <ele>2261</ele>
        <time>2015-07-11T16:35:48Z</time>
      </trkpt>
      <trkpt lat="42.65471" lon="1.66335">
        <ele>2261</ele>
        <time>2015-07-11T16:36:01Z</time>
      </trkpt>
      <trkpt lat="42.65469" lon="1.66333">
        <ele>2261</ele>
        <time>2015-07-11T16:36:04Z</time>
      </trkpt>
      <trkpt lat="42.65467" lon="1.66333">
        <ele>2261</ele>
        <time>2015-07-11T16:36:06Z</time>
      </trkpt>
      <trkpt lat="42.65465" lon="1.66334">
        <ele>2261</ele>
        <time>2015-07-11T16:36:09Z</time>
      </trkpt>
      <trkpt lat="42.65458" lon="1.66326">
        <ele>2261</ele>
        <time>2015-07-11T16:36:24Z</time>
      </trkpt>
      <trkpt lat="42.65457" lon="1.66326">
        <ele>2261</ele>
        <time>2015-07-11T16:36:39Z</time>
      </trkpt>
      <trkpt lat="42.65456" lon="1.66327">
        <ele>2261</ele>
        <time>2015-07-11T16:36:59Z</time>
      </trkpt>
      <trkpt lat="42.65456" lon="1.6633">
        <ele>2261</ele>
        <time>2015-07-11T16:37:21Z</time>
      </trkpt>
      <trkpt lat="42.65454" lon="1.66326">
        <ele>2261</ele>
        <time>2015-07-11T16:37:32Z</time>
      </trkpt>
      <trkpt lat="42.65449" lon="1.6632">
        <ele>2261</ele>
        <time>2015-07-11T16:37:44Z</time>
      </trkpt>
      <trkpt lat="42.65443" lon="1.66316">
        <ele>2262</ele>
        <time>2015-07-11T16:37:54Z</time>
      </trkpt>
      <trkpt lat="42.65438" lon="1.66314">
        <ele>2262</ele>
        <time>2015-07-11T16:38:06Z</time>
      </trkpt>
      <trkpt lat="42.65441" lon="1.66314">
        <ele>2261</ele>
        <time>2015-07-11T16:38:23Z</time>
      </trkpt>
      <trkpt lat="42.65439" lon="1.66318">
        <ele>2261</ele>
        <time>2015-07-11T16:38:43Z</time>
      </trkpt>
      <trkpt lat="42.65437" lon="1.66322">
        <ele>2262</ele>
        <time>2015-07-11T16:38:54Z</time>
      </trkpt>
      <trkpt lat="42.65436" lon="1.66321">
        <ele>2262</ele>
        <time>2015-07-11T16:38:56Z</time>
      </trkpt>
      <trkpt lat="42.65439" lon="1.66315">
        <ele>2262</ele>
        <time>2015-07-11T16:39:09Z</time>
      </trkpt>
      <trkpt lat="42.6544" lon="1.66316">
        <ele>2261</ele>
        <time>2015-07-11T16:39:25Z</time>
      </trkpt>
      <trkpt lat="42.65439" lon="1.66315">
        <ele>2261</ele>
        <time>2015-07-11T16:39:46Z</time>
      </trkpt>
      <trkpt lat="42.65438" lon="1.66321">
        <ele>2261</ele>
        <time>2015-07-11T16:40:04Z</time>
      </trkpt>
      <trkpt lat="42.65433" lon="1.66326">
        <ele>2262</ele>
        <time>2015-07-11T16:40:21Z</time>
      </trkpt>
      <trkpt lat="42.65431" lon="1.66333">
        <ele>2264</ele>
        <time>2015-07-11T16:40:33Z</time>
      </trkpt>
      <trkpt lat="42.65429" lon="1.66339">
        <ele>2265</ele>
        <time>2015-07-11T16:40:47Z</time>
      </trkpt>
      <trkpt lat="42.6543" lon="1.66342">
        <ele>2266</ele>
        <time>2015-07-11T16:41:00Z</time>
      </trkpt>
      <trkpt lat="42.65428" lon="1.66342">
        <ele>2265</ele>
        <time>2015-07-11T16:41:13Z</time>
      </trkpt>
      <trkpt lat="42.65427" lon="1.66342">
        <ele>2265</ele>
        <time>2015-07-11T16:41:28Z</time>
      </trkpt>
      <trkpt lat="42.65428" lon="1.66341">
        <ele>2264</ele>
        <time>2015-07-11T16:41:56Z</time>
      </trkpt>
      <trkpt lat="42.65427" lon="1.66344">
        <ele>2265</ele>
        <time>2015-07-11T16:42:21Z</time>
      </trkpt>
      <trkpt lat="42.65428" lon="1.66342">
        <ele>2265</ele>
        <time>2015-07-11T16:42:56Z</time>
      </trkpt>
      <trkpt lat="42.65429" lon="1.66343">
        <ele>2265</ele>
        <time>2015-07-11T16:43:25Z</time>
      </trkpt>
      <trkpt lat="42.65429" lon="1.66343">
        <ele>2264</ele>
        <time>2015-07-11T16:43:56Z</time>
      </trkpt>
      <trkpt lat="42.65429" lon="1.66343">
        <ele>2264</ele>
        <time>2015-07-11T16:44:34Z</time>
      </trkpt>
      <trkpt lat="42.65428" lon="1.66342">
        <ele>2264</ele>
        <time>2015-07-11T16:45:24Z</time>
      </trkpt>
      <trkpt lat="42.65428" lon="1.66344">
        <ele>2264</ele>
        <time>2015-07-11T16:46:04Z</time>
      </trkpt>
      <trkpt lat="42.65428" lon="1.66343">
        <ele>2264</ele>
        <time>2015-07-11T16:46:19Z</time>
      </trkpt>
    </trkseg>
  </trk>
</gpx>